     2.10           OBSERVATION DATA    G (GPS)             RINEX VERSION / TYPE
teqc 2005May6 SOPAC 20050707 00:35:21UTC                    PGM / RUN BY / DATE
Linux 2.4.20-8|Pentium IV|gcc|Linux|486/DX+                 COMMENT
BIT 2 OF LLI FLAGS DATA COLLECTED UNDER A/S CONDITION       COMMENT
Hayfork Summit                                              MARKER NAME
HAFS                                                        MARKER NUMBER
Zeke Breazeale                                              OBSERVER / AGENCY
0440100989 TRIMBLE 5700 2.01                                REC # / TYPE / VERS
11909466 TRM41249.00 NONE                                   ANT # / TYPE
 -2642690.0000 -4067692.0000  4129140.0000                  APPROX POSITION XYZ
        1.8000        0.0000        0.0000                  ANTENNA: DELTA H/E/N
     1     1                                                WAVELENGTH FACT L1/2
     6    L1    L2    C1    P2    P1    D1                  # / TYPES OF OBSERV
    15.0000                                                 INTERVAL
Northern California Height Modernization 2004               COMMENT
                                                            COMMENT
SOPAC - Scripps Orbit and Permanent Array Center            COMMENT
IGPP - Institute of Geophysics and Planetary Physics        COMMENT
SIO - Scripps Institution of Oceanography                   COMMENT
UCSD - University of California, San Diego                  COMMENT
                                                            COMMENT
email: archive@gpsmail.ucsd.edu                             COMMENT
ftp://garner.ucsd.edu                                       COMMENT
http://sopac.ucsd.edu                                       COMMENT
                                                            COMMENT
                                                            COMMENT
Approximate Lat, Lon : 40.594, -123.011                     COMMENT
                                                            COMMENT
SNR is mapped to RINEX snr flag value [0-9]                 COMMENT
L1 & L2: 2-19 dBHz = 1, 20-27 dBHz = 2, 28-31 dBHz = 3      COMMENT
32-35 dBHz = 4, 36-38 dBHz = 5, 39-41 dBHz = 6              COMMENT
42-44 dBHz = 7, 45-48 dBHz = 8, >= 49 dBHz = 9              COMMENT
  2004     9    10    20    55   15.0000000     GPS         TIME OF FIRST OBS
                                                            END OF HEADER
 04  9 10 20 55 15.0000000  0  3G 8G13G23
    -67993.86358    -22746.91454  22843696.9224   22843697.3484
    -28758.05159
    -13547.78157                  20186070.3984   20186067.8554
     10129.83259
      -983.36756                  21444379.0554   21444375.5664

 04  9 10 20 55 30.0000000  0  4G 8G13G23G27
   -131685.69548    -72376.85244  22831576.3204   22831576.3674
      4246.1224
    -55969.22349    -34751.28947  20180892.0164   20180889.8484
      1814.0784
     19106.25449      6011.21945  21446086.9844   21446083.6094
      -598.4284
    -93113.58659    -67781.84056  21424554.2814   21424553.0904

 04  9 10 20 55 45.0000000  0  6G 3G 8G13G16G23G27
   -128521.72357    -85722.28152  23148844.3524   23148844.9654

   -195717.60548   -122271.81644  22819392.1094   22819391.5664
      4268.7944
    -83455.13749    -56168.88747  20175662.0864   20175659.5744
      1832.3944
     54143.45355     34847.91051  24056053.6414   24056053.0354

     27788.77349     12776.78545  21447739.6644   21447735.9694
      -578.8354
   -138278.00449   -102974.89146  21415959.8594   21415958.3204
      3010.9614
 04  9 10 20 56  0.0000000  0  6G 3G 8G13G16G23G27
   -171626.53547   -119310.41843  23140641.7664   23140641.8594
      2873.6544
   -259899.59048   -172283.73044  22807178.9694   22807178.8874
      4278.7994
   -111025.50849    -77652.29347  20170415.6024   20170413.2274
      1838.0254
     77803.52745     53284.30541  24060555.6414   24060555.4614
     -1577.3384
     36367.17649     19461.23045  21449372.2664   21449368.3754
      -571.8934
   -183588.39549   -138281.68446  21407337.8364   21407336.0394
      3020.6934
 04  9 10 20 56 15.0000000  0  6G 3G 8G13G16G23G27
   -214731.54347   -152898.70343  23132439.2344   23132439.7814
      2873.6674
   -324161.72348   -222358.10244  22794949.8364   22794950.0204
      4284.1424
   -138610.48049    -99147.07847  20165166.1564   20165163.9224
      1838.9984
    101390.28145     71663.52041  24065045.2424   24065044.1134
     -1572.4504
     44911.12549     26118.82445  21450997.9774   21450993.8364
      -569.5974
   -228974.90649   -173647.78546  21398700.7034   21398699.4024
      3025.7674
 04  9 10 20 56 30.0000000  0  6G 3G 8G13G16G23G27
   -257810.05547   -186466.32843  23124241.1334   23124242.5664
      2871.9014
   -388477.74248   -272474.45344  22782710.4064   22782710.5044
      4287.7354
   -166183.48849   -120632.53947  20159919.1884   20159917.0904
      1838.2014
    124929.65245     90005.85242  24069524.4924   24069523.5164
     -1569.2914
     53446.98449     32770.12945  21452622.0554   21452618.2074
      -569.0574
   -274411.20349   -209052.67646  21390054.2974   21390053.1604
      3029.0864
 04  9 10 20 56 45.0000000  0  7G 3G 8G13G16G19G23G27
   -300849.34847   -220003.41443  23116051.6334   23116052.2424
      2869.2864
   -452835.05948   -322622.98844  22770463.4144   22770463.3794
      4290.4884
   -193732.15249   -142099.03147  20154677.1024   20154674.5984
      1836.5784
    148433.80946    108320.73842  24073996.7734   24073996.5944
     -1566.9444
   -148250.55556   -111616.31252  24120791.1884   24120791.3874

     61987.16849     39424.80145  21454247.3914   21454243.2814
      -569.3464
   -319884.88349   -244486.70346  21381401.3284   21381399.7194
      3031.5794
 04  9 10 20 57  0.0000000  0  7G 3G 8G13G16G19G23G27
   -343845.98047   -253507.27343  23107869.7894   23107869.1294
      2866.4424
   -517230.51648   -372801.23844  22758209.1564   22758209.7074
      4293.0304
   -221253.02749   -163543.87947  20149439.8754   20149437.4024
      1834.7254
    171905.71146    126610.48042  24078464.6094   24078463.3484
     -1564.7934
   -214112.76246   -162937.40242  24108257.6724   24108258.7304
      4390.8144
     70534.84449     46085.30545  21455874.3754   21455870.1524
      -569.8454
   -365392.71549   -279947.34446  21372741.0234   21372740.0744
      3033.8554
 04  9 10 20 57 15.0000000  0  7G 3G 8G13G16G19G23G27
   -386795.38347   -286974.29743  23099696.1804   23099696.9384
      2863.2934
   -581659.68048   -423005.74244  22745949.2814   22745949.5044
      4295.2784
   -248741.75849   -184963.66847  20144208.7424   20144206.5004
      1832.5824
    195349.16045    144878.03542  24082925.1094   24082924.4614
     -1562.8974
   -280011.05946   -214286.59042  24095719.2274   24095718.0944
      4393.2204
     79094.07848     52754.80945  21457502.7114   21457499.3984
      -570.6164
   -410930.39149   -315431.23046  21364075.4614   21364074.5634
      3035.8454
 04  9 10 20 57 30.0000000  0  7G 3G 8G13G16G19G23G27
   -429694.93047   -320402.50042  23091532.2344   23091533.6134
      2859.9704
   -646120.14148   -473234.63344  22733683.0004   22733682.8834
      4297.3644
   -276195.68049   -206356.32847  20138984.4614   20138982.2304
      1830.2614
    218766.51646    163125.28542  24087381.4844   24087381.1954
     -1561.1574
   -345942.74646   -265661.83642  24083171.8204   24083170.8284
      4395.4464
     87667.34048     59435.25045  21459134.1254   21459130.7584
      -571.5514
   -456495.48849   -350936.49246  21355405.1024   21355404.1454
      3037.6734
 04  9 10 20 57 45.0000000  0  7G 3G 8G13G16G19G23G27
   -472543.59447   -353791.03543  23083379.4534   23083379.2974
      2856.5784
   -710611.04748   -523487.25444  22721410.2734   22721410.0984
      4299.3944
   -303613.89849   -227721.18047  20133767.0554   20133764.6294
      1827.8814
    242158.16046    181352.49642  24091832.5084   24091832.0984
     -1559.4434
   -411906.53546   -317062.04742  24070619.1724   24070619.3524
      4397.5864
     96255.23049     66127.08645  21460768.2424   21460764.9304
      -572.5264
   -502087.36349   -386462.61346  21346729.0474   21346727.6954
      3039.4584
 04  9 10 20 58  0.0000000  0  7G 3G 8G13G16G19G23G27
   -515337.23447   -387136.67243  23075235.4924   23075235.7074
      2852.9094
   -775128.53548   -573760.59443  22709133.1954   22709133.0474
      4301.1664
   -330992.50849   -249055.16047  20128557.1484   20128554.6054
      1825.2414
    265527.64546    199562.44542  24096279.5474   24096279.3524
     -1557.9664
   -477898.24246   -368484.03142  24058060.5084   24058062.2344
      4399.4474
    104861.50849     72833.24645  21462406.2584   21462402.6524
      -573.7524
   -547702.10549   -422006.56246  21338048.9774   21338047.1914
      3040.9834
 04  9 10 20 58 15.0000000  0  7G 3G 8G13G16G19G23G27
   -558074.81647   -420438.68443  23067103.0474   23067103.2504
      2849.1724
   -839671.71548   -624053.96943  22696850.5474   22696850.6294
      4302.8794
   -358330.55149   -270357.53547  20123354.9614   20123352.5354
      1822.5364
    288875.43046    217755.46542  24100722.8284   24100722.0274
     -1556.5194
   -543916.77346   -419926.93442  24045498.3674   24045498.5904
      4401.2354
    113486.82849     79554.26645  21464047.9924   21464044.1844
      -575.0214
   -593338.97349   -457567.75446  21329364.5704   21329362.4804
      3042.4584
 04  9 10 20 58 30.0000000  0  7G 3G 8G13G16G19G23G27
   -600753.43747   -453694.71542  23058981.7424   23058981.8054
      2845.2414
   -904237.80548   -674365.18443  22684564.7194   22684563.5164
      4304.4064
   -385625.07049   -291626.00447  20118160.6414   20118158.6724
      1819.6354
    312204.02046    235933.55942  24105161.7344   24105161.6644
     -1555.2394
   -609958.93046   -471388.25442  24032930.7504   24032929.6844
      4402.8104
    122133.98849     86292.27745  21465693.1564   21465689.4804
      -576.4774
   -638995.12549   -493143.97746  21320676.5784   21320674.5664
      3043.7434
 04  9 10 20 58 45.0000000  0  7G 3G 8G13G16G19G23G27
   -643372.43447   -486904.29743  23050871.5784   23050872.2154
      2841.2664
   -968826.47348   -724694.00443  22672273.9144   22672273.2154
      4305.9114
   -412875.58649   -312860.16047  20112975.2114   20112972.7774
      1816.7014
    335513.41046    254096.66442  24109597.2974   24109597.3554
     -1553.9594
   -676023.83646   -522867.27742  24020358.9064   24020358.3874
      4404.3274
    130803.25049     93047.53545  21467342.5864   21467339.3324
      -577.9514
   -684670.23449   -528734.95346  21311984.5314   21311983.2734
      3045.0074
 04  9 10 20 59  0.0000000  0  7G 3G 8G13G16G19G23G27
   -685929.78947   -520065.84843  23042772.5394   23042773.4654
      2837.1574
  -1033435.82448   -775038.91843  22659979.1094   22659978.8054
      4307.2904
   -440080.10549   -334058.49647  20107798.3594   20107795.9144
      1813.6354
    358805.11746    272246.01242  24114029.7504   24114029.1994
     -1552.7804
   -742109.38746   -574362.42242  24007783.1024   24007782.7544
      4405.7034
    139496.31649     99821.32445  21468996.8364   21468993.7114
      -579.5384
   -730362.64849   -564339.41446  21303289.4844   21303288.3834
      3046.1614
 04  9 10 20 59 15.0000000  0  7G 3G 8G13G16G19G23G27
   -728423.44946   -553177.78542  23034686.1334   23034687.0904
      2832.9114
  -1098063.73447   -825398.28943  22647679.7114   22647680.1174
      4308.5274
   -467236.78549   -355219.54747  20102630.6414   20102628.0704
      1810.4454
    382080.65646    290382.72742  24118458.7894   24118458.5164
     -1551.7034
   -808213.47746   -625871.98842  23995203.9384   23995203.8284
      4406.9394
    148214.90649    106614.99645  21470656.0704   21470652.4654
      -581.2394
   -776070.35549   -599955.80146  21294591.7114   21294590.2074
      3047.1804
 04  9 10 20 59 30.0000000  0  7G 3G 8G13G16G19G23G27
   -770854.02346   -586240.53143  23026612.1564   23026612.6134
      2828.7054
  -1162711.26247   -875772.94543  22635378.5554   22635378.4384
      4309.8354
   -494346.38348   -376343.91447  20097471.9844   20097469.3874
      1807.3074
    405338.85245    308505.97342  24122884.7114   24122884.6954
     -1550.5464
   -874336.53546   -677396.32442  23982621.0474   23982620.1644
      4408.2044
    156957.95749    113427.73845  21472319.9534   21472316.4414
      -582.8704
   -821794.28949   -635584.84846  21285890.8524   21285889.4884
      3048.2624
 04  9 10 20 59 45.0000000  0  7G 3G 8G13G16G19G23G27
   -813219.64847   -619252.65243  23018550.1094   23018550.8054
      2824.3754
  -1227376.94548   -926161.75443  22623073.1174   22623072.6954
      4311.0464
   -521407.14549   -397430.22347  20092322.5234   20092319.7384
      1804.0514
    428580.90646    326616.62142  24127308.3984   24127307.0634
     -1549.4704
   -940476.54746   -728933.89142  23970034.8914   23970034.0044
      4409.3344
    165727.05949    120260.78145  21473988.7734   21473985.0354
      -584.6074
   -867532.94949   -671225.34046  21277187.2344   21277186.0474
      3049.2444
 04  9 10 21  0  0.0000000  0  7G 3G 8G13G16G19G23G27
   -855517.41847   -652211.93043  23010501.1254   23010501.1454
      2819.8514
  -1292057.93748   -976562.51243  22610764.7424   22610763.5044
      4312.0664
   -548416.46149   -418476.45347  20087182.6884   20087179.7544
      1800.6214
    451809.22346    344716.57442  24131728.1564   24131726.9184
     -1548.5544
  -1006630.46546   -780482.28142  23957445.8984   23957445.4804
      4410.2614
    174524.76249    127116.10245  21475662.5394   21475659.2304
      -586.5144
   -913283.68449   -706875.25046  21268480.8054   21268479.4884
      3050.0494
 04  9 10 21  0 15.0000000  0  6G 3G 8G13G19G23G27
   -897746.83647   -685117.95343  23002464.7424   23002465.3134
      2815.2954
  -1356753.77048  -1026974.78944  22598453.6174   22598453.0984
      4313.0554
   -575373.76249   -439482.13747  20082053.0314   20082049.8984
      1797.1534
  -1072797.57046   -832040.94542  23944854.5004   23944854.3364
      4411.1404
    183351.45749    133994.03945  21477342.1954   21477338.9964
      -588.4464
   -959046.00849   -742534.19546  21259772.6644   21259771.5234
      3050.8224
 04  9 10 21  0 30.0000000  0  6G 3G 8G13G19G23G27
   -939906.89846   -717969.93043  22994442.1024   22994442.9614
      2810.6714
  -1421463.69548  -1077398.09444  22586140.0234   22586139.5824
      4313.9954
   -602278.12149   -460446.57447  20076933.1254   20076930.1564
      1793.6244
  -1138976.68046   -883609.01242  23932261.3364   23932261.0784
      4411.9414
    192207.71149    140894.99645  21479027.3674   21479024.1174
      -590.4174
  -1004819.40649   -778201.76246  21251062.0164   21251061.0514
      3051.5604
 04  9 10 21  0 45.0000000  0  6G 3G 8G13G19G23G27
   -981995.81247   -750766.46543  22986433.0944   22986433.4964
      2805.9284
  -1486186.28148  -1127831.25444  22573823.3134   22573823.1094
      4314.8394
   -629127.89549   -481368.47747  20071823.7584   20071821.4344
      1789.9854
  -1205166.00446   -935185.01642  23919665.4924   23919664.6684
      4412.6224
    201094.92649    147820.05145  21480718.8594   21480715.0084
      -592.4814
  -1050602.20749   -813876.67246  21242350.0234   21242348.2074
      3052.1874
 04  9 10 21  0 59.9990000  0  6G 3G 8G13G19G23G27
  -1024008.33247   -783503.48443  22978438.5974   22978439.4214
      2800.8354
  -1550914.99648  -1178269.18444  22561505.5734   22561505.4724
      4315.2484
   -655918.92249   -502244.60546  20066725.5504   20066722.9524
      1786.0684
  -1271358.59846   -986763.56642  23907069.1834   23907069.0854
      4412.8404
    210014.58649    154770.42645  21482416.4334   21482412.6014
      -594.6444
  -1096389.32849   -849554.93446  21233637.1984   21233635.8554
      3052.4754
 04  9 10 21  1 14.9990000  0  6G 3G 8G13G19G23G27
  -1065947.67247   -816183.45743  22970457.8084   22970457.9254
      2795.9564
  -1615655.82848  -1228716.55144  22549185.9644   22549185.8904
      4316.0554
   -682652.46949   -523075.94147  20061638.3864   20061635.6474
      1782.2364
  -1337560.59447  -1038349.43742  23894472.4014   23894471.7844
      4413.4664
    218970.10548    161748.72745  21484120.7304   21484116.5814
      -597.0354
  -1142184.50449   -885239.48046  21224922.5344   21224921.4604
      3053.0124
 04  9 10 21  1 29.9990000  0  6G 3G 8G13G19G23G27
  -1107806.82447   -848800.94543  22962492.0194   22962492.1054
      2790.6104
  -1680400.55948  -1279166.95744  22536865.4174   22536865.1284
      4316.3154
   -709322.83649   -543858.04347  20056563.0734   20056560.8154
      1778.0244
  -1403763.28547  -1089935.86342  23881874.0734   23881873.1404
      4413.5134
    227964.59449    168757.39845  21485832.1594   21485828.6944
      -599.6334
  -1187980.97349   -920925.03546  21216207.8944   21216206.4134
      3053.0984
 04  9 10 21  1 44.9990000  0  6G 3G 8G13G19G23G27
  -1149585.60646   -881355.83642  22954541.1284   22954542.3784
      2785.2524
  -1745149.37148  -1329620.53544  22524544.2064   22524543.7184
      4316.5884
   -735929.79749   -564590.75047  20051500.0654   20051497.6164
      1773.7974
  -1469966.21147  -1141522.48042  23869275.8084   23869275.2264
      4413.5284
    236997.90249    175796.32045  21487551.1514   21487547.9294
      -602.2214
  -1233778.60249   -956611.48446  21207492.6594   21207490.8784
      3053.1754
 04  9 10 21  1 59.9990000  0  6G 3G 8G13G19G23G27
  -1191282.34447   -913846.74242  22946606.5654   22946607.1514
      2779.7834
  -1809900.71948  -1380076.10544  22512222.0584   22512222.2884
      4316.7574
   -762471.85249   -585272.86346  20046449.2694   20046446.7534
      1769.4704
  -1536167.69947  -1193107.98442  23856678.1674   23856677.5624
      4413.4334
    246071.53949    182866.66845  21489277.7924   21489274.4484
      -604.9094
  -1279576.02749   -992297.78146  21198777.6204   21198776.0734
      3053.1624
 04  9 10 21  2 14.9990000  0  6G 3G 8G13G19G23G27
  -1232895.97347   -946272.92242  22938688.2694   22938687.4684
      2774.2424
  -1874653.85548  -1430533.04744  22499900.2454   22499900.3394
      4316.8764
   -788947.87549   -605903.53147  20041410.8944   20041408.3124
      1765.0684
  -1602366.58246  -1244691.46942  23844080.7534   23844079.8234
      4413.2594
    255186.09049    189968.88745  21491012.2534   21491008.8194
      -607.6374
  -1325372.30149  -1027983.17646  21190062.9644   21190061.9564
      3053.0854
 04  9 10 21  2 29.9990000  0  6G 3G 8G13G19G23G27
  -1274426.19547   -978634.11343  22930785.5344   22930785.0854
      2768.6824
  -1939408.35248  -1480991.07444  22487577.4804   22487576.8784
      4316.9664
   -815357.73849   -626482.64846  20036385.5584   20036382.9874
      1760.6584
  -1668562.16047  -1296272.34842  23831484.1754   23831484.2144
      4413.0394
    264341.77348    197103.16045  21492754.4334   21492751.2924
      -610.3794
  -1371167.40249  -1063667.66446  21181348.3864   21181346.7964
      3053.0074
 04  9 10 21  2 44.9990000  0  6G 3G 8G13G19G23G27
  -1315873.18047  -1010930.42643  22922898.6364   22922898.1284
      2763.1324
  -2004164.47748  -1531450.35944  22475254.8154   22475254.2574
      4317.0754
   -841701.64549   -647010.36746  20031372.2224   20031370.0624
      1756.2604
  -1734754.55947  -1347850.74642  23818887.5424   23818888.5734
      4412.8274
    273538.07049    204269.08645  21494504.3314   21494500.8124
      -613.0864
  -1416961.60949  -1099351.46146  21172634.4874   21172632.4484
      3052.9474
 04  9 10 21  2 59.9990000  0  6G 3G 8G13G19G23G27
  -1357234.90247  -1043160.30543  22915027.6124   22915027.4644
      2757.4484
  -2068920.91048  -1581909.89844  22462932.5654   22462932.3194
      4317.0964
   -867977.76249   -667485.25847  20026372.3394   20026369.9804
      1751.7414
  -1800941.60946  -1399424.98042  23806293.0344   23806292.8124
      4412.4704
    282776.65248    211467.96145  21496262.0504   21496259.1244
      -615.9054
  -1462753.35949  -1135033.33246  21163920.3554   21163918.6444
      3052.7834
 04  9 10 21  3 14.9990000  0  6G 3G 8G13G19G23G27
  -1398509.56247  -1075322.35243  22907173.5504   22907174.0774
      2751.6444
  -2133675.82848  -1632368.25043  22450609.5654   22450609.4564
      4316.9954
   -894184.48449   -687906.08246  20021385.1284   20021382.3624
      1747.1154
  -1867121.27746  -1450993.50042  23793699.2374   23793697.8704
      4411.9784
    292058.83249    218700.79745  21498029.3554   21498025.5894
      -618.8124
  -1508541.07449  -1170712.06246  21155206.9874   21155205.9174
      3052.5144
 04  9 10 21  3 29.9990000  0  6G 3G 8G13G19G23G27
  -1439695.68047  -1107415.39543  22899335.6834   22899335.8354
      2745.7414
  -2198427.66448  -1682824.18743  22438287.5814   22438287.1794
      4316.7894
   -920320.37549   -708271.71146  20016411.6904   20016408.8234
      1742.3934
  -1933291.98847  -1502554.99642  23781107.1204   23781106.4954
      4411.3814
    301385.89548    225968.60945  21499803.9804   21499800.4294
      -621.8044
  -1554323.34049  -1206386.53946  21146494.9254   21146493.5304
      3052.1514
 04  9 10 21  3 44.9990000  0  6G 3G 8G13G19G23G27
  -1480791.44546  -1139438.04742  22891514.8474   22891515.0654
      2739.7184
  -2263175.02048  -1733276.63744  22425966.7844   22425966.7694
      4316.4904
   -946383.73449   -728580.81646  20011451.8084   20011449.4094
      1737.5574
  -1999451.77047  -1554107.99243  23768517.6204   23768516.9684
      4410.6524
    310759.29748    233272.54345  21501587.5814   21501584.5114
      -624.8934
  -1600098.68449  -1242055.63746  21137784.0114   21137783.0034
      3051.6904
 04  9 10 21  3 59.9990000  0  6G 3G 8G13G19G23G27
  -1521796.93746  -1171390.37142  22883712.4804   22883711.9684
      2733.6994
  -2327918.24648  -1783725.87144  22413646.7534   22413646.9874
      4316.2154
   -972374.63749   -748833.47347  20006506.2224   20006503.7844
      1732.7274
  -2065600.52347  -1605652.41043  23755930.3314   23755929.9604
      4409.9174
    320178.67249    240612.28945  21503379.6984   21503376.8584
      -627.9584
  -1645867.44149  -1277719.58646  21129074.5344   21129073.8354
      3051.2514
 04  9 10 21  4 14.9990000  0  6G 3G 8G13G19G23G27
  -1562711.44547  -1203271.78142  22875926.8474   22875925.8584
      2727.6344
  -2392656.25048  -1834171.04344  22401327.4724   22401326.8234
      4315.8674
   -998292.51249   -769029.21947  20001574.0114   20001571.5734
      1727.8584
  -2131737.26246  -1657187.46942  23743344.5424   23743344.7494
      4409.1164
    329644.52048    247988.26245  21505181.1754   21505178.6084
      -631.0574
  -1691629.07849  -1313377.98846  21120366.7844   21120364.8584
      3050.7764
 04  9 10 21  4 29.9990000  0  6G 3G 8G13G19G23G27
  -1603533.21147  -1235080.90642  22868158.4724   22868158.0584
      2721.4514
  -2457387.71948  -1884611.10943  22389009.1674   22389008.7104
      4315.4314
  -1024135.72349   -789166.78546  19996656.4334   19996654.0344
      1722.8814
  -2197859.99646  -1708711.59443  23730760.8394   23730761.6984
      4408.1824
    339158.18048    255401.46545  21506991.7144   21506988.1904
      -634.2444
  -1737381.94549  -1349029.57846  21111660.1984   21111658.5584
      3050.1914
 04  9 10 21  4 44.9990000  0  6G 3G 8G13G19G23G27
  -1644261.47347  -1266817.18742  22860407.7534   22860407.5544
      2715.2174
  -2522112.25048  -1935045.78544  22376692.2764   22376691.8044
      4314.9694
  -1049903.71149   -809245.73846  19991752.8154   19991750.1244
      1717.8664
  -2263968.04346  -1760224.28542  23718180.3474   23718181.0264
      4407.2034
    348720.03148    262852.24245  21508811.3394   21508807.9684
      -637.4574
  -1783125.55149  -1384673.92646  21102955.2614   21102953.5304
      3049.5744
 04  9 10 21  4 59.9990000  0  6G 3G 8G13G19G23G27
  -1684891.39546  -1298476.82843  22852675.7924   22852676.0694
      2708.6614
  -2586825.11748  -1985471.37944  22364378.4254   22364377.4994
      4314.1914
  -1075591.61749   -829262.28946  19986864.7924   19986861.8194
      1712.5274
  -2330056.25846  -1811721.52042  23705604.6904   23705603.8824
      4405.8814
    358334.77748    270344.22345  21510641.0894   21510637.6084
      -640.9834
  -1828855.36749  -1420307.54346  21094253.2764   21094251.8084
      3048.6544
 04  9 10 21  5 14.9990000  0  6G 3G 8G13G19G23G27
  -1725423.05946  -1330059.91442  22844963.2374   22844963.4724
      2702.1114
  -2651526.67248  -2035888.14844  22352066.2064   22352065.3194
      4313.4374
  -1101199.53549   -849216.50446  19981991.4404   19981989.2694
      1707.1954
  -2396124.63346  -1863203.31242  23693032.1514   23693031.5464
      4404.5584
    368001.90248    277877.03545  21512480.7064   21512477.7724
      -644.4754
  -1874571.57449  -1455930.55946  21085553.8624   21085552.5584
      3047.7474
 04  9 10 21  5 29.9990000  0  6G 3G 8G13G19G23G27
  -1765856.64546  -1361566.57843  22837268.9644   22837269.0774
      2695.5724
  -2716217.23848  -2086296.35243  22339755.6124   22339754.8314
      4312.7044
  -1126727.94949   -869108.77346  19977133.4874   19977130.9604
      1701.8944
  -2462173.22746  -1914669.71142  23680463.7064   23680463.2024
      4403.2404
    377720.91448    285450.25445  21514329.9644   21514326.7614
      -647.9344
  -1920274.82449  -1491543.45746  21076856.5814   21076855.3044
      3046.8834
 04  9 10 21  5 44.9990000  0  6G 3G 8G13G19G23G27
  -1806192.32847  -1392996.94943  22829592.9014   22829593.2104
      2689.0464
  -2780896.71148  -2136695.93043  22327447.8314   22327446.1634
      4311.9654
  -1152176.87149   -888939.10547  19972290.8234   19972288.2694
      1696.5954
  -2528201.89846  -1966120.52742  23667899.0264   23667899.1554
      4401.9114
    387491.35248    293063.56345  21516188.7764   21516185.9254
      -651.3624
  -1965965.12549  -1527146.28546  21068162.4014   21068160.6284
      3046.0204
 04  9 10 21  5 59.9990000  0  6G 3G 8G13G19G23G27
  -1846428.52346  -1424349.83642  22821936.9014   22821937.1244
      2682.4134
  -2845563.96548  -2187085.97344  22315141.8474   22315140.7374
      4311.1504
  -1177545.00849   -908706.48046  19967463.6674   19967460.9834
      1691.2094
  -2594208.89146  -2017554.52042  23655338.8154   23655337.7844
      4400.4664
    397314.47748    300717.92245  21518058.3004   21518055.2764
      -654.8754
  -2011641.38749  -1562738.16846  21059470.1674   21059468.9564
      3045.0844
 04  9 10 21  6 14.9990000  0  6G 3G 8G13G19G23G27
  -1886561.46947  -1455622.21542  22814299.7144   22814299.4684
      2675.5304
  -2910215.26648  -2237463.58644  22302839.2144   22302839.2024
      4310.0874
  -1202828.50049   -928407.89146  19962651.9334   19962649.5034
      1685.5664
  -2660190.13747  -2068968.43443  23642783.4174   23642781.7844
      4398.7504
    407194.00448    308416.23045  21519938.8474   21519935.5344
      -658.6354
  -2057299.88749  -1598316.21146  21050782.0264   21050780.2304
      3043.9004
 04  9 10 21  6 29.9990000  0  6G 3G 8G13G19G23G27
  -1926594.44546  -1486816.73042  22806681.3554   22806681.0304
      2668.8654
  -2974854.34848  -2287831.66044  22290538.3234   22290538.5894
      4309.2724
  -1228030.94149   -948046.16047  19957856.3154   19957853.6794
      1680.1634
  -2726148.93447  -2120364.82442  23630231.4804   23630230.4054
      4397.2534
    417126.01248    316155.42645  21521828.7144   21521824.7184
      -662.1344
  -2102944.12949  -1633883.14546  21042095.9174   21042094.2414
      3042.9494
 04  9 10 21  6 44.9990000  0  6G 3G 8G13G19G23G27
  -1966524.06246  -1517930.68042  22799082.6364   22799083.4134
      2661.9744
  -3039478.16048  -2338187.83244  22278240.9014   22278240.8864
      4308.2544
  -1253149.02049   -967618.69546  19953076.5114   19953073.9404
      1674.5394
  -2792081.77347  -2171740.98042  23617684.0344   23617683.6554
      4395.5234
    427113.52048    323937.87544  21523728.8084   21523725.2224
      -665.8344
  -2148571.12149  -1669436.63346  21033413.5894   21033411.8474
      3041.7994
 04  9 10 21  6 59.9990000  0  6G 3G 8G13G19G23G27
  -2006349.53947  -1548963.47742  22791503.9254   22791504.8004
      2655.0324
  -3104085.50848  -2388531.17644  22265946.5654   22265946.3974
      4307.1574
  -1278181.93049   -987124.86347  19948312.6514   19948310.3474
      1668.8614
  -2857987.37147  -2223095.96142  23605143.0654   23605141.9014
      4393.7074
    437157.23848    331764.13344  21525640.1124   21525636.3194
      -669.5814
  -2194180.10249  -1704976.09046  21024734.2224   21024732.9914
      3040.5994
 04  9 10 21  7 14.9990000  0  6G 3G 8G13G19G23G27
  -2046068.25847  -1579913.10242  22783946.1284   22783946.0504
      2647.9154
  -3168674.27748  -2438860.05944  22253656.1834   22253655.5584
      4305.9184
  -1303127.20749  -1006562.72747  19943566.1514   19943563.3434
      1663.0184
  -2923863.24646  -2274427.76242  23592606.6054   23592607.2534
      4391.7254
    447259.30548    339635.85245  21527563.0034   21527559.4054
      -673.4714
  -2239768.72349  -1740499.68746  21016059.0584   21016058.1204
      3039.2414
 04  9 10 21  7 29.9990000  0  6G 3G 8G13G19G23G27
  -2085678.16047  -1610777.94542  22776408.6364   22776408.9764
      2640.6604
  -3233242.44548  -2489172.91044  22241368.3394   22241367.6554
      4304.5454
  -1327982.95349  -1025930.84846  19938835.8864   19938833.5154
      1657.0504
  -2989707.21946  -2325734.71642  23580076.2614   23580077.3514
      4389.5984
    457421.52048    347554.43045  21529496.6514   21529492.7534
      -677.4814
  -2285335.28949  -1776006.07846  21007388.1364   21007386.7694
      3037.7714
 04  9 10 21  7 44.9990000  0  6G 3G 8G13G19G23G27
  -2125181.04347  -1641559.38342  22768891.6514   22768891.2804
      2633.5264
  -3297791.91848  -2539471.17643  22229085.2224   22229084.7104
      4303.2984
  -1352750.96549  -1045230.58646  19934122.7764   19934120.3974
      1651.2014
  -3055520.79347  -2377017.96142  23567553.1444   23567553.6904
      4387.5724
    467641.87948    355518.32845  21531441.5894   21531438.5974
      -681.3574
  -2330881.54749  -1811496.65246  20998720.9874   20998718.9334
      3036.4174
 04  9 10 21  7 59.9990000  0  6G 3G 8G13G19G23G27
  -2164573.28147  -1672254.60243  22761395.4404   22761395.2264
      2626.1494
  -3362319.23048  -2589752.17244  22216806.2844   22216805.3904
      4301.8214
  -1377427.71549  -1064459.22346  19929427.0344   19929424.6124
      1645.1174
  -3121300.10546  -2428274.50042  23555035.1834   23555035.1404
      4385.2884
    477923.69948    363530.10545  21533398.3004   21533394.6164
      -685.4554
  -2376404.12549  -1846968.78946  20990058.0584   20990056.2494
      3034.8394
 04  9 10 21  8 14.9990000  0  6G 3G 8G13G19G23G27
  -2203852.29347  -1702861.61342  22753921.0194   22753920.9444
      2618.6014
  -3426822.02048  -2640014.07444  22204531.7924   22204531.5694
      4300.1864
  -1402010.73849  -1083614.82046  19924748.8394   19924746.5774
      1638.8684
  -3187042.35246  -2479502.19942  23542525.6444   23542524.1874
      4382.8164
    488269.17248    371591.48445  21535366.6904   21535363.5384
      -689.6984
  -2421900.82049  -1882420.76246  20981400.4724   20981398.7454
      3033.1134
 04  9 10 21  8 29.9990000  0  6G 3G 8G13G19G23G27
  -2243018.66847  -1733380.81642  22746466.7844   22746467.2574
      2611.0924
  -3491300.87148  -2690257.29744  22192261.6984   22192261.9214
      4298.5904
  -1426500.60949  -1102697.84447  19920088.6594   19920086.7024
      1632.6584
  -3252747.85946  -2530701.25843  23530022.1754   23530021.2614
      4380.3674
    498677.60549    379701.92245  21537347.5974   21537344.1474
      -693.8964
  -2467372.21149  -1917852.99246  20972747.5504   20972746.1284
      3031.4264
 04  9 10 21  8 44.9990000  0  6G 3G 8G13G19G23G27
  -2282071.64547  -1763811.71542  22739035.9804   22739035.1444
      2603.5324
  -3555755.54748  -2740481.69544  22179996.5194   22179996.4294
      4296.9784
  -1450896.76649  -1121707.83647  19915446.2764   19915444.0034
      1626.4104
  -3318415.75447  -2581870.98843  23517525.8624   23517525.1514
      4377.8604
    509149.20349    387861.59045  21539340.2534   21539336.5344
      -698.1074
  -2512817.78949  -1953265.13746  20964099.5734   20964098.0114
      3029.7054
 04  9 10 21  8 59.9990000  0  6G 3G 8G13G19G23G27
  -2321010.52746  -1794153.67242  22731626.5114   22731626.7334
      2595.9264
  -3620184.99648  -2790686.44144  22167736.2764   22167735.6244
      4295.2974
  -1475198.40649  -1140644.18047  19910821.8704   19910819.2144
      1620.1094
  -3384045.04346  -2633010.65242  23505036.6284   23505036.9174
      4375.2864
    519684.60949    396070.95745  21541345.1124   21541341.4834
      -702.3604
  -2558236.92649  -1988656.66446  20955456.5034   20955454.8314
      3027.9424
 04  9 10 21  9 14.9990000  0  6G 3G 8G13G19G23G27
  -2359835.52047  -1824406.88342  22724238.2694   22724238.7304
      2588.3334
  -3684589.80548  -2840871.95344  22155479.2534   22155479.7264
      4293.6544
  -1499406.05549  -1159507.27747  19906215.3554   19906212.7724
      1613.8434
  -3449635.95746  -2684120.43042  23492555.7534   23492554.9134
      4372.7284
    530283.10949    404329.49645  21543361.8554   21543358.6474
      -706.5674
  -2603630.25049  -2024028.07446  20946818.3154   20946816.3154
      3026.2224
 04  9 10 21  9 29.9990000  0  6G 3G 8G13G19G23G27
  -2398544.39847  -1854569.58243  22716871.8704   22716872.0854
      2580.5924
  -3748967.88748  -2891036.67644  22143228.9874   22143228.5114
      4291.8724
  -1523517.45349  -1178295.38347  19901626.7694   19901624.2724
      1607.4274
  -3515185.98847  -2735198.30942  23480082.1364   23480080.9404
      4370.0024
    540946.66449    412638.74245  21545391.2374   21545388.0194
      -710.9044
  -2648995.73849  -2059377.80146  20938185.6834   20938183.8584
      3024.3664
 04  9 10 21  9 44.9990000  0  6G 3G 8G13G19G23G27
  -2437135.05946  -1884640.21142  22709528.1204   22709528.8744
      2572.7114
  -3813317.34848  -2941179.08244  22130984.1754   22130982.9914
      4289.9644
  -1547530.71949  -1197007.02347  19897057.4404   19897054.9724
      1600.8844
  -3580692.91446  -2786242.61342  23467616.2304   23467615.2884
      4367.1284
    551677.12149    421000.10545  21547433.0974   21547430.0034
      -715.3644
  -2694331.35249  -2094704.25046  20929558.4334   20929557.3084
      3022.3744
 04  9 10 21  9 59.9990000  0  6G 3G 8G13G19G23G27
  -2475604.02747  -1914616.00442  22702207.5974   22702207.2454
      2564.5984
  -3877634.52748  -2991296.34044  22118745.4254   22118744.4684
      4287.8124
  -1571442.41449  -1215639.50847  19892506.9334   19892505.0264
      1594.1134
  -3646152.94547  -2837250.37942  23455159.8624   23455158.5734
      4364.0024
    562477.59448    429416.03545  21549488.3154   21549485.4644
      -720.0324
  -2739633.73849  -2130004.79746  20920937.9094   20920936.6244
      3020.1594
 04  9 10 21 10 14.9990000  0  6G 3G 8G13G19G23G27
  -2513952.16047  -1944497.66042  22694910.3314   22694909.6984
      2556.5424
  -3941920.76248  -3041389.48844  22106512.0114   22106510.6404
      4285.7494
  -1595253.29349  -1234193.43446  19887976.2534   19887973.7694
      1587.3924
  -3711566.77047  -2888222.13343  23442711.4254   23442711.4644
      4360.9224
    573346.96549    437885.64145  21551557.2064   21551554.1404
      -724.6254
  -2784904.14549  -2165280.42246  20912323.5584   20912321.6714
      3018.0274
 04  9 10 21 10 29.9990000  0  6G 3G 8G13G19G23G27
  -2552180.37947  -1974285.89142  22687635.9404   22687635.9524
      2548.5484
  -4006177.19548  -3091459.40244  22094284.2144   22094282.7724
      4283.7624
  -1618964.48849  -1252669.69547  19883464.0114   19883461.4374
      1580.7464
  -3776935.01647  -2939158.37942  23430272.3554   23430271.7184
      4357.8834
    584284.05148    446408.02045  21553637.9724   21553634.7334
      -729.1394
  -2830143.53549  -2200531.90246  20903714.4404   20903712.8944
      3015.9594
 04  9 10 21 10 44.9990000  0  6G 3G 8G13G19G23G27
  -2590287.22347  -2003979.48442  22680384.0814   22680385.0194
      2540.4564
  -4070402.25048  -3141504.87944  22082062.4404   22082061.1014
      4281.6704
  -1642574.65649  -1271067.22747  19878971.0344   19878968.7334
      1574.0114
  -3842256.16447  -2990057.95742  23417841.4334   23417840.8474
      4354.7434
    595290.02748    454984.07845  21555732.5424   21555728.8624
      -733.7324
  -2875350.58249  -2235758.16046  20895111.7924   20895110.3274
      3013.8034
 04  9 10 21 10 59.9990000  0  6G 3G 8G13G19G23G27
  -2628272.37947  -2033578.28942  22673156.3624   22673155.8944
      2532.3444
  -4134595.86748  -3191525.84044  22069846.0194   22069846.2264
      4279.5744
  -1666083.65249  -1289385.93047  19874497.5974   19874494.8584
      1567.2664
  -3907529.77047  -3040920.45343  23405420.8004   23405420.0264
      4351.5744
    606364.89148    463613.80945  21557840.0584   21557836.1634
      -738.3244
  -2920525.35249  -2270959.27346  20886515.3864   20886513.8434
      3011.6514
 04  9 10 21 11 14.9990000  0  6G 3G 8G13G19G23G27
  -2666130.91447  -2063078.43043  22665952.2924   22665951.7764
      2523.9024
  -4198753.22348  -3241518.55144  22057637.5504   22057637.0544
      4277.1574
  -1689486.49249  -1307621.90247  19870044.2144   19870041.6164
      1560.1894
  -3972750.63347  -3091741.85543  23393009.8784   23393009.6514
      4348.0584
    617513.33248    472300.87945  21559961.2764   21559958.2224
      -743.2294
  -2965662.92249  -2306131.39546  20877926.0894   20877923.7144
      3009.1714
 04  9 10 21 11 29.9990000  0  6G 3G 8G13G19G23G27
  -2703864.40247  -2092481.13743  22658771.5504   22658771.4404
      2515.5664
  -4262875.93048  -3291484.27744  22045435.8234   22045434.8044
      4274.8474
  -1712784.94949  -1325776.55146  19865610.6594   19865607.9954
      1553.2304
  -4037920.03147  -3142523.14543  23380607.8474   23380607.9484
      4344.6274
    628733.46948    481043.80944  21562096.5034   21562093.2304
      -748.0094
  -3010765.06649  -2341275.91446  20869343.2304   20869341.3944
      3006.8104
 04  9 10 21 11 44.9990000  0  6G 3G 8G13G19G23G27
  -2741469.12547  -2121783.49643  22651615.3704   22651615.8744
      2506.9824
  -4326960.43048  -3341420.22744  22033241.4644   22033240.0774
      4272.3004
  -1735975.24649  -1343846.91846  19861197.8784   19861195.0544
      1546.0204
  -4103034.05547  -3193261.29343  23368217.5654   23368216.9214
      4340.9354
    640028.77048    489845.30945  21564245.9804   21564242.6794
      -753.0204
  -3055828.22749  -2376390.06646  20860767.6054   20860766.6554
      3004.2114
 04  9 10 21 11 59.9990000  0  6G 3G 8G13G19G23G27
  -2778946.63346  -2150986.72343  22644483.1284   22644483.8124
      2498.5014
  -4391008.28148  -3391327.60244  22021053.1364   22021053.1754
      4269.8574
  -1759058.86749  -1361834.15247  19856804.9334   19856802.4644
      1538.9084
  -4168093.99247  -3243957.27043  23355837.0654   23355836.1084
      4337.3294
    651397.38748    498703.94945  21566409.2924   21566406.2804
      -757.9084
  -3100854.06649  -2411475.13746  20852199.9334   20852198.8554
      3001.7234
 04  9 10 21 12 14.9990000  0  6G 3G 8G13G19G23G27
  -2816296.35547  -2180090.37143  22637375.8394   22637377.0694
      2489.9824
  -4455019.29348  -3441206.27344  22008872.0114   22008871.8624
      4267.4014
  -1782035.44949  -1379737.98447  19852432.7224   19852429.9054
      1531.7724
  -4233099.09048  -3294610.54743  23343467.1054   23343465.7884
      4333.6734
    662839.62948    507619.95345  21568586.6834   21568583.9834
      -762.8164
  -3145842.32049  -2446530.90246  20843638.8234   20843637.8124
      2999.2174
 04  9 10 21 12 29.9990000  0  6G 3G 8G13G19G23G27
  -2853516.34847  -2209092.95742  22630294.0814   22630293.4334
      2481.3334
  -4518991.64548  -3491054.82044  21996698.6444   21996697.9444
      4264.8234
  -1804903.22749  -1397557.03147  19848081.2534   19848078.6794
      1524.5184
  -4298047.31647  -3345219.50843  23331107.8864   23331107.2534
      4329.8824
    674357.00848    516594.50045  21570778.4334   21570775.5224
      -767.8254
  -3190791.20749  -2481555.98846  20835085.3944   20835083.8194
      2996.5924
 04  9 10 21 12 44.9990000  0  6G 3G 8G13G19G23G27
  -2890606.97347  -2237994.69542  22623235.4334   22623235.0304
      2472.7084
  -4582925.53548  -3540873.43044  21984532.1444   21984531.1634
      4262.2594
  -1827662.63749  -1415291.64547  19843750.4014   19843747.6444
      1517.2944
  -4362938.75446  -3395784.20343  23318759.3314   23318759.2224
      4326.0964
    685948.93448    525627.13745  21572984.6054   21572981.2574
      -772.7954
  -3235701.25849  -2516550.84046  20826539.4724   20826537.0224
      2994.0034
 04  9 10 21 12 59.9990000  0  6G 3G 8G13G19G23G27
  -2927566.61746  -2266794.41842  22616201.7764   22616201.9684
      2463.9764
  -4646819.77048  -3590661.12544  21972373.6594   21972373.0304
      4259.6164
  -1850312.15649  -1432940.60947  19839439.9254   19839437.7224
      1509.9684
  -4427771.73046  -3446303.33643  23306422.0034   23306420.8624
      4322.1984
    697616.59448    534718.79745  21575204.9254   21575201.0264
      -777.8444
  -3280571.06249  -2551514.32446  20818000.9334   20817998.9444
      2991.3204
 04  9 10 21 13 14.9990000  0  6G 3G 8G13G19G23G27
  -2964397.68747  -2295493.94143  22609193.4404   22609193.3154
      2455.4054
  -4710676.83648  -3640419.83244  21960221.7614   21960221.9804
      4257.1384
  -1872854.18749  -1450505.83247  19835150.5654   19835148.1124
      1502.8024
  -4492548.20346  -3496778.44142  23294095.4644   23294093.8434
      4318.4324
    709357.47348    543867.50045  21577439.1054   21577435.6364
      -782.7254
  -3325403.09849  -2586448.36346  20809469.7764   20809468.0774
      2988.8024
 04  9 10 21 13 29.9990000  0  6G 3G 8G13G19G23G27
  -3001100.43447  -2324093.48442  22602208.9954   22602208.9804
      2446.8504
  -4774497.03148  -3690149.81244  21948077.5114   21948076.9954
      4254.6804
  -1895289.12549  -1467987.60947  19830881.2144   19830878.5584
      1495.6624
  -4557268.34447  -3547209.65643  23281779.8624   23281777.8084
      4314.6764
    721170.92648    553072.77345  21579686.9404   21579683.6444
      -787.5644
  -3370197.85949  -2621353.36746  20800945.1834   20800944.1554
      2986.3174
 04  9 10 21 13 44.9990000  0  6G 3G 8G13G19G23G27
  -3037674.20747  -2352592.49243  22595250.0424   22595249.3394
      2438.2524
  -4838279.90248  -3739850.69944  21935939.5654   21935939.5154
      4252.1914
  -1917616.34849  -1485385.43747  19826632.5584   19826630.2804
      1488.4824
  -4621931.19547  -3597596.20342  23269474.3704   23269472.8554
      4310.8574
    733057.43048    562334.95345  21581949.3784   21581946.1444
      -792.4344
  -3414954.83249  -2656228.90246  20792428.5344   20792427.4524
      2983.7984
 04  9 10 21 13 59.9990000  0  6G 3G 8G13G19G23G27
  -3074119.91847  -2380991.72343  22588314.3314   22588313.8084
      2429.7144
  -4902026.46148  -3789523.32844  21923809.4804   21923808.8234
      4249.7714
  -1939836.77049  -1502700.05547  19822404.2374   19822401.5034
      1481.3614
  -4686537.55146  -3647938.75842  23257179.9334   23257179.5584
      4307.0904
    745015.74248    571653.09045  21584224.6984   21584221.7064
      -797.2214
  -3459675.06249  -2691075.83246  20783918.2614   20783916.8084
      2981.3494
 04  9 10 21 14 14.9990000  0  6G 3G 8G13G19G23G27
  -3110435.48447  -2409289.55143  22581403.7064   22581403.5304
      2421.0384
  -4965734.64548  -3839166.06644  21911685.9644   21911685.0584
      4247.2124
  -1961948.54349  -1519930.01247  19818196.4014   19818193.5504
      1474.1184
  -4751085.08647  -3698235.48443  23244897.1054   23244896.2694
      4303.1694
    757047.66048    581028.57045  21586514.0894   21586511.4484
      -802.1284
  -3504356.68749  -2725892.67246  20775415.6444   20775414.0934
      2978.7754
 04  9 10 21 14 29.9990000  0  6G 3G 8G13G19G23G27
  -3146621.94947  -2437486.77742  22574516.8314   22574517.1944
      2412.4314
  -5029405.74648  -3888779.86344  21899569.1674   21899568.0344
      4244.7404
  -1983952.62149  -1537076.05147  19814009.1904   19814006.1944
      1466.9394
  -4815574.60946  -3748486.97343  23232625.2304   23232624.3354
      4299.3024
    769151.89848    590460.41045  21588817.7454   21588814.8474
      -806.9494
  -3549000.91849  -2760680.38346  20766920.1284   20766918.4524
      2976.2824
 04  9 10 21 14 44.9990000  0  6G 3G 8G13G19G23G27
  -3182677.85947  -2465582.27342  22567656.5504   22567655.5384
      2403.7274
  -5093038.27748  -3938363.62544  21887460.4644   21887459.5694
      4242.1694
  -2005847.83649  -1554137.25847  19809842.5034   19809839.8974
      1459.6814
  -4880004.58247  -3798692.06243  23220365.0264   23220363.7024
      4295.3324
    781329.48848    599949.40245  21591135.1674   21591131.6754
      -811.8394
  -3593606.50049  -2795437.97746  20758432.1284   20758430.5734
      2973.7054
 04  9 10 21 14 59.9990000  0  6G 3G 8G13G19G23G27
  -3218602.41048  -2493575.39142  22560819.4874   22560819.6164
      2394.9704
  -5156631.56648  -3987916.81244  21875359.3704   21875358.8864
      4239.5534
  -2027633.27349  -1571112.91846  19805697.1054   19805694.7144
      1452.3634
  -4944373.84447  -3848849.84843  23208115.2064   23208114.6014
      4291.2844
    793581.07848    609496.08245  21593466.4484   21593462.8704
      -816.7734
  -3638172.68449  -2830164.85946  20749951.3004   20749949.7414
      2971.0794
 04  9 10 21 15 14.9980000  0  6G 3G 8G13G19G23G27
  -3254393.05948  -2521464.19542  22554009.4984   22554008.5184
      2386.0434
  -5220181.30548  -4037436.06244  21863266.4514   21863266.5294
      4236.6494
  -2049307.43049  -1588001.87547  19801572.8974   19801570.4674
      1444.9444
  -5008677.72747  -3898956.69543  23195878.3344   23195877.9864
      4286.9264
    805905.81648    619099.73845  21595811.5534   21595808.3854
      -821.6494
  -3682696.54749  -2864858.77046  20741478.8034   20741477.1474
      2968.2584
 04  9 10 21 15 29.9980000  0  6G 3G 8G13G19G23G27
  -3290057.36747  -2549254.54343  22547222.4124   22547221.9284
      2377.6214
  -5283699.00848  -4086930.34844  21851178.8894   21851178.7724
      4234.5144
  -2070875.95749  -1604808.52047  19797468.1394   19797465.3464
      1437.9024
  -5072927.24646  -3949021.19143  23183652.5534   23183651.7604
      4283.3014
    818302.14848    628759.19944  21598170.3504   21598167.9324
      -826.4224
  -3727186.83249  -2899526.52746  20733012.8344   20733010.7254
      2966.0194
 04  9 10 21 15 44.9980000  0  6G 3G 8G13G19G23G27
  -3325592.64147  -2576944.35943  22540459.8974   22540460.9514
      2369.0184
  -5347179.94948  -4136395.99244  21839099.2094   21839097.7874
      4232.0634
  -2092337.10549  -1621531.50046  19793384.0684   19793381.2094
      1430.7434
  -5137117.77047  -3999039.71943  23171436.9674   23171436.0534
      4279.3684
    830769.41848    638473.90645  21600543.2644   21600540.1544
      -831.1514
  -3771640.51249  -2934165.75046  20724553.4824   20724552.1934
      2963.5794
 04  9 10 21 15 59.9980000  0  6G 3G 8G13G19G23G27
  -3360997.60247  -2604532.62943  22533722.5684   22533723.7134
      2360.3314
  -5410623.14548  -4185832.24644  21827026.0294   21827024.8424
      4229.5464
  -2113690.00049  -1638170.11346  19789321.4124   19789318.3264
      1423.5264
  -5201247.89146  -4049011.13742  23159232.6474   23159232.1044
      4275.3414
    843308.32448    648244.46145  21602929.2874   21602926.3614
      -835.9274
  -3816056.45749  -2968775.55546  20716101.0924   20716100.3184
      2961.0634
 04  9 10 21 16 14.9980000  0  6G 3G 8G13G19G23G27
  -3396272.75847  -2632019.75442  22527009.9754   22527010.3344
      2351.6774
  -5474029.23448  -4235239.58244  21814960.6934   21814960.1784
      4227.0734
  -2134935.16449  -1654724.77747  19785278.3814   19785275.5644
      1416.3444
  -5265317.62146  -4098935.55942  23147041.8654   23147040.2214
      4271.3154
    855918.39548    658070.44545  21605329.4124   21605325.9394
      -840.6714
  -3860435.37149  -3003356.52746  20707656.1394   20707654.7294
      2958.5944
 04  9 10 21 16 29.9980000  0  6G 3G 8G13G19G23G27
  -3431415.77347  -2659403.87942  22520322.1154   22520322.7294
      2342.8684
  -5537395.83648  -4284616.11745  21802902.5144   21802902.1234
      4224.4404
  -2156070.04349  -1671193.52047  19781256.0224   19781253.8854
      1408.9924
  -5329324.46947  -4148810.94942  23134861.4674   23134859.6314
      4267.1234
    868601.67648    667953.50444  21607742.1624   21607739.0224
      -845.5524
  -3904774.91849  -3037906.81646  20699218.7404   20699217.2134
      2955.9704
 04  9 10 21 16 44.9980000  0  6G 3G 8G13G19G23G27
  -3466427.87147  -2686686.01243  22513660.3654   22513659.5184
      2334.1404
  -5600724.50048  -4333963.08244  21790851.2014   21790850.7604
      4221.9114
  -2177096.25049  -1687577.57846  19777255.2324   19777252.7604
      1401.7474
  -5393269.63747  -4198638.24243  23122693.2324   23122691.7954
      4263.0114
    881356.55148    677892.33644  21610169.5844   21610166.5064
      -850.3254
  -3949076.68049  -3072427.65646  20690788.3424   20690786.5184
      2953.4514
 04  9 10 21 16 59.9980000  0  6G 3G 8G13G19G23G27
  -3501308.59847  -2713865.77042  22507022.2954   22507022.1744
      2325.3824
  -5664014.95348  -4383280.29344  21778807.4824   21778807.2324
      4219.3644
  -2198013.37949  -1703876.64147  19773274.7564   19773272.4324
      1394.4754
  -5457152.32047  -4248416.88342  23110537.0684   23110535.3184
      4258.8464
    894183.12148    687887.02744  21612610.3264   21612607.1044
      -855.1054
  -3993340.25049  -3106918.74646  20682365.3184   20682363.4084
      2950.9054
 04  9 10 21 17 14.9980000  0  6G 3G 8G13G19G23G27
  -3536056.28547  -2740941.86342  22500410.1004   22500410.7954
      2316.5134
  -5727265.38748  -4432566.31644  21766770.8184   21766771.0064
      4216.6964
  -2218819.77049  -1720089.41847  19769315.3974   19769312.7324
      1387.0934
  -5520970.69146  -4298145.38743  23098391.4594   23098390.9164
      4254.5584
    907082.80148    697938.68844  21615065.3034   21615062.3934
      -859.9794
  -4037564.13749  -3141378.91446  20673949.6394   20673947.8654
      2948.2594
 04  9 10 21 17 29.9980000  0  6G 3G 8G13G19G23G27
  -3570671.46547  -2767914.73443  22493823.0684   22493822.9794
      2307.6794
  -5790476.32448  -4481821.55944  21754742.4044   21754741.9084
      4214.0634
  -2239515.89149  -1736216.27046  19765377.1784   19765374.2834
      1379.7414
  -5584724.93046  -4347823.94142  23086259.6864   23086258.9474
      4250.2834
    920054.98048    708046.85244  21617533.9984   21617530.6434
      -864.8124
  -4081749.03149  -3175808.69146  20665541.6004   20665540.6154
      2945.6604
 04  9 10 21 17 44.9980000  0  6G 3G 8G13G19G23G27
  -3605155.66047  -2794785.49642  22487260.3894   22487260.6314
      2298.9464
  -5853649.52048  -4531047.38344  21742720.6704   21742720.3574
      4211.5464
  -2260103.20749  -1752258.34047  19761459.3504   19761456.8934
      1372.4884
  -5648416.22347  -4397453.44542  23074139.8974   23074138.4594
      4246.0864
    933097.82449    718210.07844  21620015.9204   21620013.0534
      -869.5234
  -4125896.37549  -3210209.21146  20657140.5614   20657139.0804
      2943.1564
 04  9 10 21 17 59.9980000  0  6G 3G 8G13G19G23G27
  -3639507.50047  -2821553.14843  22480724.1544   22480725.0644
      2290.1234
  -5916783.82048  -4580242.91044  21730707.3574   21730706.3614
      4208.9534
  -2280580.69949  -1768214.82447  19757562.6234   19757559.9714
      1365.1664
  -5712043.08247  -4447032.73043  23062031.7404   23062031.4824
      4241.7914
    946212.38349    728429.18044  21622511.6314   21622507.9594
      -874.3044
  -4170005.15649  -3244579.68046  20648746.8894   20648745.0574
      2940.5854
 04  9 10 21 18 14.9980000  0  6G 3G 8G13G19G23G27
  -3673728.71547  -2848218.99643  22474212.0614   22474212.3034
      2281.4144
  -5979880.86349  -4629409.41844  21718700.2724   21718699.0144
      4206.4704
  -2300950.01649  -1784087.02347  19753686.1784   19753683.7834
      1357.9544
  -5775607.02347  -4496563.00043  23049936.1704   23049934.9164
      4237.5964
    959396.65248    738702.59844  21625020.4284   21625016.9364
      -878.9514
  -4214077.14549  -3278921.48446  20640360.4124   20640358.1474
      2938.1334
 04  9 10 21 18 29.9980000  0  6G 3G 8G13G19G23G27
  -3707817.53947  -2874781.70343  22467724.3574   22467724.9044
      2272.5884
  -6042939.12148  -4678545.71944  21706699.9754   21706699.4714
      4203.8844
  -2321209.45349  -1799873.60246  19749831.3734   19749828.8544
      1350.6294
  -5839106.00847  -4546042.65643  23037853.2404   23037850.8114
      4233.2664
    972652.16448    749031.54744  21627543.1004   21627539.6894
      -883.7014
  -4258110.57049  -3313233.23446  20631981.0294   20631979.4284
      2935.5624
 04  9 10 21 18 44.9980000  0  6G 3G 8G13G19G23G27
  -3741777.32047  -2901243.85243  22461263.0144   22461263.8144
      2263.9854
  -6105962.10548  -4727654.51244  21694707.2954   21694706.3184
      4201.5324
  -2341362.32449  -1815577.14147  19745996.3264   19745993.9754
      1343.5254
  -5902543.08647  -4595474.07043  23025781.0684   23025779.2324
      4229.1394
    985975.34048    759413.21944  21630078.5064   21630075.1784
      -888.2124
  -4302109.16049  -3347517.85946  20623608.7724   20623607.1744
      2933.2394
 04  9 10 21 18 59.9980000  0  6G 3G 8G13G19G23G27
  -3775607.16846  -2927604.75843  22454824.5764   22454825.8974
      2255.3234
  -6168948.64548  -4776734.89844  21682721.2014   21682720.0724
      4199.1034
  -2361407.94149  -1831197.09847  19742181.9124   19742179.8344
      1336.3744
  -5965917.06248  -4644856.34043  23013721.8974   23013719.4044
      4224.9324
    999366.77348    769848.07444  21632626.3504   21632624.1394
      -892.7624
  -4346071.87949  -3381774.50046  20615242.4904   20615241.1044
      2930.8484
 04  9 10 21 19 14.9980000  0  6G 3G 8G13G19G23G27
  -3809307.14147  -2953864.46943  22448412.0924   22448412.2954
      2246.6654
  -6231899.19148  -4825787.26644  21670742.0764   21670741.1194
      4196.7034
  -2381346.53549  -1846733.66047  19738387.6074   19738385.1784
      1329.2404
  -6029228.03147  -4694189.46143  23001673.7874   23001672.1044
      4220.7314
   1012826.03548    780335.77744  21635187.5764   21635184.6664
      -897.2844
  -4389999.28149  -3416003.63346  20606883.4984   20606881.6704
      2928.4934
 04  9 10 21 19 29.9980000  0  6G 3G 8G13G19G23G27
  -3842875.29347  -2980021.44943  22442024.7644   22442024.0374
      2237.8774
  -6294811.98448  -4874810.19944  21658770.6234   21658770.3144
      4194.1864
  -2401176.21549  -1862185.36747  19734614.0684   19734611.5254
      1321.9794
  -6092473.70747  -4743471.75043  22989638.4754   22989637.1314
      4216.3784
   1026354.74648    790877.59844  21637761.9984   21637759.2794
      -901.9144
  -4433889.34449  -3450203.67246  20598531.5844   20598529.7604
      2926.0044
 04  9 10 21 19 44.9980000  0  6G 3G 8G13G19G23G27
  -3876312.25846  -3006076.20742  22435660.7404   22435661.6154
      2229.1314
  -6357687.32448  -4923803.94544  21646806.1314   21646805.1544
      4191.6894
  -2420897.50049  -1877552.60947  19730861.4674   19730858.8574
      1314.7524
  -6155654.36747  -4792703.39143  22977615.0924   22977614.1894
      4212.0444
   1039952.16448    801472.95744  21640349.6544   21640346.5024
      -906.4954
  -4477742.82049  -3484375.21946  20590186.5684   20590185.3734
      2923.5654
 04  9 10 21 19 59.9980000  0  6G 3G 8G13G19G23G27
  -3909616.13347  -3032027.27043  22429323.4984   22429324.7834
      2220.2584
  -6420523.64149  -4972767.27044  21634848.6544   21634847.6544
      4189.0884
  -2440508.63349  -1892834.01247  19727129.5454   19727127.0064
      1307.4094
  -6218768.05147  -4841882.82042  22965604.8574   22965603.7754
      4207.5794
   1053619.95748    812123.14544  21642950.1784   21642947.1504
      -911.1864
  -4521557.99649  -3518516.89546  20581848.9594   20581847.3304
      2921.0124
 04  9 10 21 20 14.9980000  0  6G 3G 8G13G19G23G27
  -3942788.39147  -3057875.77342  22423011.1934   22423011.9674
      2211.4844
  -6483322.41048  -5021701.36744  21622898.0844   21622897.1584
      4186.5854
  -2460011.04349  -1908030.69947  19723418.3814   19723415.5724
      1300.1614
  -6281815.89147  -4891010.92643  22953607.5144   22953605.9364
      4203.1894
   1067356.35548    822826.79744  21645564.5844   21645560.6234
      -915.7604
  -4565336.34049  -3552629.89146  20573517.9124   20573516.2724
      2918.5564
 04  9 10 21 20 29.9980000  0  6G 3G 8G13G19G23G27
  -3975830.61747  -3083622.94143  22416723.7094   22416723.9474
      2202.8154
  -6546085.30548  -5070607.49644  21610954.8114   21610954.1044
      4184.1934
  -2479406.52049  -1923144.06247  19719727.3264   19719724.9514
      1293.0324
  -6344799.31648  -4940088.84043  22941622.2564   22941620.6664
      4198.8954
   1081159.45348    833582.43044  21648190.9754   21648187.9714
      -920.2074
  -4609079.72349  -3586715.62946  20565193.9674   20565192.3464
      2916.2264
 04  9 10 21 20 44.9980000  0  6G 3G 8G13G19G23G27
  -4008741.40247  -3109267.69943  22410460.9434   22410461.5104
      2194.0524
  -6608811.16049  -5119484.76644  21599018.2954   21599018.1354
      4181.7244
  -2498693.63749  -1938172.98847  19716057.0844   19716054.8224
      1285.8084
  -6407716.51247  -4989115.18043  22929648.7644   22929648.4794
      4194.4804
   1095030.49248    844390.99644  21650831.0684   21650827.9204
      -924.7364
  -4652786.79349  -3620773.07446  20556876.7324   20556875.1704
      2913.8054
 04  9 10 21 20 59.9980000  0  6G 3G 8G13G19G23G27
  -4041519.60947  -3134809.15243  22404223.8894   22404223.8184
      2185.2144
  -6671498.81649  -5168332.26645  21587089.4044   21587089.3384
      4179.1774
  -2517871.21949  -1953116.55947  19712407.7874   19712405.4794
      1278.5054
  -6470566.16847  -5038088.87143  22917689.6934   22917687.9554
      4189.9774
   1108970.28148    855253.14144  21653483.8344   21653480.8504
      -929.3194
  -4696456.38749  -3654801.32846  20548566.6864   20548565.2874
      2911.3064
 04  9 10 21 21 14.9980000  0  6G 3G 8G13G19G23G27
  -4074166.44147  -3160248.22743  22398010.5374   22398010.9004
      2176.4554
  -6734149.47748  -5217150.92644  21575167.2094   21575167.0294
      4176.7114
  -2536940.78149  -1967975.95747  19708778.9674   19708776.7294
      1271.3044
  -6533349.22748  -5087010.65643  22905741.8344   22905740.1234
      4185.5374
   1122977.45748    866167.78544  21656149.4124   21656146.3734
      -933.8124
  -4740089.93049  -3688801.48846  20540263.4364   20540261.8574
      2908.9034
 04  9 10 21 21 29.9980000  0  6G 3G 8G13G19G23G27
  -4106680.67647  -3185583.98043  22391823.8734   22391824.4674
      2167.6164
  -6796761.96149  -5265939.84444  21563252.6234   21563252.1744
      4174.1664
  -2555900.81249  -1982750.02047  19705171.3654   19705168.9514
      1264.0024
  -6596064.02048  -5135879.25843  22893807.6784   22893805.7484
      4180.9864
   1137053.05948    877135.76244  21658827.3184   21658824.7874
      -938.3734
  -4783686.30949  -3722772.68046  20531967.2794   20531965.1234
      2906.4254
 04  9 10 21 21 44.9980000  0  6G 3G 8G13G19G23G27
  -4139061.87547  -3210816.07043  22385661.5144   22385662.0414
      2158.7474
  -6859335.86348  -5314698.72344  21551345.5534   21551344.0924
      4171.5934
  -2574751.01649  -1997438.48446  19701583.9044   19701581.6864
      1256.6804
  -6658710.11747  -5184694.33643  22881886.4364   22881884.9474
      4176.4074
   1151197.08248    888157.04344  21661519.0224   21661516.2724
      -942.9354
  -4827245.16049  -3756714.63746  20523678.2254   20523676.9514
      2903.9234
 04  9 10 21 21 59.9980000  0  6G 3G 8G13G19G23G27
  -4171306.59047  -3235941.80542  22379525.2564   22379525.8144
      2149.6484
  -6921868.00448  -5363425.06644  21539446.0374   21539443.9514
      4168.8094
  -2593488.05149  -2012038.77347  19698018.3504   19698015.8734
      1249.1364
  -6721283.73447  -5233452.95743  22869979.0144   22869977.0224
      4171.5744
   1165412.79748    899234.18044  21664224.0924   21664220.9754
      -947.7144
  -4870763.15249  -3790624.75446  20515397.0224   20515395.9714
      2901.1994
 04  9 10 21 22 14.9980000  0  6G 3G 8G13G19G23G27
  -4203419.12147  -3260964.53542  22373414.6934   22373415.2444
      2140.8354
  -6984362.70348  -5412122.20744  21527553.1704   21527551.6664
      4166.3134
  -2612116.44149  -2026554.41447  19694473.3504   19694471.0294
      1241.8934
  -6783788.92647  -5282158.25843  22858084.6704   22858082.9554
      4167.0134
   1179695.67248    910363.66044  21666942.2174   21666939.1744
      -952.1924
  -4914244.75849  -3824506.50046  20507122.6784   20507121.4824
      2898.7744
 04  9 10 21 22 29.9980000  0  6G 3G 8G13G19G23G27
  -4235401.16047  -3285885.60243  22367329.0064   22367329.1824
      2132.1364
  -7046821.53548  -5460791.41444  21515667.9594   21515666.8544
      4163.9224
  -2630637.87549  -2040986.70347  19690949.0924   19690946.4904
      1234.7624
  -6846227.27747  -5330811.43043  22846203.0844   22846201.6044
      4162.5574
   1194043.63348    921543.86744  21669672.4204   21669669.2604
      -956.5314
  -4957691.77049  -3858361.31646  20498854.8894   20498853.5334
      2896.4674
 04  9 10 21 22 44.9980000  0  6G 3G 8G13G19G23G27
  -4267253.44147  -3310705.55942  22361267.5454   22361267.7294
      2123.4854
  -7109245.46148  -5509433.39844  21503788.6544   21503788.3184
      4161.5954
  -2649052.89549  -2055336.06647  19687444.8034   19687442.2604
      1227.6684
  -6908599.07447  -5379412.78543  22834334.4594   22834332.6504
      4158.1204
   1208455.81648    932774.12144  21672415.4284   21672412.1354
      -960.8124
  -5001104.90249  -3892189.73446  20490593.9204   20490592.5574
      2894.2094
 04  9 10 21 22 59.9980000  0  6G 3G 8G13G19G23G27
  -4298972.39147  -3335421.61743  22355231.8504   22355231.8934
      2114.5974
  -7171630.87948  -5558045.39844  21491917.5534   21491916.6274
      4159.0284
  -2667358.16049  -2069599.91846  19683961.2174   19683958.7754
      1220.3514
  -6970900.47747  -5427959.27343  22822478.2484   22822476.2874
      4153.4274
   1222935.57848    944057.01644  21675170.3894   21675168.1234
      -965.3174
  -5044480.90649  -3925989.19146  20482339.5614   20482338.4714
      2891.7344
 04  9 10 21 23 14.9980000  0  6G 3G 8G13G19G23G27
  -4330563.32446  -3360037.90642  22349220.2954   22349219.7724
      2106.0624
  -7233983.24248  -5606631.63744  21480052.0374   21480050.5334
      4156.8244
  -2685559.06649  -2083782.44146  19680497.9124   19680495.1974
      1213.3944
  -7033136.69147  -5476454.98443  22810635.0534   22810633.1544
      4149.0814
   1237477.30548    955388.20344  21677938.2404   21677934.9864
      -969.4484
  -5087825.01649  -3959763.82046  20474091.5684   20474089.9514
      2889.6074
 04  9 10 21 23 29.9980000  0  6G 3G 8G13G19G23G27
  -4362024.01246  -3384552.73042  22343233.5684   22343233.3464
      2097.3794
  -7296300.57048  -5655190.56644  21468192.9904   21468192.3894
      4154.4894
  -2703653.36349  -2097881.89846  19677055.0684   19677051.9944
      1206.2864
  -7095305.22347  -5524897.93743  22798804.9284   22798802.7294
      4144.5694
   1252082.88348    966769.14844  21680717.5614   21680714.3384
      -973.7054
  -5131135.14549  -3993511.96546  20465849.6624   20465848.4674
      2887.3424
 04  9 10 21 23 44.9980000  0  6G 3G 8G13G19G23G27
  -4393354.34447  -3408965.94543  22337271.6784   22337271.4674
      2088.6894
  -7358582.46548  -5703721.90244  21456341.2174   21456339.9594
      4152.1264
  -2721640.94549  -2111898.20746  19673631.6004   19673629.2564
      1199.1724
  -7157405.52347  -5573287.72343  22786987.5614   22786986.1314
      4140.0204
   1266752.31648    978199.84844  21683508.5614   21683505.9284
      -977.9624
  -5174411.18749  -4027233.55146  20457614.7324   20457613.2214
      2885.0704
 04  9 10 21 23 59.9980000  0  6G 3G 8G13G19G23G27
  -4424552.43747  -3433276.14843  22331334.4284   22331334.2954
      2079.8734
  -7420827.21548  -5752224.27344  21444496.5614   21444495.2214
      4149.6504
  -2739520.00049  -2125829.94147  19670229.7174   19670227.1664
      1191.9374
  -7219435.46147  -5621622.69943  22775183.8654   22775181.9244
      4135.3294
   1281487.16848    989681.52344  21686312.7874   21686309.6974
      -982.3234
  -5217651.46549  -4060927.26646  20449386.5064   20449384.4634
      2882.6854
 04  9 10 21 24 14.9980000  0  6G 3G 8G13G19G23G27
  -4455619.48847  -3457484.23443  22325423.4204   22325423.7324
      2071.1374
  -7483036.17648  -5800698.78144  21432658.9044   21432657.1864
      4147.2644
  -2757292.00849  -2139678.25447  19666847.6864   19666845.3774
      1184.8014
  -7281396.25847  -5669903.79343  22763392.4674   22763391.8974
      4130.7204
   1296285.92248   1001212.96944  21689128.9904   21689126.1974
      -986.5844
  -5260857.33649  -4094594.18046  20441164.5614   20441162.7954
      2880.3914
 04  9 10 21 24 29.9980000  0  6G 3G 8G13G19G23G27
  -4486557.33647  -3481591.61743  22319534.9204   22319536.8814
      2062.5234
  -7545210.96948  -5849146.65644  21420827.5374   21420826.9514
      4144.9864
  -2774958.60248  -2153444.44547  19663485.7644   19663483.1544
      1177.7734
  -7343289.20347  -5718132.01643  22751614.6704   22751613.4674
      4126.1964
   1311146.59448   1012792.67644  21691956.2254   21691954.3424
      -990.7114
  -5304030.62149  -4128235.69946  20432949.1154   20432946.6314
      2878.2194
 04  9 10 21 24 44.9980000  0  6G 3G 8G13G19G23G27
  -4517369.84447  -3505601.35543  22313672.1154   22313672.5804
      2054.1674
  -7607355.64548  -5897571.05944  21409001.0614   21409000.6974
      4142.9784
  -2792523.70749  -2167131.54346  19660143.4204   19660140.8264
      1171.0074
  -7405118.11347  -5766310.35943  22739849.9754   22739847.7254
      4121.9274
   1326065.09848   1024417.46144  21694795.7564   21694793.5254
      -994.5674
  -5347175.25449  -4161854.87946  20424739.0924   20424736.6274
      2876.3094
 04  9 10 21 24 59.9980000  0  6G 3G 8G13G19G23G27
  -4548051.41047  -3529509.06642  22307833.2794   22307833.1474
      2045.4384
  -7669464.77748  -5945967.75045  21397182.4904   21397182.1154
      4140.6094
  -2809981.88749  -2180735.32446  19656821.0454   19656818.1894
      1163.8794
  -7466876.92647  -5814434.06643  22728097.1864   22728095.2054
      4117.2544
   1341046.78148   1036091.43444  21697646.9434   21697644.1624
      -998.7794
  -5390285.81249  -4195447.52346  20416534.9984   20416532.9434
      2874.0374
 04  9 10 21 25 14.9980000  0  6G 3G 8G13G19G23G27
  -4578603.19547  -3553315.64142  22302020.3184   22302019.4004
      2036.7864
  -7731539.52048  -5994337.64845  21385370.0064   21385369.6474
      4138.3164
  -2827334.24649  -2194256.65246  19653518.8974   19653516.7524
      1156.8244
  -7528566.66447  -5862503.94143  22716357.6154   22716355.9124
      4112.6494
   1356090.19148   1047813.55144  21700509.2794   21700506.7054
     -1002.8944
  -5433363.46549  -4229014.52746  20408337.8424   20408336.0804
      2871.8434
 04  9 10 21 25 29.9980000  0  7G 3G 8G13G10G19G23G27
  -4609024.97347  -3577020.89142  22296230.5684   22296230.1154
      2028.1184
  -7793579.56648  -6042680.51644  21373564.3894   21373562.7724
      4136.0034
  -2844580.65649  -2207695.42247  19650237.0614   19650234.4124
      1149.7614
   -196674.78914                  23430084.404

  -7590186.66047  -5910519.46543  22704631.7794   22704629.8574
      4108.0004
   1371195.41848   1059583.83244  21703383.5534   21703381.4364
     -1007.0154
  -5476408.03149  -4262555.73446  20400146.5614   20400145.3424
      2869.6384
 04  9 10 21 25 44.9980000  0  7G 3G 8G13G10G19G23G27
  -4639316.00047  -3600624.29343  22290466.7094   22290466.3114
      2019.4024
  -7855584.46148  -6090996.00844  21361764.9364   21361763.1864
      4133.6604
  -2861720.39149  -2221051.06247  19646975.5924   19646972.9244
      1142.6494
   -259773.965 3                  23418075.857
      4206.612
  -7651736.16847  -5958480.08243  22692919.0294   22692917.7174
      4103.3014
   1386362.94948   1071402.65644  21706269.7324   21706267.2174
     -1011.1694
  -5519418.97349  -4296070.76246  20391962.0144   20391960.2134
      2867.3964
 04  9 10 21 25 59.9980000  0  7G 3G 8G13G10G19G23G27
  -4669477.88747  -3624127.05543  22284726.6864   22284726.4984
      2010.7924
  -7917555.66848  -6139285.24244  21349972.3184   21349970.2834
      4131.4144
  -2878755.19149  -2234324.94147  19643733.9984   19643731.6744
      1135.6534
   -322773.832 3                  23406087.303
      4199.991
  -7713216.36347  -6006386.68443  22681220.4434   22681218.3424
      4098.6804
   1401590.90648   1083268.55544  21709167.8894   21709164.6544
     -1015.1974
  -5562397.97749  -4329560.87946  20383783.1624   20383781.7794
      2865.2674
 04  9 10 21 26 14.9980000  0  7G 3G 8G13G10G19G23G27
  -4699510.85947  -3647529.35942  22279012.5924   22279011.9864
      2002.1984
  -7979493.39548  -6187548.41044  21338185.9514   21338184.1394
      4129.1824
  -2895685.14149  -2247517.11346  19640512.0764   19640510.1824
      1128.6634
                                  23394114.389
      4193.371
  -7774627.02747  -6054239.12943  22669534.4754   22669532.0534
      4094.0444
   1416878.82848   1095181.17244  21712077.7954   21712074.5374
     -1019.1954
  -5605345.17249  -4363026.21546  20375610.7484   20375608.9674
      2863.1464
 04  9 10 21 26 29.9980000  0  7G 3G 8G13G10G19G23G27
  -4729411.19547  -3670828.30543  22273321.9754   22273322.0374
      1993.3564
  -8041394.02348  -6235782.66044  21326406.5614   21326405.4084
      4126.7094
  -2912506.67649  -2260624.81247  19637311.1544   19637308.8614
      1121.4364
   -448471.84413                  23382166.139
      4186.750
  -7835964.49247  -6102034.50844  22657862.3974   22657859.8854
      4089.1644
   1432230.14848   1107143.21944  21714998.4364   21714995.7724
     -1023.4214
  -5648257.10249  -4396464.07846  20367444.8504   20367443.1394
      2860.7954
 04  9 10 21 26 44.9980000  0  7G 3G 8G13G10G19G23G27
  -4759180.46547  -3694025.12543  22267656.9514   22267656.7954
      1984.6184
  -8103259.27348  -6283989.32044  21314633.8504   21314632.8694
      4124.3504
  -2929221.33249  -2273649.22746  19634130.4824   19634128.3814
      1114.3104
   -511167.469 4                  23370236.326
      4179.708
  -7897229.93046  -6149773.75843  22646203.7724   22646201.9084
      4084.3634
   1447643.16448   1119153.32444  21717931.6544   21717928.7094
     -1027.5344
  -5691135.28149  -4429875.64546  20359285.3574   20359284.0494
      2858.5454
 04  9 10 21 26 59.9980000  0  7G 3G 8G13G10G19G23G27
  -4788820.64847  -3717121.34843  22262016.3504   22262017.2134
      1976.0124
  -8165090.96948  -6332169.85545  21302867.8734   21302866.6664
      4122.1134
  -2945831.13749  -2286591.93446  19630969.8034   19630967.3144
      1107.3204
   -573763.102 3                  23358324.100
      4173.042
  -7958425.08646  -6197458.25043  22634558.1624   22634556.8074
      4079.6774
   1463115.62148   1131209.73844  21720875.7094   21720872.8814
     -1031.4974
  -5733981.83249  -4463262.55946  20351132.0924   20351130.4944
      2856.4374
 04  9 10 21 27 14.9980000  0  7G 3G 8G13G10G19G23G27
  -4818331.45347  -3740116.80142  22256401.0294   22256400.9864
      1967.3874
  -8226889.07848  -6380324.19145  21291107.9514   21291107.4754
      4119.8744
  -2962335.84049  -2299452.75047  19627829.0374   19627826.4904
      1100.3144
   -636258.156 4                  23346432.365
      4166.337
  -8019549.31646  -6245087.46943  22622926.0924   22622924.5414
      4074.9494
   1478647.50048   1143312.46544  21723831.3034   21723828.9674
     -1035.4594
  -5776796.43749  -4496624.57846  20342984.5294   20342983.2444
      2854.3074
 04  9 10 21 27 29.9980000  0  7G 3G 8G13G10G19G23G27
  -4847706.31647  -3763006.30142  22250811.3654   22250810.9794
      1958.3244
  -8288647.14548  -6428447.30945  21279355.9204   21279355.7134
      4117.2044
  -2978728.93049  -2312226.59847  19624709.7564   19624706.9864
      1092.8734
   -698646.012 5                  23334561.272
      4159.190
  -8080595.74246  -6292656.07843  22611309.8034   22611308.2684
      4069.7624
   1494245.26248   1155466.52744  21726799.7644   21726796.4754
     -1039.8514
  -5819572.69949  -4529956.73446  20334844.5924   20334843.2404
      2851.7514
 04  9 10 21 27 44.9980000  0  7G 3G 8G13G10G19G23G27
  -4876947.54747  -3785791.68743  22245246.4984   22245246.0684
      1949.4154
  -8350367.09448  -6476540.76245  21267610.9754   21267610.0454
      4114.6634
  -2995012.74248  -2324915.28947  19621610.5764   19621608.5414
      1085.5884
   -760928.65646   -572672.85952  23322708.8264   23322708.4124
      4152.1764
  -8141566.40646  -6340165.65643  22599707.7174   22599706.1434
      4064.7114
   1509906.34848   1167669.94944  21729779.8034   21729776.2324
     -1044.0724
  -5862312.98449  -4563260.84046  20326711.4904   20326710.3894
      2849.3524
 04  9 10 21 27 59.9980000  0  7G 3G 8G13G10G19G23G27
  -4906058.75447  -3808475.72742  22239707.3504   22239706.6274
      1940.7474
  -8412052.95348  -6524607.65245  21255873.0684   21255870.6664
      4112.3914
  -3011190.99248  -2337521.71947  19618532.3424   19618530.0494
      1078.5504
   -823109.57846   -621125.52042  23310876.2014   23310876.0374
      4145.3954
  -8202464.66846  -6387618.80943  22588119.0144   22588118.6784
      4059.8844
   1525626.76648   1179919.58244  21732771.5224   21732767.8034
     -1048.0284
  -5905020.99249  -4596539.81246  20318584.2794   20318582.7724
      2847.2014
 04  9 10 21 28 14.9980000  0  7G 3G 8G13G10G19G23G27
  -4935036.14847  -3831055.50442  22234193.0454   22234193.2014
      1931.8264
  -8473700.95749  -6572645.05144  21244141.5844   21244139.0764
      4109.8674
  -3027259.89149  -2350042.94947  19615474.4984   19615471.8774
      1071.2604
   -885184.80546   -669495.78942  23299063.2174   23299062.9084
      4138.3484
  -8263286.57847  -6435012.45343  22576544.7724   22576543.9434
      4054.7944
   1541410.17648   1192218.31644  21735775.0844   21735771.8034
     -1052.2274
  -5947693.01649  -4629790.72746  20310464.0144   20310462.2294
      2844.8024
 04  9 10 21 28 29.9980000  0  7G 3G 8G13G10G19G23G27
  -4963878.60247  -3853530.14142  22228704.1074   22228703.8974
      1922.8304
  -8535309.77048  -6620651.91044  21232417.5064   21232415.6114
      4107.2544
  -3043218.45348  -2362478.20346  19612437.5144   19612435.0414
      1063.9044
   -947153.00046   -717782.66842  23287271.3424   23287270.2324
      4131.2134
  -8324030.66846  -6482345.48843  22564985.3894   22564983.3224
      4049.6064
   1557257.43448   1204566.78944  21738790.5454   21738786.5964
     -1056.4844
  -5990327.85949  -4663012.69546  20302350.7644   20302348.9324
      2842.3234
 04  9 10 21 28 44.9980000  0  7G 3G 8G13G10G19G23G27
  -4992588.13747  -3875901.18442  22223240.4124   22223240.6504
      1913.9694
  -8596881.54748  -6668629.88744  21220700.0764   21220698.8224
      4104.7854
  -3059068.70748  -2374829.05546  19609421.5534   19609419.0884
      1056.6844
  -1009015.80947   -765987.45342  23275500.3344   23275499.1154
      4124.1874
  -8384698.64847  -6529619.17643  22553440.2404   22553439.8934
      4044.5324
   1573166.39148   1216963.35244  21741817.9204   21741814.8144
     -1060.5974
  -6032927.71549  -4696207.37146  20294244.6704   20294242.8304
      2839.9904
 04  9 10 21 28 59.9970000  0  7G 3G 8G13G10G19G23G27
  -5021164.09846  -3898168.16842  22217802.8374   22217802.9854
      1905.0644
  -8658413.39848  -6716576.75844  21208991.2674   21208989.7904
      4102.1234
  -3074810.83649  -2387095.65647  19606426.1884   19606423.2394
      1049.4754
  -1070770.40646   -814107.84842  23263747.6104   23263748.2394
      4116.9734
  -8445287.44547  -6576831.20743  22541911.0794   22541909.3134
      4039.2534
   1589134.37548   1229405.89844  21744856.7044   21744853.4274
     -1064.5324
  -6075491.09449  -4729373.63746  20286145.0954   20286142.9894
      2837.5594
 04  9 10 21 29 14.9970000  0  7G 3G 8G13G10G19G23G27
  -5049606.82447  -3920331.30542  22212390.9784   22212390.7354
      1896.1824
  -8719910.18748  -6764496.30145  21197288.9464   21197287.9584
      4099.7864
  -3090443.41449  -2399276.88746  19603451.0634   19603448.8174
      1042.1724
  -1132421.25545   -862147.36342  23252015.5794   23252016.2284
      4110.0574
  -8505801.41446  -6623984.92643  22530395.4784   22530394.1964
      4034.2654
   1605166.89548   1241898.73444  21747907.6964   21747904.2434
     -1068.8354
  -6118020.22349  -4762513.21946  20278051.8294   20278049.6854
      2835.2754
 04  9 10 21 29 29.9970000  0  7G 3G 8G13G10G19G23G27
  -5077914.99646  -3942389.61342  22207003.5714   22207003.8534
      1887.2114
  -8781368.23848  -6812385.68445  21185594.2744   21185592.7864
      4097.2034
  -3105966.05549  -2411372.46147  19600497.1964   19600494.5444
      1034.8434
  -1193964.57445   -910103.16042  23240304.2984   23240304.5284
      4102.8884
  -8566236.67647  -6671077.31243  22518895.4464   22518893.2244
      4029.0174
   1621261.98848   1254440.34444  21750970.4314   21750967.0954
     -1073.0064
  -6160512.74649  -4795624.27346  20269965.7514   20269964.0564
      2832.8354
 04  9 10 21 29 44.9970000  0  7G 3G 8G13G10G19G23G27
  -5106088.73446  -3964343.16442  22201641.8764   22201642.2284
      1878.2494
  -8842787.83248  -6860245.09445  21173906.1654   21173905.4814
      4094.6404
  -3121378.86349  -2423382.45346  19597564.5174   19597561.6964
      1027.5214
  -1255400.33646   -957975.12142  23228613.2904   23228613.1964
      4095.7174
  -8626593.10946  -6718108.25443  22507410.0094   22507407.8414
      4023.7624
   1637419.51648   1267030.57444  21754045.3924   21754042.6464
     -1077.1684
  -6202968.94149  -4828707.01246  20261886.3064   20261884.9664
      2830.4134
 04  9 10 21 29 59.9970000  0  7G 3G 8G13G10G19G23G27
  -5134130.11346  -3986193.59442  22196306.2204   22196307.0054
      1869.4254
  -8904170.86348  -6908075.99645  21162225.1964   21162224.8804
      4092.2024
  -3136684.09449  -2435308.60946  19594651.7284   19594649.3534
      1020.3494
  -1316730.43446  -1005764.80942  23216942.7284   23216943.1224
      4088.6734
  -8686872.60947  -6765079.25043  22495939.3294   22495937.3724
      4018.6334
   1653636.99648   1279667.53544  21757131.1264   21757128.6424
     -1081.1654
  -6245390.93449  -4861763.10246  20253813.9384   20253812.2434
      2828.1334
 04  9 10 21 30 14.9970000  0  7G 3G 8G13G10G19G23G27
  -5162038.73846  -4007940.57842  22190994.7284   22190995.4704
      1860.5754
  -8965517.18448  -6955878.30145  21150551.4784   21150550.7744
      4089.7554
  -3151881.34849  -2447150.63347  19591760.1034   19591757.3764
      1013.1504
  -1377954.26245  -1053471.67642  23205291.7204   23205292.4974
      4081.5894
  -8747074.50046  -6811989.77343  22484483.0564   22484480.7244
      4013.4594
   1669914.63348   1292351.37944  21760228.7984   21760225.7824
     -1085.1764
  -6287778.39849  -4894792.28946  20245747.7744   20245746.1854
      2825.8314
 04  9 10 21 30 29.9970000  0  7G 3G 8G13G10G19G23G27
  -5189811.33647  -4029581.54343  22185710.2904   22185710.3104
      1851.5074
  -9026823.17648  -7003649.18745  21138885.3064   21138883.8964
      4087.0664
  -3166967.38749  -2458905.98847  19588889.0244   19588886.4934
      1005.7364
  -1439068.18446  -1101092.90641  23193663.8374   23193662.5014
      4074.2614
  -8807195.10546  -6858836.97343  22473042.8924   22473040.1654
      4008.0404
   1686255.52748   1305084.52044  21763338.3684   21763336.0054
     -1089.3934
  -6330128.17649  -4927792.10546  20237689.1104   20237687.2434
      2823.3184
 04  9 10 21 30 44.9970000  0  7G 3G 8G13G10G19G23G27
  -5217450.23847  -4051118.35543  22180451.0174   22180451.2904
      1842.5934
  -9088091.76648  -7051390.92245  21127226.3454   21127224.9584
      4084.5734
  -3181944.50049  -2470576.48046  19586039.2124   19586036.6264
       998.4744
  -1500074.68745  -1148630.40641  23182052.9854   23182053.4544
      4067.1004
  -8867236.64146  -6905622.53943  22461616.9784   22461614.9784
      4002.7694
   1702657.07048   1317864.89144  21766459.9464   21766456.6384
     -1093.4364
  -6372442.43749  -4960764.25846  20229636.6494   20229634.8214
      2820.9514
 04  9 10 21 30 59.9970000  0  7G 3G 8G13G10G19G23G27
  -5244955.23046  -4072550.80942  22175217.0094   22175217.2124
      1833.6664
  -9149322.46548  -7099103.12945  21115574.1424   21115573.1144
      4082.0474
  -3196812.36349  -2482161.82846  19583209.7904   19583207.4354
       991.1914
  -1560972.99246  -1196083.64541  23170464.8684   23170464.6774
      4059.8874
  -8927198.42647  -6952345.96143  22450206.4314   22450204.4354
      3997.4524
   1719119.41048   1330692.64144  21769592.5174   21769589.1184
     -1097.4894
  -6414721.16849  -4993708.71946  20221591.5014   20221589.7554
      2818.5824
 04  9 10 21 31 14.9970000  0  7G 3G 8G13G10G19G23G27
  -5272324.47347  -4093877.48442  22170008.4384   22170008.4814
      1824.6164
  -9210513.48049  -7146784.40645  21103929.9854   21103929.7314
      4079.4014
  -3211569.39849  -2493660.81247  19580401.7354   19580399.3764
       983.8024
  -1621761.23446  -1243451.11741  23158897.1574   23158896.5444
      4052.5494
  -8987078.50047  -6999005.71143  22438811.2674   22438809.4354
      3992.0054
   1735643.83648   1343568.78144  21772736.8374   21772733.6104
     -1101.6284
  -6456962.62949  -5026624.14146  20213553.3924   20213551.5524
      2816.0974
 04  9 10 21 31 29.9970000  0  7G 3G 8G13G10G19G23G27
  -5299555.85947  -4115096.73442  22164826.1884   22164826.5014
      1815.4264
  -9271662.57449  -7194433.01645  21092293.6654   21092293.7674
      4076.6064
  -3226213.36749  -2505071.70746  19577614.7434   19577612.5404
       976.2654
  -1682436.99246  -1290730.89541  23147350.5954   23147350.0634
      4045.0514
  -9046874.28547  -7045599.77043  22427432.5634   22427430.9934
      3986.3864
   1752232.48848   1356494.96144  21775893.8134   21775891.0794
     -1105.9104
  -6499164.52349  -5059508.71946  20205522.4854   20205520.9544
      2813.4604
 04  9 10 21 31 44.9970000  0  7G 3G 8G13G10G19G23G27
  -5326651.07047  -4136209.87942  22159670.6494   22159671.4114
      1806.3474
  -9332771.36349  -7242050.23045  21080665.4624   21080664.8924
      4073.9194
  -3240746.05149  -2516395.87946  19574849.4624   19574846.7904
       968.8464
  -1743001.68046  -1337924.13341  23135824.9934   23135824.6064
      4037.6464
  -9106587.23047  -7092129.30943  22416069.4464   22416067.8334
      3980.8634
   1768883.49248   1369469.73044  21779062.2204   21779059.6064
     -1110.0674
  -6541328.81249  -5092364.00846  20197498.9384   20197497.2634
      2810.9534
 04  9 10 21 31 59.9970000  0  7G 3G 8G13G10G19G23G27
  -5353608.68447  -4157215.79742  22154540.8844   22154541.1814
      1797.1744
  -9393838.65648  -7289635.12145  21069044.5484   21069043.5174
      4071.1534
  -3255166.20349  -2527632.37146  19572105.4704   19572102.6854
       961.3434
  -1803453.85946  -1385029.71141  23124322.0484   23124320.9354
      4030.1454
  -9166215.72747  -7138593.01643  22404723.0324   22404720.5324
      3975.2334
   1785597.98448   1382493.99244  21782242.9384   21782239.7824
     -1114.2994
  -6583454.04349  -5125188.84846  20189482.6814   20189481.4314
      2808.3494
 04  9 10 21 32 14.9970000  0  7G 3G 8G13G10G19G23G27
  -5380428.71947  -4178114.50042  22149436.1424   22149437.3494
      1788.0024
  -9454864.44948  -7337187.66044  21057431.6734   21057430.3684
      4068.3864
  -3269473.92249  -2538781.24646  19569382.9384   19569380.3604
       953.8484
  -1863793.30144  -1432047.47741  23112839.8764   23112839.2674
      4022.6294
  -9225759.45347  -7184990.67643  22393391.7674   22393390.1424
      3969.5824
   1802375.72748   1395567.50044  21785435.2514   21785432.8174
     -1118.5164
  -6625540.23849  -5157983.28946  20181473.9154   20181472.3454
      2805.7464
 04  9 10 21 32 29.9970000  0  7G 3G 8G13G10G19G23G27
  -5407109.78147  -4198904.94542  22144359.7984   22144359.9384
      1778.7384
  -9515847.49249  -7384706.89845  21045826.9154   21045825.7084
      4065.5364
  -3283667.60549  -2549841.26247  19566681.9544   19566679.6184
       946.2464
  -1924018.48044  -1478976.17641  23101379.5874   23101379.9894
      4015.0124
  -9285216.64147  -7231320.92243  22382077.9074   22382076.1144
      3963.8134
   1819217.85948   1408691.21144  21788640.3134   21788637.7554
     -1122.8094
  -6667586.03149  -5190746.23046  20173472.9154   20173471.6654
      2803.0534
 04  9 10 21 32 44.9970000  0  7G 3G 8G13G10G19G23G27
  -5433653.02047  -4219587.96542  22139308.9784   22139308.3724
      1769.5494
  -9576788.55549  -7432193.41845  21034230.5404   21034229.6144
      4062.7384
  -3297748.45749  -2560813.36347  19564002.2594   19563999.6424
       938.7234
  -1984130.07446  -1525816.30141  23089941.2674   23089939.5214
      4007.4404
  -9344588.14847  -7277584.39143  22370779.8924   22370777.6224
      3958.1014
   1836123.10948   1421864.08244  21791857.0954   21791854.7824
     -1127.0174
  -6709592.64549  -5223478.64547  20165479.4074   20165477.8064
      2800.4414
 04  9 10 21 32 59.9970000  0  7G 3G 8G13G10G19G23G27
  -5460059.88747  -4240164.72742  22134283.8994   22134283.6774
      1760.4584
  -9637689.35549  -7479648.57045  21022641.4464   21022640.5524
      4060.0534
  -3311717.94549  -2571698.68746  19561344.3294   19561341.8064
       931.2994
  -2044129.39546  -1572569.02741  23078524.2984   23078521.9784
      3999.9554
  -9403875.21147  -7323782.04343  22359497.3604   22359495.7514
      3952.4714
   1853089.73847   1435084.79344  21795085.7434   21795083.2314
     -1131.1094
  -6751561.48849  -5256181.63746  20157492.8994   20157491.4194
      2797.9234
 04  9 10 21 33 14.9970000  0  7G 3G 8G13G10G19G23G27
  -5486329.25847  -4260634.36743  22129284.5634   22129284.8964
      1751.2914
  -9698548.86348  -7527071.52344  21011059.7514   21011058.7554
      4057.3014
  -3325575.18049  -2582496.53947  19558707.2984   19558704.3534
       923.8164
  -2104015.22145  -1619233.24641  23067127.3454   23067125.6614
      3992.3884
  -9463076.41047  -7369912.78943  22348231.6964   22348229.7044
      3946.7474
   1870118.66047   1448354.03144  21798327.1814   21798324.0564
     -1135.2614
  -6793491.60549  -5288854.46146  20149513.8994   20149511.7244
      2795.3414
 04  9 10 21 33 29.9970000  0  7G 3G 8G13G10G19G23G27
  -5512461.40248  -4280997.05143  22124312.6964   22124312.4584
      1742.1434
  -9759367.02048  -7574462.26644  20999486.6574   20999485.1184
      4054.5444
  -3339320.19149  -2593206.94147  19556091.4544   19556089.1464
       916.3344
  -2163787.55945  -1665809.07041  23055752.1574   23055751.6614
      3984.8234
  -9522191.48047  -7415976.42643  22336982.3994   22336980.6224
      3941.0054
   1887209.51247   1461671.54744  21801578.5874   21801576.0484
     -1139.3904
  -6835383.06649  -5321497.15646  20141542.1964   20141540.0484
      2792.7644
 04  9 10 21 33 44.9970000  0  7G 3G 8G13G10G19G23G27
  -5538457.97747  -4301254.09843  22119364.6494   22119365.8414
      1733.1054
  -9820145.76648  -7621822.30945  20987920.5794   20987919.1694
      4051.9164
  -3352954.72749  -2603831.25446  19553496.9464   19553494.8414
       908.9694
  -2223447.77345  -1712297.53141  23044400.0634   23044399.5324
      3977.3484
  -9581222.10547  -7461974.27043  22325749.3214   22325747.0564
      3935.3754
   1904360.44147   1475035.84444  21804842.3844   21804839.3414
     -1143.3954
  -6877237.71949  -5354111.16046  20133577.3214   20133575.8994
      2790.3104
 04  9 10 21 33 59.9970000  0  7G 3G 8G13G10G19G23G27
  -5564318.20347  -4321404.93443  22114444.5174   22114444.6184
      1724.0154
  -9880884.07848  -7669150.83245  20976362.7904   20976361.3024
      4049.2214
  -3366478.12149  -2614368.97346  19550923.7984   19550921.2004
       901.5604
  -2282995.05144  -1758697.97741  23033068.6184   23033068.8104
      3969.8184
  -9640167.11347  -7507905.41043  22314532.6654   22314530.3844
      3929.6674
   1921571.89147   1488447.31344  21808118.0094   21808115.3024
     -1147.4304
  -6919054.69949  -5386695.82046  20125620.2284   20125618.5014
      2787.7994
 04  9 10 21 34 14.9970000  0  7G 3G 8G13G10G19G23G27
  -5590040.07447  -4341447.94543  22109549.1264   22109549.3604
      1714.7914
  -9941579.86748  -7716446.22745  20964812.5324   20964811.9114
      4046.3864
  -3379888.35249  -2624818.51246  19548371.6424   19548369.0134
       894.0154
  -2342427.13345  -1805008.67641  23021758.4314   23021758.3064
      3962.1394
  -9699024.10547  -7553767.94544  22303332.3454   22303330.6884
      3923.7994
   1938845.81647   1501907.48844  21811405.0714   21811401.9464
     -1151.5954
  -6960832.10249  -5419249.62146  20117669.9234   20117668.2164
      2785.1604
 04  9 10 21 34 29.9970000  0  7G 3G 8G13G10G19G23G27
  -5615624.25847  -4361383.68442  22104680.6884   22104680.9034
      1705.6124
 -10002234.06249  -7763709.21145  20953270.3214   20953269.5794
      4043.6134
  -3393186.06249  -2635180.37147  19545841.2744   19545839.1464
       886.5144
  -2401744.32445  -1851229.83241  23010471.4074   23010470.1464
      3954.4794
  -9757793.42247  -7599562.18043  22292148.9464   22292147.6534
      3917.9544
   1956181.31347   1515415.61344  21814704.3844   21814701.0954
     -1155.7004
  -7002570.55949  -5451773.10246  20109727.0794   20109725.5094
      2782.5644
 04  9 10 21 34 44.9970000  0  7G 3G 8G13G10G19G23G27
  -5641070.54348  -4381211.93442  22099839.4624   22099838.1424
      1696.4194
 -10062846.37549  -7810939.55145  20941736.1494   20941734.7474
      4040.8214
  -3406371.04349  -2645454.39147  19543331.9384   19543329.9504
       878.9994
  -2460946.06244  -1897361.06241  22999205.1104   22999203.9194
      3946.7834
  -9816474.60946  -7645287.73443  22280982.0714   22280980.9894
      3912.0794
   1973578.35947   1528971.71144  21818014.1424   21818011.3334
     -1159.8034
  -7044269.78949  -5484266.00046  20101792.2824   20101791.0244
      2779.9494
 04  9 10 21 34 59.9970000  0  7G 3G 8G13G10G19G23G27
  -5666378.93748  -4400932.74243  22095022.8374   22095021.6224
      1687.2264
 -10123416.72749  -7858137.21945  20930210.7354   20930209.0834
      4038.0234
  -3419443.34449  -2655640.60947  19540844.6424   19540841.8804
       871.4874
  -2520032.33645  -1943402.27741  22987961.6424   22987959.9194
      3939.0854
  -9875067.39147  -7690944.39844  22269832.2744   22269830.6854
      3906.1854
   1991036.68447   1542575.56343  21821336.5174   21821333.6144
     -1163.8884
  -7085930.00049  -5516728.49646  20093864.6344   20093862.7434
      2777.3474
 04  9 10 21 35 14.9970000  0  8G 3G 8G13G10G19G23G27G28
  -5691553.02348  -4420548.90243  22090232.0794   22090231.6654
      1678.2724
 -10183948.73049  -7905304.99645  20918691.4544   20918689.9784
      4035.4674
  -3432406.57849  -2665741.83247  19538377.6884   19538375.4234
       864.2164
  -2579006.77345  -1989356.40241  22976739.4314   22976737.4114
      3931.6294
  -9933575.14147  -7736534.80543  22258698.1814   22258696.2824
      3900.5174
   2008552.53547   1556224.23843  21824670.0564   21824667.2594
     -1167.7234
  -7127554.78549  -5549163.38746  20085943.8064   20085942.1694
      2774.9864
   -228275.10956   -159715.06652  23357904.5324   23357905.7984

 04  9 10 21 35 29.9970000  0  8G 3G 8G13G10G19G23G27G28
  -5716593.00048  -4440060.55543  22085467.2284   22085466.1144
      1669.3324
 -10244442.50449  -7952442.98045  20907179.3294   20907178.8534
      4032.9184
  -3445260.93749  -2675758.22747  19535931.6494   19535929.1344
       856.9574
  -2637869.03144  -2035223.06641  22965537.6424   22965536.2514
      3924.1514
  -9991997.67246  -7782058.81243  22247580.8214   22247579.1344
      3894.8354
   2026125.55947   1569917.45344  21828014.3924   21828011.2984
     -1171.5354
  -7169144.37149  -5581570.85246  20078029.3994   20078027.7394
      2772.6394
   -308228.12947   -222016.03942  23342690.6964   23342691.2354
      5330.2014
 04  9 10 21 35 44.9970000  0  8G 3G 8G13G10G19G23G27G28
  -5741500.50848  -4459468.98442  22080727.4464   22080726.2124
      1660.5014
 -10304899.81249  -7999552.53945  20895674.6734   20895674.7244
      4030.4874
  -3458008.11349  -2685691.09846  19533505.9314   19533503.5794
       849.8124
  -2696620.52745  -2081003.40641  22954357.5484   22954357.4154
      3916.7664
 -10050336.21547  -7827517.36743  22236479.3064   22236477.9274
      3889.2364
   2043753.92247   1583653.79344  21831368.8844   21831365.6494
     -1175.2244
  -7210700.24249  -5613952.04346  20070121.4314   20070120.0484
      2770.3914
   -388156.96147   -284298.13742  23327480.1424   23327481.3604
      5328.5894
 04  9 10 21 35 59.9970000  0  8G 3G 8G13G10G19G23G27G28
  -5766274.77347  -4478773.59443  22076013.1964   22076012.7674
      1651.6184
 -10365319.69149  -8046632.91845  20884177.2044   20884177.3174
      4027.9924
  -3470647.42249  -2695539.91846  19531101.0634   19531098.2124
       842.6214
  -2755260.39545  -2126696.78541  22943199.1184   22943200.0404
      3909.3244
 -10108589.84447  -7872909.77344  22225394.3994   22225392.5674
      3883.5754
   2061438.12147   1597433.66844  21834733.7674   21834731.0364
     -1178.9474
  -7252221.73449  -5646306.45346  20062220.5014   20062218.9464
      2768.0994
   -468060.48047   -346560.54342  23312274.7984   23312275.6104
      5326.9014
 04  9 10 21 36 14.9970000  0  8G 3G 8G13G10G19G23G27G28
  -5790914.18048  -4497973.12543  22071324.3294   22071324.9314
      1642.6274
 -10425700.39149  -8093682.78945  20872687.6494   20872686.1814
      4025.3804
  -3483177.12149  -2705303.31647  19528716.2514   19528713.7314
       835.3134
  -2813786.63746  -2172301.66042  22932062.3924   22932061.8764
      3901.7494
 -10166756.44946  -7918234.36743  22214325.2904   22214324.2784
      3877.7744
   2079179.74247   1611258.25044  21838110.0174   21838107.8724
     -1182.7754
  -7293707.25849  -5678632.81646  20054325.6734   20054324.0364
      2765.7024
   -547936.92247   -408801.83642  23297074.7284   23297075.4234
      5325.0964
 04  9 10 21 36 29.9970000  0  8G 3G 8G13G10G19G23G27G28
  -5815422.95747  -4517070.86343  22066660.1734   22066660.3024
      1633.9184
 -10486046.32049  -8140705.58645  20861203.9074   20861202.5364
      4023.0624
  -3495601.53149  -2714984.68746  19526352.1034   19526349.7784
       828.2944
  -2872203.34446  -2217821.16842  22920946.4314   22920945.1424
      3894.4474
 -10224839.96947  -7963494.22744  22203272.4934   22203271.2944
      3872.2354
   2096974.35947   1625124.14544  21841496.2354   21841493.7314
     -1186.3084
  -7335160.89548  -5710934.35546  20046437.3454   20046435.6884
      2763.5764
   -627790.28547   -471025.14542  23281879.2284   23281879.7084
      5323.5584
 04  9 10 21 36 44.9970000  0  8G 3G 8G13G10G19G23G27G28
  -5839800.31247  -4536066.19943  22062021.4934   22062021.8174
      1625.1574
 -10546356.58649  -8187700.57445  20849727.4704   20849725.9234
      4020.6844
  -3507919.81249  -2724583.35546  19524007.9314   19524005.6224
       821.2194
  -2930509.49045  -2263254.52342  22909849.6654   22909850.3764
      3887.0764
 -10282839.36347  -8008688.51244  22192235.7124   22192233.9354
      3866.6264
   2114822.54747   1639031.77044  21844893.0714   21844890.5914
     -1189.8794
  -7376581.89549  -5743210.46547  20038555.6184   20038553.4464
      2761.4004
   -707619.69947   -533229.80542  23266688.5794   23266688.2474
      5321.9614
 04  9 10 21 36 59.9970000  0  8G 3G 8G13G10G19G23G27G28
  -5864043.85248  -4554957.25043  22057408.4234   22057408.3604
      1616.2364
 -10606628.65649  -8234665.80145  20838257.6814   20838257.0284
      4018.1384
  -3520129.64549  -2734097.51647  19521684.8534   19521682.0094
       813.9894
  -2988702.52346  -2308599.65642  22898776.7984   22898776.2474
      3879.5364
 -10340752.07847  -8053815.25043  22181215.2204   22181213.0604
      3860.8484
   2132726.27747   1652982.68044  21848299.5404   21848296.8884
     -1193.5824
  -7417967.97748  -5775459.35246  20030679.7904   20030678.0444
      2759.0724
   -787422.56647   -595413.75442  23251501.7514   23251501.8724
      5320.1914
 04  9 10 21 37 14.9970000  0  8G 3G 8G13G10G19G23G27G28
  -5888153.18448  -4573743.73443  22052820.5564   22052820.1264
      1607.2894
 -10666862.21549  -8281601.00045  20826795.4544   20826795.3804
      4015.5714
  -3532230.67248  -2743526.89846  19519382.1734   19519379.5834
       806.7354
  -3046781.85246  -2353856.23842  22887725.0404   22887725.1964
      3871.9554
 -10398577.22347  -8098873.77044  22170211.5014   22170209.0524
      3855.0104
   2150685.98847   1666977.21144  21851717.7904   21851714.2434
     -1197.3144
  -7459318.62548  -5807680.62546  20022811.0244   20022809.3534
      2756.7104
   -867198.14146   -657576.46941  23236320.8534   23236321.4464
      5318.3724
 04  9 10 21 37 29.9970000  0  8G 3G 8G13G10G19G23G27G28
  -5912131.35248  -4592428.00843  22048257.4704   22048257.3334
      1598.5454
 -10727060.35949  -8328508.62545  20815340.3214   20815339.4664
      4013.2104
  -3544226.08248  -2752873.98446  19517099.4234   19517097.2634
       799.6944
  -3104750.36346  -2399026.52042  22876693.3214   22876692.8254
      3864.5674
 -10456317.68447  -8143866.30144  22159223.8294   22159221.7784
      3849.3644
   2168698.39147   1681012.79344  21855144.8134   21855142.0954
     -1200.8274
  -7500637.09448  -5839876.82046  20014948.6104   20014946.7944
      2754.5654
   -946949.38346   -719720.23442  23221144.7824   23221145.7394
      5316.7494
 04  9 10 21 37 44.9970000  0  8G 3G 8G13G10G19G23G27G28
  -5935976.98448  -4611009.01243  22043720.2434   22043719.7044
      1589.7094
 -10787221.77749  -8375387.65645  20803892.3294   20803890.8104
      4010.7614
  -3556114.35548  -2762137.57446  19514836.9154   19514834.7784
       792.5524
  -3162606.30547  -2444109.05142  22865683.8064   22865682.2084
      3857.0634
 -10513971.55947  -8188791.35244  22148252.7204   22148250.8644
      3843.5924
   2186764.68447   1695090.37944  21858582.9314   21858580.1424
     -1204.4204
  -7541921.77748  -5872046.70746  20007092.1884   20007090.9354
      2752.3124
  -1026674.79746   -781843.82442  23205974.2354   23205974.4784
      5315.0284
 04  9 10 21 37 59.9970000  0  8G 3G 8G13G10G19G23G27G28
  -5959685.32048  -4629483.03143  22039208.3454   22039208.1384
      1580.5564
 -10847341.46549  -8422234.13744  20792451.4154   20792450.3884
      4007.9794
  -3567890.68048  -2771313.94547  19512595.9544   19512593.7824
       785.0884
  -3220344.66846  -2489099.96942  22854696.3844   22854696.4274
      3849.2244
 -10571533.84447  -8233645.03944  22137298.8764   22137297.5794
      3837.4864
   2204889.38747   1709213.49244  21862032.0794   21862030.1654
     -1208.3144
  -7583168.00448  -5904186.61346  19999243.5874   19999242.0244
      2749.7484
  -1106369.30546   -843943.30141  23190808.6104   23190807.7984
      5312.9674
 04  9 10 21 38 14.9970000  0  8G 3G 8G13G10G19G23G27G28
  -5983259.63347  -4647852.58243  22034722.3764   22034721.9584
      1571.6214
 -10907422.70749  -8469050.67245  20781018.4384   20781017.4034
      4005.4164
  -3579558.37148  -2780405.66046  19510375.6574   19510373.2354
       777.8464
  -3277968.55146  -2534001.70742  22843731.4154   22843731.0524
      3841.5924
 -10629007.48047  -8278429.66044  22126361.8534   22126360.2354
      3831.5764
   2223069.17247   1723379.50044  21865491.1654   21865488.9274
     -1211.9864
  -7624379.00448  -5936299.07446  19991400.8844   19991399.5954
      2747.4004
  -1186035.93446   -906021.12941  23175648.1034   23175648.2984
      5311.1094
 04  9 10 21 38 29.9970000  0  8G 3G 8G13G10G19G23G27G28
  -6006694.88348  -4666113.81642  22030262.3604   22030262.6574
      1562.3504
 -10967460.46949  -8515833.31245  20769593.7284   20769593.1814
      4002.5174
  -3591112.56249  -2789408.93446  19508177.2204   19508174.6774
       770.2794
  -3335472.83246  -2578810.20342  22832788.4544   22832787.8534
      3833.6194
 -10686387.30547  -8323141.17244  22115443.2594   22115441.0444
      3825.3224
   2241308.61347   1737591.99244  21868962.6344   21868959.9354
     -1215.9634
  -7665549.75048  -5968380.17246  19983566.6494   19983564.4894
      2744.7164
  -1265669.60946   -968073.25042  23160494.4624   23160494.5604
      5308.9124
 04  9 10 21 38 44.9970000  0  8G 3G 8G13G10G19G23G27G28
  -6029991.25448  -4684266.81643  22025829.1574   22025829.0754
      1553.0914
 -11027454.71949  -8562582.05545  20758177.1734   20758176.7744
      3999.6174
  -3602553.19549  -2798323.71946  19506000.1344   19505997.9744
       762.7094
  -3392857.38346  -2623525.39842  22821868.0634   22821868.5054
      3825.6374
 -10743672.95747  -8367779.30544  22104541.5014   22104539.4424
      3819.0434
   2259607.57047   1751850.87143  21872444.9624   21872442.2674
     -1219.9304
  -7706680.42648  -6000430.04746  19975740.0174   19975737.5714
      2742.0454
  -1345270.21945  -1030099.59441  23145346.1034   23145347.4274
      5306.7074
 04  9 10 21 38 59.9970000  0  8G 3G 8G13G10G19G23G27G28
  -6053151.30148  -4702313.60243  22021422.5404   22021422.1264
      1544.0034
 -11087408.10949  -8609298.95345  20746768.1104   20746768.3024
      3996.8934
  -3613883.00849  -2807152.14846  19503844.0014   19503841.7784
       755.3214
  -3450124.37946  -2668149.05542  22810971.2904   22810971.7784
      3817.8004
 -10800866.90247  -8412345.96943  22093657.4074   22093655.7394
      3812.9304
   2277963.31646   1766154.01243  21875937.5244   21875934.9194
     -1223.7164
  -7747773.49248  -6032450.60946  19967919.8374   19967918.0094
      2739.5384
  -1424840.03545  -1092101.94541  23130204.7904   23130205.3924
      5304.6544
 04  9 10 21 39 14.9970000  0  8G 3G 8G13G10G19G23G27G28
  -6076171.34448  -4720251.30143  22017042.1184   22017041.6224
      1534.6704
 -11147316.81248  -8655981.02745  20735368.0094   20735367.3884
      3993.9144
  -3625098.20749  -2815891.27047  19501709.8534   19501707.6924
       747.6804
  -3507270.17646  -2712678.22342  22800096.3374   22800097.3414
      3809.7204
 -10857964.97747  -8456837.94544  22082792.8374   22082790.7784
      3806.5384
   2296379.37947   1780504.12543  21879442.6814   21879439.7044
     -1227.7374
  -7788825.32449  -6064439.03546  19960107.6184   19960106.1494
      2736.7894
  -1504375.14146  -1154077.26242  23115069.2674   23115070.5324
      5302.3404
 04  9 10 21 39 29.9970000  0  8G 3G 8G13G10G19G23G27G28
  -6099046.32048  -4738075.93743  22012688.4154   22012688.5404
      1524.9984
 -11207175.79749  -8702624.38345  20723977.3924   20723975.1854
      3990.5994
  -3636193.82449  -2824537.21547  19499598.5094   19499596.2084
       739.7084
  -3564289.32846  -2757108.69542  22789246.0244   22789245.7864
      3801.2774
 -10914961.85947  -8501251.05143  22071946.1494   22071944.1384
      3799.7924
   2314860.51647   1794904.97743  21882959.0484   21882955.9934
     -1232.0764
  -7829830.78549  -6096391.34447  19952304.6734   19952303.5134
      2733.6974
  -1583870.37546  -1216021.51642  23099942.4784   23099943.0484
      5299.6824
 04  9 10 21 39 44.9970000  0  8G 3G 8G13G10G19G23G27G28
  -6121780.71948  -4755791.03543  22008362.2514   22008362.4744
      1515.6274
 -11266989.78549  -8749232.68444  20712595.0404   20712592.6814
      3987.5994
  -3647174.53949  -2833093.62946  19497509.0564   19497506.5634
       732.0484
  -3621186.16846  -2801443.91442  22778418.8454   22778417.9194
      3793.1234
 -10971861.73447  -8545588.60944  22061118.3764   22061116.5874
      3793.3254
   2333402.05947   1809352.89843  21886487.0014   21886484.5364
     -1236.1034
  -7870794.58249  -6128311.17646  19944509.8454   19944508.4154
      2730.9204
  -1663330.32846  -1277938.28542  23084821.0324   23084822.6264
      5297.3304
 04  9 10 21 39 59.9970000  0  8G 3G 8G13G10G19G23G27G28
  -6144374.11748  -4773396.27343  22004062.9624   22004063.4194
      1506.2274
 -11326757.85249  -8795805.18445  20701221.6884   20701220.1304
      3984.5384
  -3658039.70349  -2841559.99246  19495441.4464   19495439.1534
       724.3444
  -3677960.08645  -2845683.30542  22767614.6814   22767613.5134
      3784.9284
 -11028663.85547  -8589849.96543  22050309.4464   22050307.4314
      3786.8084
   2352004.30546   1823848.10543  21890027.4624   21890024.9314
     -1240.1504
  -7911715.99648  -6160197.97746  19936722.8134   19936721.2284
      2728.0944
  -1742753.85547  -1339826.67242  23069708.3454   23069708.6304
      5294.9024
 04  9 10 21 40 14.9970000  0  8G 3G 8G13G10G19G23G27G28
  -6166825.75448  -4790891.05143  21999790.8064   21999790.6034
      1496.7764
 -11386479.27049  -8842341.34445  20689857.5094   20689855.9544
      3981.4284
  -3668788.64549  -2849935.79746  19493395.7904   19493393.5014
       716.5964
  -3734609.95345  -2889826.01242  22756834.6884   22756834.4624
      3776.6584
 -11085367.05947  -8634034.24644  22039519.1964   22039516.7824
      3780.2144
   2370667.82447   1838391.03943  21893579.0794   21893576.4464
     -1244.2354
  -7952594.29749  -6192051.20746  19928943.9074   19928942.1884
      2725.2204
  -1822140.29747  -1401686.17642  23054600.8214   23054601.8764
      5292.4294
 04  9 10 21 40 29.9970000  0  8G 3G 8G13G10G19G23G27G28
  -6189135.23848  -4808275.05543  21995545.3994   21995545.1494
      1487.2994
 -11446153.89549  -8888841.04345  20678501.7824   20678500.1064
      3978.3084
  -3679420.97349  -2858220.73046  19491372.6574   19491370.4194
       708.8224
  -3791135.18046  -2933871.61742  22746078.7674   22746078.2434
      3768.3484
 -11141970.57447  -8678140.83243  22028748.0244   22028746.0094
      3773.5684
   2389392.88747   1852981.96544  21897142.3684   21897139.7784
     -1248.3374
  -7993429.12549  -6223870.53546  19921173.2674   19921171.0794
      2722.3224
  -1901488.85247  -1463516.12942  23039501.4624   23039502.1144
      5289.9044
 04  9 10 21 40 44.9970000  0  8G 3G 8G13G10G19G23G27G28
  -6211303.77748  -4825549.21943  21991327.0014   21991326.0444
      1477.9034
 -11505782.52349  -8935304.88345  20667154.1424   20667152.9194
      3975.2424
  -3689937.77048  -2866415.64846  19489371.1734   19489368.9384
       701.1204
  -3847536.76246  -2977820.87142  22735344.9784   22735345.4704
      3760.1054
 -11198475.43446  -8722170.57444  22017994.9784   22017993.3564
      3766.9914
   2408178.05947   1867619.69943  21900717.1344   21900714.5674
     -1252.3454
  -8034221.55948  -6255656.85246  19913410.7904   19913408.5564
      2719.4964
  -1980800.54747  -1525317.35942  23024409.1654   23024408.8964
      5287.4464
 04  9 10 21 40 59.9970000  0  8G 3G 8G13G10G19G23G27G28
  -6233332.33648  -4842714.29743  21987134.9154   21987134.3564
      1468.5714
 -11565366.22349  -8981733.69545  20655815.2284   20655814.9424
      3972.2474
  -3700340.13349  -2874521.39146  19487391.8924   19487389.6694
       693.4914
  -3903815.33246  -3021674.27742  22724635.7984   22724635.9114
      3751.9054
 -11254882.16447  -8766123.84444  22007262.3064   22007260.0324
      3760.4494
   2427022.29747   1882303.46943  21904302.7904   21904301.0404
     -1256.2834
  -8074972.61749  -6287410.92247  19905656.0634   19905654.2354
      2716.7374
  -2060076.10247  -1587090.47342  23009323.9704   23009322.9704
      5285.0374
 04  9 10 21 41 14.9970000  0  8G 3G 8G13G10G19G23G27G28
  -6255219.51248  -4859769.23043  21982970.1034   21982969.7124
      1459.1454
 -11624903.62949  -9028126.45745  20644486.0484   20644484.7004
      3969.1604
  -3710626.64548  -2882536.85946  19485434.2204   19485431.7944
       685.7674
  -3959969.38346  -3065430.66443  22713951.1574   22713951.0564
      3743.6034
 -11311189.08247  -8809999.33644  21996546.7674   21996545.0284
      3753.7954
   2445926.70347   1897034.12143  21907900.3924   21907897.7164
     -1260.2944
  -8115680.81648  -6319131.58646  19897909.7124   19897907.5094
      2713.8804
  -2139314.03947  -1648834.22342  22994244.2824   22994244.6654
      5282.5294
 04  9 10 21 41 29.9970000  0  8G 3G 8G13G10G19G23G27G28
  -6276967.61348  -4876715.78543  21978831.2044   21978830.7164
      1449.8734
 -11684396.76649  -9074484.74245  20633165.3604   20633163.0054
      3966.2094
  -3720799.52348  -2890463.78546  19483498.1814   19483496.2354
       678.1924
  -4016000.89546  -3109091.55543  22703288.2514   22703287.2744
      3735.4344
 -11367398.18747  -8853798.59843  21985850.2434   21985848.3104
      3747.2744
   2464888.88747   1911809.79743  21911508.9154   21911506.7594
     -1264.1464
  -8156348.42248  -6350820.62546  19890170.6654   19890169.0444
      2711.1744
  -2218516.29746  -1710550.19142  22979172.8684   22979172.8134
      5280.1514
 04  9 10 21 41 44.9970000  0  8G 3G 8G13G10G19G23G27G28
  -6298574.22748  -4893552.08643  21974719.5324   21974719.5324
      1440.4414
 -11743843.47349  -9120806.84845  20621853.0874   20621852.1534
      3963.1144
  -3730856.50848  -2898300.39846  19481584.8294   19481582.6184
       670.4664
  -4071907.32845  -3152655.00442  22692649.2824   22692649.6104
      3727.0964
 -11423506.61347  -8897519.41843  21975173.3374   21975170.9854
      3740.5624
   2483911.03147   1926632.19543  21915128.1814   21915127.6464
     -1268.1434
  -8196973.02348  -6382476.16046  19882440.1734   19882438.6694
      2708.3074
  -2297680.32447  -1772236.37942  22964108.4384   22964108.6224
      5277.6024
 04  9 10 21 41 59.9970000  0  8G 3G 8G13G10G19G23G27G28
  -6320039.86348  -4910278.57443  21970635.0564   21970634.6964
      1431.0424
 -11803243.94149  -9167092.90245  20610549.8374   20610548.2594
      3960.0314
  -3740798.31248  -2906047.27346  19479692.6814   19479690.4194
       662.7874
  -4127689.10246  -3196121.31642  22682034.2594   22682034.3884
      3718.7854
 -11479514.83647  -8941162.16043  21964514.8844   21964512.5484
      3733.8824
   2502992.39547   1941500.73443  21918760.0174   21918758.2204
     -1272.0914
  -8237555.20748  -6414098.63346  19874717.3684   19874716.1384
      2705.4794
  -2376806.54747  -1833893.10542  22949051.7984   22949051.1304
      5275.0824
 04  9 10 21 42 14.9970000  0  8G 3G 8G13G10G19G23G27G28
  -6341365.10548  -4926895.61343  21966575.8844   21966576.9314
      1421.6834
 -11862598.79749  -9213343.41445  20599254.2824   20599253.1734
      3956.9904
  -3750625.36349  -2913704.72346  19477822.6884   19477820.7164
       655.1374
  -4183346.39546  -3239490.61343  22671443.3924   22671443.5174
      3710.4864
 -11535422.91847  -8984726.86343  21953876.2744   21953873.9034
      3727.2054
   2522132.35547   1956414.93843  21922402.0874   21922400.0754
     -1275.9974
  -8278095.42649  -6445688.41046  19867003.2594   19867000.9934
      2702.6814
  -2455895.15647  -1895520.54342  22934001.4464   22934000.9664
      5272.5744
 04  9 10 21 42 29.9960000  0  8G 3G 8G13G10G19G23G27G28
  -6362549.36347  -4943402.84042  21962544.9814   21962546.0044
      1412.2844
 -11921904.95749  -9259555.98045  20587968.6684   20587967.2544
      3953.7444
  -3760337.57849  -2921272.69146  19475974.8324   19475972.8524
       647.4814
  -4238876.03146  -3282760.41843  22660876.5984   22660876.9814
      3701.9764
 -11591227.59847  -9028211.01243  21943257.0664   21943254.9144
      3720.3124
   2541328.71947   1971373.09043  21926054.4344   21926053.3984
     -1279.7584
  -8318591.68048  -6477243.92646  19859296.5664   19859295.3244
      2699.7504
  -2534941.50447  -1957115.01242  22918958.8164   22918959.0824
      5269.7574
 04  9 10 21 42 44.9960000  0  8G 3G 8G13G10G19G23G27G28
  -6383592.77047  -4959800.28543  21958541.4814   21958541.1414
      1402.8944
 -11981167.11349  -9305734.28145  20576691.7774   20576690.4534
      3950.8104
  -3769933.63349  -2928750.14846  19474148.6844   19474146.3054
       639.7374
  -4294282.52046  -3325934.27743  22650332.5124   22650332.7854
      3693.7664
 -11646933.44546  -9071618.13744  21932656.4734   21932654.8634
      3713.7234
   2560586.41446   1986379.03143  21929719.8404   21929717.7584
     -1283.8464
  -8359046.67248  -6508767.28146  19851598.2854   19851596.7384
      2696.9994
  -2613953.18047  -2018682.47742  22903923.2074   22903923.7544
      5267.4454
 04  9 10 21 42 59.9960000  0  8G 3G 8G13G10G19G23G27G28
  -6404496.91448  -4976089.18743  21954563.8714   21954563.1214
      1393.6104
 -12040384.62549  -9351877.77345  20565423.0514   20565421.2234
      3947.8344
  -3779415.89549  -2936138.93446  19472344.2774   19472342.0864
       632.1514
  -4349565.02746  -3369011.56242  22639813.1844   22639812.1844
      3685.5014
 -11702539.33647  -9114947.37944  21922074.8094   21922073.4774
      3707.0594
   2579901.00047   2001429.30143  21933394.6214   21933393.1724
     -1287.6394
  -8399460.70748  -6540258.73446  19843907.8094   19843906.0394
      2694.2694
  -2692927.70347  -2080221.01642  22888895.0274   22888895.5634
      5264.9684
 04  9 10 21 43 14.9960000  0  8G 3G 8G13G10G19G23G27G28
  -6425262.94548  -4992270.48843  21950611.0354   21950611.1564
      1384.4024
 -12099558.37549  -9397987.16045  20554162.3714   20554161.4734
      3944.9174
  -3788785.54749  -2943439.96546  19470561.1134   19470559.1134
       624.6434
  -4404724.28146  -3411992.77742  22629316.1064   22629316.1374
      3677.2844
 -11758046.02047  -9158199.29744  21911512.4814   21911510.3054
      3700.4464
   2599271.29347   2016522.97743  21937080.4344   21937078.8284
     -1291.3534
  -8439834.75049  -6571719.02347  19836225.0824   19836222.9924
      2691.6034
  -2771866.01247  -2141731.30142  22873873.6994   22873873.9384
      5262.5544
 04  9 10 21 43 29.9960000  0  8G 3G 8G13G10G19G23G27G28
  -6445888.56248  -5008342.39143  21946687.0824   21946686.4614
      1375.0414
 -12158686.03949  -9444060.65245  20542910.6604   20542909.4414
      3941.8444
  -3798040.31249  -2950651.48446  19468800.1604   19468798.0004
       616.9844
  -4459757.82045  -3454876.04742  22618843.4104   22618843.3364
      3668.9034
 -11813450.91047  -9201371.89844  21900968.7774   21900965.8484
      3693.6594
   2618699.46147   2031661.73043  21940778.5124   21940776.6884
     -1295.2114
  -8480166.53949  -6603146.38746  19828550.2154   19828548.7154
      2688.7864
  -2850765.44547  -2203211.32442  22858859.5984   22858859.4454
      5259.9624
 04  9 10 21 43 44.9960000  0  8G 3G 8G13G10G19G23G27G28
  -6466377.32848  -5024307.62543  21942787.3164   21942787.7734
      1365.9184
 -12217771.19149  -9490101.02045  20531667.3324   20531665.8484
      3939.0104
  -3807183.81649  -2957776.30546  19467060.1524   19467057.7114
       609.5674
  -4514669.03545  -3497663.98042  22608394.8634   22608394.0274
      3660.7484
 -11868757.04747  -9244467.56644  21890445.2384   21890441.9844
      3687.0764
   2638181.67647   2046842.62943  21944485.7854   21944484.4024
     -1298.8144
  -8520459.58249  -6634543.57046  19820882.4884   19820880.7854
      2686.2034
  -2929629.47347  -2264663.71542  22843852.1914   22843852.3754
      5257.6024
 04  9 10 21 43 59.9960000  0  8G 3G 8G13G10G19G23G27G28
  -6486727.87548  -5040165.19543  21938915.0124   21938915.1994
      1356.7034
 -12276812.52349  -9536107.23445  20520431.9884   20520431.2234
      3936.0894
  -3816214.74249  -2964813.39146  19465341.6454   19465339.4184
       602.0624
  -4569456.36746  -3540355.40243  22597969.1064   22597968.8754
      3652.4894
 -11923962.97747  -9287485.13744  21879939.4264   21879937.1604
      3680.3954
   2657719.05147   2062066.50043  21948204.1994   21948201.6954
     -1302.4924
  -8560712.56649  -6665909.51646  19813222.9884   19813220.9414
      2683.5324
  -3008456.41047  -2326087.25442  22828852.1994   22828852.1334
      5255.1294
 04  9 10 21 44 14.9960000  0  8G 3G 8G13G10G19G23G27G28
  -6506942.03148  -5055916.46543  21935068.4344   21935068.5124
      1347.6104
 -12335811.44949  -9582080.39845  20509204.8874   20509203.3404
      3933.2624
  -3825134.73049  -2971764.03946  19463644.0744   19463642.3914
       594.6664
  -4624121.29346  -3582951.44942  22587566.0904   22587566.6724
      3644.3284
 -11979070.07047  -9330425.71544  21869453.2934   21869450.6484
      3673.8064
   2677309.88747   2077332.03543  21951931.8324   21951929.4574
     -1306.0564
  -8600927.02349  -6697245.46947  19805570.0594   19805568.6024
      2680.9644
  -3087247.88747  -2387483.13342  22813858.0274   22813858.6214
      5252.7654
 04  9 10 21 44 29.9960000  0  8G 3G 8G13G10G19G23G27G28
  -6527016.80548  -5071559.15243  21931248.4344   21931247.8794
      1338.3184
 -12394765.12949  -9628018.31645  20497986.2074   20497984.5864
      3930.2454
  -3833940.85949  -2978625.97346  19461968.4414   19461965.9814
       587.0754
  -4678660.62146  -3625449.59042  22577187.8874   22577188.0164
      3635.9554
 -12034075.15647  -9373286.79344  21858986.3324   21858984.4884
      3667.0064
   2696956.71147   2092641.20743  21955670.8014   21955668.1684
     -1309.7884
  -8641100.15249  -6728549.19546  19797925.4654   19797924.1644
      2678.2094
  -3166000.78147  -2448848.94142  22798871.6844   22798872.6374
      5250.1934
 04  9 10 21 44 44.9960000  0  8G 3G 8G13G10G19G23G27G28
  -6546955.46548  -5087095.75443  21927454.2934   21927453.3794
      1329.2444
 -12453676.57849  -9673923.31245  20486775.6454   20486774.1804
      3927.4304
  -3842636.46549  -2985401.78146  19460313.7704   19460311.3094
       579.7074
  -4733077.38346  -3667852.21143  22566832.9414   22566832.5944
      3627.7844
 -12088981.12147  -9416070.63744  21848537.7464   21848536.0084
      3660.3984
   2716656.16447   2107991.38743  21959418.8404   21959417.2624
     -1313.2974
  -8681235.19949  -6759823.25046  19790287.9734   19790286.3524
      2675.6704
  -3244718.16047  -2510187.11342  22783892.0664   22783893.0744
      5247.8254
 04  9 10 21 44 59.9960000  0  8G 3G 8G13G10G19G23G27G28
  -6566756.03947  -5102524.75842  21923685.4574   21923685.5634
      1320.0384
 -12512543.76649  -9719793.84045  20475573.5904   20475572.1524
      3924.4794
  -3851219.57049  -2992089.91446  19458680.4494   19458678.2734
       572.2074
  -4787369.28546  -3710157.58643  22556501.3874   22556500.6484
      3619.4604
 -12143785.55947  -9458775.35944  21838108.5594   21838106.1724
      3653.6294
   2736410.13347   2123384.00443  21963178.1684   21963176.0474
     -1316.9314
  -8721329.90249  -6791065.86746  19782658.0664   19782656.7734
      2672.9804
  -3323397.69947  -2571495.77042  22768920.6374   22768920.9494
      5245.3034
 04  9 10 21 45 14.9960000  0  8G 3G 8G13G10G19G23G27G28
  -6586418.29748  -5117846.01643  21919945.1374   21919944.4924
      1310.8174
 -12571366.73849  -9765629.89545  20464380.0274   20464379.1094
      3921.5324
  -3859690.06249  -2998690.31646  19457068.5514   19457066.3914
       564.6994
  -4841536.04746  -3752365.42643  22546193.6914   22546194.1604
      3611.1174
 -12198488.05947  -9501400.64844  21827698.4184   21827696.2624
      3646.8334
   2756218.61347   2138819.15643  21966947.2074   21966945.3204
     -1320.5654
  -8761384.14149  -6822276.96546  19775035.9104   19775033.9454
      2670.2834
  -3402038.95747  -2632774.60242  22753955.0904   22753955.5634
      5242.7514
 04  9 10 21 45 29.9960000  0  8G 3G 8G13G10G19G23G27G28
  -6605943.51248  -5133060.46943  21916229.0434   21916228.6914
      1301.6814
 -12630146.27349  -9811432.10946  20453194.8564   20453194.1954
      3918.6364
  -3868048.93449  -3005203.72346  19455477.8954   19455475.7274
       557.2584
  -4895578.58247  -3794476.48443  22535909.8954   22535909.9654
      3602.8364
 -12253089.37547  -9543947.07444  21817308.1134   21817306.1724
      3640.0884
   2776080.34047   2154295.75843  21970727.7384   21970725.2074
     -1324.1154
  -8801399.03549  -6853457.39146  19767421.4264   19767419.2074
      2667.6604
  -3480643.02347  -2694024.47742  22738997.7704   22738997.8014
      5240.2714
 04  9 10 21 45 44.9960000  0  8G 3G 8G13G10G19G23G27G28
  -6625334.44547  -5148170.27043  21912539.3404   21912538.8794
      1292.7294
 -12688885.22749  -9857202.71545  20442017.4574   20442016.4224
      3915.9304
  -3876299.07849  -3011632.41446  19453907.9884   19453905.8754
       550.0104
  -4949499.60947  -3836492.84442  22525649.1844   22525648.7734
      3594.7354
 -12307592.07047  -9586416.68744  21806937.3714   21806934.5944
      3633.5134
   2795992.19947   2169811.42643  21974516.3794   21974514.6094
     -1327.4574
  -8841377.35949  -6884609.32846  19759814.2464   19759811.8444
      2665.2224
  -3559212.37547  -2755247.28542  22724046.1524   22724046.2194
      5237.9574
 04  9 10 21 45 59.9960000  0  8G 3G 8G13G10G19G23G27G28
  -6644593.26648  -5163177.12543  21908874.5274   21908873.7384
      1283.9214
 -12747585.28549  -9902943.00445  20430846.9734   20430845.6604
      3913.3374
  -3884442.54349  -3017977.98046  19452358.3014   19452356.2814
       542.8984
  -5003300.63347  -3878415.67642  22515410.8794   22515409.4884
      3586.7354
 -12361997.68047  -9628810.66444  21796584.3874   21796581.9184
      3627.0414
   2815952.11347   2185364.54743  21978314.1524   21978312.3244
     -1330.6614
  -8881321.05949  -6915734.28946  19752212.9104   19752211.2504
      2662.9134
  -3637748.78948  -2816444.44942  22709101.8014   22709101.0594
      5235.7614
 04  9 10 21 46 14.9960000  0  8G 3G 8G13G10G19G23G27G28
  -6663718.35548  -5178079.79343  21905235.5434   21905234.4534
      1275.0064
 -12806245.17249  -9948651.99645  20419684.3324   20419682.4454
      3910.6594
  -3892477.76649  -3024239.21146  19450829.4344   19450827.2034
       535.6824
  -5056979.95347  -3920243.71942  22505195.8244   22505194.8634
      3578.6214
 -12416304.56247  -9671127.67644  21786250.2314   21786247.6724
      3620.4594
   2835961.42247   2200956.17243  21982122.7154   21982120.8324
     -1333.9544
  -8921228.52749  -6946831.01646  19744618.8714   19744616.9144
      2660.4984
  -3716250.39847  -2877614.44942  22694162.9184   22694162.4884
      5233.4414
 04  9 10 21 46 29.9960000  0  8G 3G 8G13G10G19G23G27G28
  -6682709.07448  -5192877.74643  21901621.3244   21901620.6604
      1266.0484
 -12864864.09849  -9994329.06645  20408529.3324   20408528.0824
      3907.9284
  -3900404.16849  -3030415.63746  19449320.9104   19449318.6414
       528.4274
  -5110536.80146  -3961976.29742  22495004.9884   22495005.0474
      3570.4574
 -12470511.77347  -9713367.02744  21775934.8564   21775932.8014
      3613.8144
   2856020.65647   2216586.67643  21985939.3324   21985938.2074
     -1337.2824
  -8961098.98449  -6977898.90246  19737031.7234   19737029.9184
      2658.0304
  -3794716.30547  -2938756.66042  22679231.4184   22679231.3324
      5231.0604
 04  9 10 21 46 44.9960000  0  8G 3G 8G13G10G19G23G27G28
  -6701565.63747  -5207571.15242  21898032.0274   21898032.0164
      1257.1044
 -12923442.04349 -10039974.19145  20397381.9884   20397381.6134
      3905.1964
  -3908221.82849  -3036507.32846  19447833.4104   19447831.0394
       521.1774
  -5163971.21946  -4003613.47342  22484835.8404   22484836.6684
      3562.2954
 -12524619.12146  -9755528.57844  21765638.0434   21765636.0434
      3607.1574
   2876129.40247   2232255.77043  21989765.7934   21989764.4614
     -1340.5834
  -9000932.61749  -7008938.09846  19729451.5124   19729449.5514
      2655.5764
  -3873146.77747  -2999871.22742  22664306.4024   22664306.4774
      5228.6984
 04  9 10 21 46 59.9960000  0  8G 3G 8G13G10G19G23G27G28
  -6720289.44147  -5222161.12542  21894469.7544   21894469.2584
      1248.2544
 -12981980.56649 -10085588.59845  20386242.2154   20386241.8674
      3902.5684
  -3915932.27749  -3042515.48446  19446366.2384   19446363.9884
       514.0304
  -5217284.32446  -4045156.14542  22474690.4344   22474690.6724
      3554.2074
 -12578627.70347  -9797613.14844  21755360.0274   21755358.2624
      3600.5724
   2896286.10947   2247962.26643  21993601.5824   21993599.0864
     -1343.7804
  -9040730.93049  -7039949.77046  19721878.2544   19721876.5474
      2653.2214
  -3951542.89147  -3060959.03142  22649387.1524   22649388.3484
      5226.4084
 04  9 10 21 47 14.9960000  0  8G 3G 8G13G10G19G23G27G28
  -6738879.96147  -5236647.24242  21890931.8564   21890931.7314
      1239.3684
 -13040478.85549 -10131171.67246  20375111.3564   20375109.9964
      3899.8864
  -3923534.93049  -3048439.64146  19444919.5594   19444917.2584
       506.8434
  -5270475.28546  -4086603.62942  22464569.0044   22464568.8244
      3546.0644
 -12632536.50046  -9839619.98044  21745102.2624   21745099.5664
      3593.9204
   2916491.20747   2263706.43843  21997446.8874   21997444.3714
     -1347.0074
  -9080493.14149  -7070933.30946  19714311.8484   19714310.0824
      2650.8144
  -4029903.82047  -3122019.40642  22634475.9184   22634475.7894
      5224.0624
 04  9 10 21 47 29.9960000  0  8G 3G 8G13G10G19G23G27G28
  -6757337.32447  -5251029.60942  21887419.4104   21887418.7934
      1230.4914
 -13098936.95749 -10176723.41846  20363986.9814   20363986.1254
      3897.2074
  -3931029.95749  -3054279.92647  19443493.1294   19443491.1724
       499.6684
  -5323544.23046  -4127955.96942  22454469.7774   22454470.5394
      3537.9304
 -12686345.34047  -9881548.92644  21734862.2464   21734860.2154
      3587.2564
   2936744.35547   2279488.06643  22001301.1684   22001299.2584
     -1350.2104
  -9120219.38349  -7101888.82046  19706751.9104   19706750.1604
      2648.4164
  -4108229.37547  -3183052.20342  22619571.5594   22619570.7034
      5221.7044
 04  9 10 21 47 44.9960000  0  8G 3G 8G13G10G19G23G27G28
  -6775663.92248  -5265310.07442  21883932.5664   21883931.5944
      1221.7734
 -13157357.18049 -10222245.65245  20352869.6994   20352868.9694
      3894.6824
  -3938419.66849  -3060038.15246  19442087.2314   19442084.9224
       492.6474
  -5376492.98446  -4169214.73842  22444394.6064   22444393.8914
      3529.9174
 -12740056.09847  -9923401.41444  21724642.0354   21724639.4734
      3580.7174
   2957043.04347   2295305.14543  22005163.7704   22005161.9454
     -1353.2464
  -9159911.97749  -7132818.10246  19699198.8244   19699196.6094
      2646.1734
  -4186521.78147  -3244059.20742  22604672.3874   22604672.3834
      5219.4944
 04  9 10 21 47 59.9960000  0  8G 3G 8G13G10G19G23G27G28
  -6793858.54747  -5279487.69142  21880469.5744   21880469.8324
      1212.9754
 -13215738.34849 -10267737.44946  20341760.3634   20341759.2734
      3892.0784
  -3945702.89149  -3065713.40646  19440701.3014   19440698.9844
       485.5484
  -5429320.21146  -4210378.80542  22434341.9414   22434340.6724
      3521.8154
 -12793667.38347  -9965176.41043  21714439.3564   21714437.3834
      3574.0864
   2977388.39847   2311158.62543  22009035.1914   22009032.9844
     -1356.3574
  -9199569.56249  -7163720.10946  19691652.2314   19691650.5634
      2643.8394
  -4264779.48047  -3305039.19642  22589780.7314   22589780.7384
      5217.1804
 04  9 10 21 48 14.9960000  0  8G 3G 8G13G10G19G23G27G28
  -6811920.12947  -5293561.67242  21877032.9024   21877032.5434
      1204.1054
 -13274079.09049 -10313197.75446  20330659.0514   20330657.8594
      3889.3834
  -3952878.43749  -3071304.75446  19439335.4814   19439333.5274
       478.3704
  -5482024.61745  -4251447.13742  22424311.8484   22424312.1294
      3513.6274
 -12847177.69947 -10006872.72743  21704256.4414   21704254.8404
      3567.3544
   2997781.39547   2327049.20343  22012916.2074   22012914.4144
     -1359.5334
  -9239191.01649  -7194593.96146  19684112.4884   19684110.9414
      2641.4304
  -4343001.19547  -3365991.08242  22574896.0124   22574895.6134
      5214.7814
 04  9 10 21 48 29.9960000  0  8G 3G 8G13G10G19G23G27G28
  -6829845.35947  -5307529.37542  21873621.9734   21873622.0474
      1195.0154
 -13332375.93749 -10358623.85246  20319564.9024   20319563.7194
      3886.4574
  -3959943.10249  -3076809.69546  19437991.1064   19437989.4024
       470.9784
  -5534602.66846  -4292417.07042  22414307.0044   22414306.8714
      3505.2034
 -12900583.57847 -10048487.67244  21694094.3244   21694091.9924
      3560.3924
   3018225.13747   2342979.32843  22016806.2774   22016805.0744
     -1362.9164
  -9278772.94149  -7225437.02746  19676580.3094   19676578.3594
      2638.7954
  -4421183.35247  -3426912.16042  22560017.3484   22560018.1884
      5212.1444
 04  9 10 21 48 44.9960000  0  8G 3G 8G13G10G19G23G27G28
  -6847637.00847  -5321393.00042  21870236.0744   21870235.8204
      1186.1104
 -13390631.83249 -10404018.03545  20308479.0434   20308477.1914
      3883.7264
  -3966899.60249  -3082230.35946  19436667.4264   19436665.2624
       463.7674
  -5587056.83646  -4333290.45342  22404325.8954   22404324.6724
      3496.9454
 -12953887.46148 -10090023.14544  21683950.9104   21683948.4774
      3553.5924
   3038716.59047   2358946.63743  22020705.3714   22020704.4304
     -1366.0974
  -9318318.02049  -7256251.37146  19669054.9184   19669053.2974
      2636.3394
  -4499328.51247  -3487804.41042  22545147.9574   22545147.2234
      5209.6774
 04  9 10 21 48 59.9960000  0  8G 3G 8G13G10G19G23G27G28
  -6865293.64147  -5335151.39842  21866876.0354   21866875.4844
      1177.1094
 -13448844.87549 -10449378.84445  20297401.3954   20297399.8094
      3880.8704
  -3973746.40649  -3087565.53946  19435364.6604   19435362.1954
       456.4544
  -5639385.44946  -4374065.94942  22394367.5434   22394367.3634
      3488.5744
 -13007087.47348 -10131477.66044  21673826.9734   21673824.8984
      3546.6674
   3059257.31347   2374952.33243  22024614.7934   22024612.5784
     -1369.3824
  -9357824.61749  -7287035.71946  19661537.4574   19661535.5474
      2633.7734
  -4577434.91047  -3548666.49242  22530284.3164   22530283.5354
      5207.0934
 04  9 10 21 49 14.9960000  0  8G 3G 8G13G10G19G23G27G28
  -6882814.11747  -5348803.71142  21863542.9814   21863541.9024
      1168.0324
 -13507013.91849 -10494705.34445  20286332.3324   20286331.7114
      3877.9364
  -3980482.45749  -3092814.41046  19434082.6374   19434080.6484
       449.0704
  -5691587.09446  -4414742.50042  22384433.7774   22384433.5084
      3480.1104
 -13060182.14848 -10172850.12144  21663724.1454   21663721.6884
      3539.6454
   3079848.29347   2390997.18443  22028533.1064   22028531.6914
     -1372.7324
  -9397291.62549  -7317789.21947  19654026.8014   19654025.0274
      2631.1344
  -4655501.21148  -3609497.28542  22515428.3094   22515428.0514
      5204.4204
 04  9 10 21 49 29.9960000  0  8G 3G 8G13G10G19G23G27G28
  -6900198.46547  -5362349.98043  21860234.3484   21860234.8134
      1158.9574
 -13565139.12949 -10539997.69946  20275271.4574   20275270.5164
      3875.0144
  -3987107.82049  -3097977.04346  19432822.0354   19432819.8444
       441.6914
  -5743661.62546  -4455320.04742  22374524.5824   22374524.8714
      3471.6354
 -13113171.30548 -10214140.33644  21653640.0904   21653638.0824
      3532.6104
   3100489.11347   2407080.88343  22032461.3014   22032459.1484
     -1376.0554
  -9436719.01649  -7348511.85946  19646524.3164   19646522.3054
      2628.4934
  -4733527.19147  -3670296.68742  22500580.6524   22500580.5904
      5201.7324
 04  9 10 21 49 44.9960000  0  8G 3G 8G13G10G19G23G27G28
  -6917447.48847  -5375790.75043  21856951.9574   21856951.5274
      1149.9354
 -13623220.97749 -10585256.26245  20264218.3874   20264217.4734
      3872.1234
  -3993623.16449  -3103053.94546  19431582.0984   19431579.9064
       434.3564
  -5795609.62546  -4495799.02042  22364638.8094   22364639.2934
      3463.2004
 -13166055.17648 -10255348.53144  21643576.3244   21643573.7584
      3525.5914
   3121179.00447   2423202.80143  22036398.2934   22036396.2314
     -1379.3264
  -9476107.38749  -7379204.09846  19639028.7234   19639026.8364
      2625.8914
  -4811513.38747  -3731065.09842  22485740.5984   22485740.0514
      5199.0804
 04  9 10 21 49 59.9960000  0  8G 3G 8G13G10G19G23G27G28
  -6934559.71147  -5389124.91443  21853695.5274   21853694.9694
      1140.8154
 -13681257.70349 -10630479.67646  20253174.8404   20253173.4304
      3869.1154
  -4000026.91049  -3108043.88746  19430363.8244   19430360.9494
       426.9164
  -5847429.37945  -4536178.02042  22354777.3324   22354777.1214
      3454.6504
 -13218831.96548 -10296473.25844  21633533.5434   21633530.7074
      3518.4534
   3141919.27747   2439363.98843  22040345.0594   22040343.1764
     -1382.6854
  -9515455.21949  -7409864.74246  19631541.0594   19631539.0554
      2623.1894
  -4889457.91047  -3791801.02742  22470907.7774   22470907.7544
      5196.3024
 04  9 10 21 50 14.9960000  0  8G 3G 8G13G10G19G23G27G28
  -6951534.65648  -5402352.16443  21850464.8324   21850465.1484
      1131.6634
 -13739248.82449 -10675667.54346  20242139.2854   20242138.5274
      3866.0754
  -4006318.83249  -3112946.69546  19429166.4104   19429163.8754
       419.4614
  -5899120.14845  -4576456.52342  22344941.5984   22344940.3524
      3446.0514
 -13271500.87548 -10337513.94143  21623510.6454   21623508.1414
      3511.2614
   3162710.19547   2455564.66843  22044301.7464   22044298.4064
     -1386.0614
  -9554761.94949  -7440493.36346  19624061.3094   19624059.6684
      2620.4494
  -4967360.27347  -3852504.09842  22456083.5124   22456083.3014
      5193.4914
 04  9 10 21 50 29.9960000  0  8G 3G 8G13G10G19G23G27G28
  -6968376.55547  -5415475.70343  21847260.5044   21847260.1994
      1122.7934
 -13797198.49249 -10720823.09845  20231111.8164   20231110.5594
      3863.3114
  -4012503.09449  -3117765.60946  19427989.8244   19427987.0594
       412.2844
  -5950685.87946  -4616637.59842  22335129.0904   22335128.2234
      3437.7154
 -13324065.72748 -10378473.53143  21613508.3564   21613505.9654
      3504.3234
   3183547.55547   2471801.51243  22048266.6684   22048264.1914
     -1389.1574
  -9594031.66849  -7471093.13746  19616588.4344   19616586.3874
      2617.9814
  -5045224.31647  -3913177.29742  22441266.2854   22441266.0004
      5190.9364
 04  9 10 21 50 44.9960000  0  8G 3G 8G13G10G19G23G27G28
  -6985085.63747  -5428495.77343  21844080.5204   21844080.5164
      1113.9394
 -13855107.26249 -10765946.82046  20220092.5824   20220091.6334
      3860.5854
  -4018579.92249  -3122500.81246  19426833.1454   19426830.6844
       405.1224
  -6002126.68046  -4656721.32842  22325340.3244   22325338.9574
      3429.3874
 -13376526.62948 -10419352.12543  21603524.6914   21603523.2774
      3497.3934
   3204430.83647   2488074.12943  22052240.2624   22052238.5274
     -1392.2194
  -9633264.59849  -7501664.25846  19609122.6134   19609120.9414
      2615.5294
  -5123050.11747  -3973820.67242  22426456.2234   22426456.1214
      5188.3874
 04  9 10 21 50 59.9960000  0  8G 3G 8G13G10G19G23G27G28
  -7001661.42647  -5441411.97343  21840925.9654   21840925.7664
      1105.0534
 -13912974.04349 -10811037.80145  20209080.2704   20209079.3564
      3857.7854
  -4024548.74249  -3127151.85246  19425697.3164   19425695.1374
       397.9214
  -6053441.64846  -4696706.99242  22315574.6604   22315574.4414
      3420.9984
 -13428882.66048 -10460149.00044  21593562.4574   21593559.6804
      3490.4024
   3225360.46547   2504382.85943  22056223.0124   22056222.0084
     -1395.3094
  -9672460.08249  -7532206.18446  19601664.0434   19601662.1844
      2613.0324
  -5200836.82448  -4034433.60243  22411654.3094   22411653.9964
      5185.7804
 04  9 10 21 51 14.9960000  0  8G 3G 8G13G10G19G23G27G28
  -7018103.87147  -5454224.27742  21837797.3164   21837797.2704
      1096.1634
 -13970798.74249 -10856095.98845  20198076.5354   20198075.2344
      3854.9804
  -4030409.71549  -3131718.85546  19424582.0434   19424579.5554
       390.7324
  -6104630.71946  -4736594.58642  22305834.0824   22305834.6564
      3412.6054
 -13481133.45348 -10500863.87143  21583618.7384   21583616.1994
      3483.3864
   3246336.34047   2520727.65642  22060215.2704   22060212.6484
     -1398.3924
  -9711618.07449  -7562718.90646  19594212.7464   19594210.9304
      2610.5334
  -5278584.32448  -4095015.99642  22396859.4184   22396859.8204
      5183.1674
 04  9 10 21 51 29.9960000  0  8G 3G 8G13G10G19G23G27G28
  -7034415.98847  -5466934.98842  21834693.2704   21834692.9574
      1087.4744
 -14028584.25849 -10901123.65245  20187080.1844   20187079.0474
      3852.3684
  -4036165.52349  -3136203.91046  19423486.7384   19423484.7624
       383.7214
  -6155696.45346  -4776386.05142  22296116.8324   22296117.1524
      3404.3824
 -13533281.52747 -10541498.69943  21573694.9104   21573692.7664
      3476.5384
   3267355.35247   2537106.04343  22064215.2154   22064213.4654
     -1401.2674
  -9750741.39849  -7593204.60246  19586767.7234   19586765.8714
      2608.2224
  -5356295.07048  -4155569.74643  22382071.4814   22382071.8014
      5180.7164
 04  9 10 21 51 44.9960000  0  8G 3G 8G13G10G19G23G27G28
  -7050595.71947  -5479542.58642  21831615.0594   21831615.0984
      1078.6494
 -14086328.45349 -10946119.11345  20176091.9024   20176090.1134
      3849.6134
  -4041814.22749  -3140605.50846  19422411.4104   19422409.5314
       376.5804
  -6206636.63747  -4816079.70342  22286423.5274   22286422.1684
      3396.0124
 -13585324.64848 -10582051.75443  21563791.5354   21563789.2424
      3469.5414
   3288419.36347   2553519.49243  22068223.2384   22068220.8094
     -1404.2674
  -9789827.95349  -7623661.66046  19579329.7234   19579328.0394
      2605.7704
  -5433966.88348  -4216093.15642  22367291.3794   22367290.6724
      5178.1214
 04  9 10 21 51 59.9960000  0  8G 3G 8G13G10G19G23G27G28
  -7066643.85248  -5492047.62543  21828560.5514   21828559.6524
      1069.8764
 -14144032.00449 -10991082.90246  20165111.5984   20165110.6564
      3846.9034
  -4047356.39849  -3144924.09046  19421357.0904   19421354.8564
       369.4784
  -6257451.75846  -4855675.84042  22276753.5204   22276752.4454
      3387.6754
 -13637263.02748 -10622523.18444  21553908.7154   21553906.0164
      3462.5594
   3309527.59047   2569967.40243  22072240.2234   22072237.9884
     -1407.2154
  -9828878.24249  -7654090.44946  19571898.5354   19571897.2854
      2603.3534
  -5511600.14548  -4276586.55542  22352517.4964   22352516.8714
      5175.5514
 04  9 10 21 52 14.9960000  0  8G 3G 8G13G10G19G23G27G28
  -7082562.43047  -5504451.69542  21825531.8564   21825530.0984
      1061.2394
 -14201696.62149 -11036016.35246  20154138.2934   20154137.7274
      3844.3084
  -4052794.28149  -3149161.41046  19420322.0984   19420319.9414
       362.5264
  -6308143.68746  -4895176.02742  22267106.7384   22267105.9454
      3379.4624
 -13689098.45748 -10662914.39544  21544044.4494   21544042.5474
      3455.6954
   3330677.81347   2586448.05142  22076264.5904   22076262.6764
     -1410.0154
  -9867894.32049  -7684492.58247  19564474.4414   19564472.7934
      2601.0724
  -5589196.72748  -4337051.36742  22337751.7314   22337750.6174
      5173.1054
 04  9 10 21 52 29.9960000  0  8G 3G 8G13G10G19G23G27G28
  -7098350.82047  -5516754.33643  21822526.9654   21822526.2074
      1052.5594
 -14259321.62949 -11080918.94146  20143172.8324   20143171.4454
      3841.6674
  -4058127.23049  -3153316.97346  19419307.3404   19419305.2274
       355.5304
  -6358711.52347  -4934579.55542  22257484.6454   22257483.5164
      3371.1894
 -13740830.01248 -10703224.65644  21534200.1844   21534198.1294
      3448.7704
   3351870.61747   2602961.85243  22080297.7544   22080295.8984
     -1412.8544
  -9906875.39149  -7714867.44546  19557056.3794   19557054.1914
      2598.7384
  -5666755.77748  -4397486.94542  22322992.3324   22322991.4104
      5170.6034
 04  9 10 21 52 44.9960000  0  8G 3G 8G13G10G19G23G27G28
  -7114009.91448  -5528956.21943  21819547.4184   21819546.5394
      1043.9404
 -14316907.56649 -11125791.08245  20132214.4654   20132212.6064
      3839.0634
  -4063356.05949  -3157391.39546  19418312.4024   19418310.3754
       348.5894
  -6409155.89147  -4973886.82442  22247885.6844   22247884.1684
      3362.9584
 -13792458.10948 -10743454.32044  21524375.9104   21524372.1564
      3441.8734
   3373105.00047   2619508.07043  22084338.5204   22084337.0234
     -1415.6264
  -9945822.19549  -7745215.59846  19549645.1524   19549643.1214
      2596.4544
  -5744277.79747  -4457893.62542  22308241.0354   22308239.9184
      5168.1354
 04  9 10 21 52 59.9960000  0  8G 3G 8G13G10G19G23G27G28
  -7129539.14147  -5541056.93043  21816591.7854   21816591.4534
      1035.2824
 -14374454.12949 -11170632.55545  20121263.6454   20121261.5084
      3836.4384
  -4068480.15249  -3161384.21146  19417337.3094   19417335.8594
       341.6064
  -6459475.99647  -5013097.30542  22238309.3484   22238309.3634
      3354.6744
 -13843981.97748 -10783602.74244  21514571.3484   21514567.3134
      3434.9244
   3394381.27347   2636086.92643  22088387.8244   22088385.0944
     -1418.4184
  -9984734.19149  -7775536.63746  19542240.1134   19542238.6804
      2594.1334
  -5821762.06248  -4518270.92242  22293495.5744   22293495.1644
      5165.6184
 04  9 10 21 53 14.9960000  0  8G 3G 8G13G10G19G23G27G28
  -7144941.37947  -5553058.67642  21813660.5904   21813661.0744
      1026.8164
 -14431964.00049 -11215445.43745  20110319.7704   20110318.7854
      3833.9914
  -4073502.34049  -3165297.61346  19416381.5274   19416380.0084
       334.8134
  -6509674.41847  -5052212.95742  22228756.9414   22228756.2814
      3346.5614
 -13895403.98448 -10823671.80943  21504786.1914   21504782.3094
      3428.1344
   3415696.55547   2652696.16842  22092443.2384   22092441.7074
     -1421.0194
 -10023614.03949  -7805832.61346  19534841.8244   19534839.5744
      2591.9904
  -5899211.12148  -4578620.78542  22278757.3164   22278757.3134
      5163.2714
 04  9 10 21 53 29.9960000  0  8G 3G 8G13G10G19G23G27G28
  -7160217.70747  -5564962.30943  21810753.7544   21810754.1334
      1018.4224
 -14489438.02749 -11260230.35545  20099382.7384   20099381.6374
      3831.6024
  -4078423.68749  -3169132.44946  19415445.1374   19415443.4024
       328.0904
  -6559752.04346  -5091234.44542  22219227.2544   22219226.9144
      3338.5084
 -13946724.84448 -10863662.05144  21495019.5744   21495016.8284
      3421.3914
   3437049.74246   2669334.97342  22096507.0514   22096505.3404
     -1423.5464
 -10062462.57849  -7836104.21146  19527449.0664   19527447.5314
      2589.9034
  -5976625.82047  -4638943.84442  22264025.9414   22264025.9224
      5160.9804
 04  9 10 21 53 44.9960000  0  8G 3G 8G13G10G19G23G27G28
  -7175366.44147  -5576766.51642  21807870.6764   21807870.6724
      1009.9164
 -14546874.33249 -11304985.90645  20088453.1764   20088451.2274
      3829.0874
  -4083242.52049  -3172887.39846  19414528.1994   19414526.2234
       321.2554
  -6609706.91047  -5130160.32843  22209721.5354   22209721.8794
      3330.3244
 -13997942.65248 -10903571.99644  21485273.0824   21485271.3444
      3414.5214
   3458442.24647   2686004.37143  22100577.8634   22100576.7234
     -1426.1674
 -10101278.21549  -7866350.14846  19520062.5354   19520060.9384
      2587.7094
  -6054004.17647  -4699238.57843  22249300.6994   22249301.6094
      5158.5574
 04  9 10 21 53 59.9960000  0  8G 3G 8G13G10G19G23G27G28
  -7190389.78147  -5588473.01642  21805012.5744   21805011.7464
      1001.5564
 -14604274.95749 -11349713.66846  20077530.2544   20077527.5984
      3826.7084
  -4087961.02749  -3176564.16846  19413630.3244   19413628.2854
       314.5674
  -6659541.12146  -5168992.13742  22200238.0044   22200237.8244
      3322.2814
 -14049059.29348 -10943403.10544  21475546.3954   21475543.4924
      3407.7764
   3479871.62947   2702702.52043  22104656.0274   22104654.0634
     -1428.6264
 -10140062.95349  -7896572.02747  19512682.2154   19512680.6064
      2585.6494
  -6131348.04347  -4759506.45343  22234583.0434   22234583.5124
      5156.2584
 04  9 10 21 54 14.9960000  0  8G 3G 8G13G10G19G23G27G28
  -7205285.85947  -5600080.35942  21802177.8094   21802178.2974
       993.0724
 -14661637.78149 -11394411.96945  20066614.5354   20066613.1454
      3824.1884
  -4092577.44549  -3180161.38346  19412752.0204   19412749.5594
       307.7614
  -6709252.45747  -5207728.21942  22190778.5514   22190777.7464
      3314.0894
 -14100072.46548 -10983153.60244  21465838.8324   21465835.9574
      3400.8784
   3501339.69947   2719430.83243  22108740.5984   22108738.5394
     -1431.2054
 -10178814.90249  -7926768.34446  19505308.1214   19505306.0554
      2583.4634
  -6208655.35547  -4819745.85543  22219871.8564   22219871.8444
      5153.8214
 04  9 10 21 54 29.9960000  0  8G 3G 8G13G10G19G23G27G28
  -7220056.61748  -5611590.05542  21799367.3094   21799367.2074
       984.7174
 -14718964.87549 -11439082.41046  20055705.2314   20055704.3404
      3821.8064
  -4097093.44949  -3183680.36346  19411892.6844   19411890.2704
       301.0674
  -6758842.51247  -5246369.80942  22181341.8874   22181341.3164
      3306.0044
 -14150983.67248 -11022824.64144  21456150.8324   21456147.4344
      3394.0804
   3522844.68847   2736187.89843  22112833.8244   22112831.6604
     -1433.6664
 -10217535.71949  -7956940.40246  19497939.7704   19497937.1604
      2581.3884
  -6285927.62147  -4879957.92243  22205167.4184   22205167.5354
      5151.4844
 04  9 10 21 54 44.9960000  0  8G 3G 8G13G10G19G23G27G28
  -7234702.24247  -5623002.21942  21796580.4184   21796579.3404
       976.3754
 -14776256.32449 -11483725.08246  20044803.4184   20044802.0704
      3819.4304
  -4101509.32049  -3187121.31646  19411052.1604   19411050.2814
       294.3914
  -6808311.38747  -5284916.97342  22171928.6134   22171927.4694
      3297.9254
 -14201792.93448 -11062416.21144  21446482.1294   21446478.9844
      3387.2844
   3544386.13347   2752973.38743  22116933.1374   22116930.4304
     -1436.0964
 -10256225.50849  -7987088.28946  19490577.1454   19490574.9844
      2579.3194
  -6363164.87947  -4940142.72742  22190469.4654   22190469.3244
      5149.1514
 04  9 10 21 54 59.9960000  0  8G 3G 8G13G10G19G23G27G28
  -7249221.46547  -5634315.86342  21793817.1374   21793816.6254
       967.9484
 -14833510.40249 -11528338.64546  20033908.1214   20033906.9304
      3816.9394
  -4105823.76249  -3190483.21946  19410231.0984   19410229.1524
       287.6294
  -6857657.46147  -5323368.44542  22162538.2704   22162537.4304
      3289.7384
 -14252498.53148 -11101927.03144  21436832.8794   21436830.4534
      3380.3734
   3565965.10947   2769788.10543  22121038.8794   22121037.5904
     -1438.5984
 -10294882.82049  -8017210.87546  19483221.0434   19483218.8404
      2577.1544
  -6440365.58647  -5000299.04342  22175778.7774   22175778.5474
      5146.7144
 04  9 10 21 55 14.9960000  0  8G 3G 8G13G10G19G23G27G28
  -7263617.85947  -5645533.85242  21791078.0744   21791077.3914
       959.7604
 -14890730.72349 -11572925.88345  20023019.5514   20023018.3284
      3814.6884
  -4110040.33649  -3193768.88746  19409428.9654   19409426.4964
       281.1054
  -6906884.21947  -5361726.94943  22153170.0274   22153170.6414
      3281.7844
 -14303103.74648 -11141359.62944  21427203.5434   21427200.8284
      3373.6814
   3587577.86747   2786629.12943  22125151.7934   22125151.0434
     -1440.8514
 -10333511.27349  -8047310.96146  19475870.2774   19475868.1954
      2575.2304
  -6517533.08247  -5060429.50042  22161094.0274   22161093.3014
      5144.5004
 04  9 10 21 55 29.9960000  0  8G 3G 8G13G10G19G23G27G28
  -7277888.10247  -5656653.51242  21788361.7774   21788362.4024
       951.3494
 -14947913.72749 -11617484.05145  20012137.9494   20012136.7894
      3812.2004
  -4114155.81649  -3196975.77046  19408645.7314   19408643.4104
       274.3654
  -6955987.95347  -5399989.58643  22143826.7234   22143825.0744
      3273.5824
 -14353604.78548 -11180711.05544  21417593.7544   21417590.6134
      3366.7364
   3609227.69946   2803499.07843  22129271.8714   22129270.4414
     -1443.3224
 -10372107.27049  -8077385.77346  19468525.7934   19468523.9494
      2573.0664
  -6594663.76648  -5120531.27042  22146416.8324   22146415.7814
      5142.0464
 04  9 10 21 55 44.9960000  0  8G 3G 8G13G10G19G23G27G28
  -7292033.77047  -5667676.12142  21785670.7854   21785669.8794
       943.0454
 -15005061.06649 -11662014.43446  20001262.7774   20001261.3714
      3809.8234
  -4118171.66049  -3200105.00846  19407881.5204   19407879.6604
       267.7234
  -7004970.08246  -5438157.43043  22134504.6524   22134505.2584
      3265.4754
 -14404002.89848 -11219982.27744  21408002.3954   21407999.8054
      3359.8744
   3630912.95747   2820396.61343  22133398.4104   22133397.0664
     -1445.6844
 -10410672.28949  -8107436.43046  19461186.8484   19461184.8674
      2571.0014
  -6671759.00448  -5180605.42243  22131746.4104   22131745.5004
      5139.6834
 04  9 10 21 55 59.9950000  0  8G 3G 8G13G10G19G23G27G28
  -7306052.75047  -5678600.00442  21783002.5624   21783002.2764
       934.5994
 -15062167.43049 -11706512.87146  19990396.1164   19990394.0154
      3807.0914
  -4122086.37949  -3203155.45346  19407136.6714   19407134.6794
       260.9814
  -7053825.81246  -5476226.79342  22125207.4374   22125208.2764
      3257.0494
 -14454293.23848 -11259169.52744  21398432.3904   21398429.9334
      3352.6894
   3652633.34446   2837321.52742  22137531.1084   22137530.2184
     -1448.0264
 -10449202.46149  -8137459.93447  19453854.9134   19453853.1444
      2568.6784
  -6748811.92248  -5240646.61343  22117084.0694   22117083.5814
      5136.8614
 04  9 10 21 56 14.9950000  0  8G 3G 8G13G10G19G23G27G28
  -7319948.74647  -5689428.05543  21780358.0464   21780358.2144
       926.4004
 -15119241.98849 -11750986.55546  19979535.0234   19979533.2064
      3804.9714
  -4125902.23449  -3206128.84846  19406410.2734   19406408.3354
       254.3904
  -7102563.11747  -5514203.89542  22115934.1794   22115933.5384
      3249.1544
 -14504483.84848 -11298279.06244  21388881.4834   21388878.1244
      3346.0414
   3674389.75047   2854274.49643  22141671.4134   22141671.1594
     -1450.4274
 -10487704.48049  -8167461.50847  19446528.0384   19446526.3864
      2566.8014
  -6825834.41448  -5300664.09443  22102426.7494   22102426.4374
      5134.8334
 04  9 10 21 56 29.9950000  0  8G 3G 8G13G10G19G23G27G28
  -7333721.15247  -5700159.82043  21777738.0154   21777737.3474
       918.1604
 -15176281.28149 -11795432.75446  19968681.0544   19968679.6444
      3802.6204
  -4129619.20349  -3209025.21146  19405703.0854   19405701.2694
       247.7984
  -7151178.92247  -5552086.35943  22106682.7104   22106682.4604
      3241.0544
 -14554571.39548 -11337308.26644  21379350.2884   21379347.1284
      3339.1704
   3696180.39846   2871254.14143  22145818.2264   22145818.0194
     -1452.7104
 -10526175.98449  -8197439.29346  19439207.4294   19439205.5504
      2564.7674
  -6902821.39148  -5360653.87943  22087776.6874   22087775.9294
      5132.4654
 04  9 10 21 56 44.9950000  0  8G 3G 8G13G10G19G23G27G28
  -7347368.88348  -5710794.41843  21775140.7024   21775140.3554
       909.8494
 -15233283.98849 -11839850.43046  19957833.4684   19957832.4054
      3800.1804
  -4133236.24649  -3211843.70346  19405014.9834   19405013.2334
       241.1364
  -7199671.82447  -5589873.02742  22097454.9134   22097454.0934
      3232.8604
 -14604554.40248 -11376256.02344  21369838.7964   21369835.5344
      3332.2014
   3718006.30946   2888261.28142  22149970.9444   22149970.5624
     -1455.0614
 -10564615.71949  -8227392.34046  19431892.1484   19431890.7764
      2562.6494
  -6979771.47348  -5420614.93442  22073132.9524   22073132.1904
      5130.0054
 04  9 10 21 56 59.9950000  0  8G 3G 8G13G10G19G23G27G28
  -7360894.23048  -5721333.65243  21772566.7104   21772566.1204
       901.6904
 -15290252.25449 -11884241.27046  19946993.0854   19946991.8584
      3797.8844
  -4136755.78549  -3214586.22346  19404344.9374   19404343.0934
       234.6364
  -7248044.09447  -5627565.65643  22088249.6714   22088248.3624
      3224.8184
 -14654435.01248 -11415123.97744  21360346.7184   21360344.0424
      3325.3744
   3739864.85946   2905293.85242  22154131.2574   22154129.2534
     -1457.2374
 -10603026.02349  -8257322.44146  19424583.0074   19424581.3234
      2560.6874
  -7056686.70748  -5480548.84042  22058496.7334   22058494.9524
      5127.6824
 04  9 10 21 57 14.9950000  0  8G 3G 8G13G10G19G23G27G28
  -7374293.29748  -5731774.47343  21770017.3664   21770016.4564
       893.2714
 -15347181.92649 -11928602.03546  19936159.2414   19936158.3864
      3795.3114
  -4140173.76249  -3217249.59446  19403694.9684   19403692.8584
       227.8654
  -7296291.48847  -5665161.03943  22079068.8354   22079068.1834
      3216.4934
 -14704208.79348 -11453908.72744  21350875.3824   21350872.2534
      3318.2524
   3761759.99246   2922354.93042  22158297.5934   22158296.2374
     -1459.6764
 -10641402.79349  -8287226.42246  19417280.2734   19417278.5974
      2558.4514
  -7133562.83648  -5540452.27042  22043867.4374   22043866.2454
      5125.0754
 04  9 10 21 57 29.9950000  0  8G 3G 8G13G10G19G23G27G28
  -7387569.88748  -5742119.85943  21767490.4294   21767490.3784
       885.1064
 -15404076.62149 -11972935.54746  19925332.8664   19925331.3824
      3792.9804
  -4143493.85949  -3219836.69146  19403062.8744   19403061.0234
       221.3404
  -7344417.50047  -5702661.82443  22069910.0774   22069910.9804
      3208.4014
 -14753879.12548 -11492612.84044  21341422.9604   21341420.2844
      3311.3554
   3783687.75047   2939441.40242  22162471.0384   22162469.3744
     -1461.8514
 -10679749.62149  -8317107.06646  19409983.2264   19409981.4374
      2556.4554
  -7210403.35248  -5600327.92243  22029245.1014   22029244.2494
      5122.7014
 04  9 10 21 57 44.9950000  0  8G 3G 8G13G10G19G23G27G28
  -7400722.84848  -5752368.91043  21764987.0464   21764987.0654
       876.8644
 -15460935.29749 -12017240.99246  19914512.9524   19914511.4684
      3790.5784
  -4146715.15249  -3222346.79746  19402449.9134   19402447.9254
       214.7534
  -7392420.75847  -5740066.96543  22060776.1634   22060775.1674
      3200.2174
 -14803444.73848 -11531235.36344  21331991.1714   21331988.3744
      3304.3744
   3805649.20347   2956554.17242  22166649.8124   22166648.8394
     -1464.0974
 -10718065.21149  -8346963.36346  19402691.9444   19402690.1874
      2554.3734
  -7287206.93448  -5660174.80942  22014629.6794   22014629.1984
      5120.2394
 04  9 10 21 57 59.9950000  0  8G 3G 8G13G10G19G23G27G28
  -7413754.37548  -5762523.32843  21762508.1084   21762507.8784
       868.7684
 -15517759.61749 -12061519.67246  19903700.0774   19903698.2574
      3788.2884
  -4149839.62949  -3224781.46946  19401855.3124   19401852.9524
       208.2984
  -7440303.32847  -5777378.03943  22051664.2024   22051663.8864
      3192.1714
 -14852907.34048 -11569777.60544  21322578.9524   21322575.7064
      3297.5074
   3827642.09047   2973691.38742  22170835.1164   22170833.5504
     -1466.1924
 -10756351.68049  -8376796.97746  19395406.3584   19395404.7734
      2552.4314
  -7363975.50048  -5719994.42642  22000021.6244   22000020.6554
      5117.9044
 04  9 10 21 58 14.9950000  0  8G 3G 8G13G10G19G23G27G28
  -7426662.11348  -5772581.30943  21760051.1634   21760051.3554
       860.5164
 -15574547.47749 -12105769.94546  19892893.3434   19892891.7104
      3785.8574
  -4152864.82049  -3227138.77746  19401279.7654   19401277.3824
       201.6794
  -7488062.52047  -5814592.97342  22042575.5464   22042575.9254
      3183.9464
 -14902264.23048 -11608237.47744  21313185.8584   21313183.1014
      3290.4594
   3849668.63347   2990854.87142  22175027.5854   22175024.3664
     -1468.4364
 -10794606.43449  -8406605.86746  19388126.7184   19388125.0034
      2550.3174
  -7440706.36748  -5779784.64843  21985420.4604   21985419.1284
      5115.3914
 04  9 10 21 58 29.9950000  0  8G 3G 8G13G10G19G23G27G28
  -7439446.94547  -5782543.50842  21757619.1484   21757617.5624
       852.3224
 -15631299.31249 -12149992.14546  19882093.6554   19882092.2494
      3783.4564
  -4155791.73849  -3229419.49246  19400722.7574   19400720.7804
       195.1284
  -7535698.92646  -5851712.25443  22033511.1164   22033510.2574
      3175.7604
 -14951515.99648 -11646615.46144  21303813.8124   21303811.1594
      3283.4514
   3871727.86347   3008043.84043  22179225.2184   22179223.2304
     -1470.6154
 -10832830.22749  -8436390.63746  19380852.8434   19380851.1554
      2548.2534
  -7517400.17247  -5839546.00042  21970825.4294   21970824.9014
      5112.9204
 04  9 10 21 58 44.9950000  0  8G 3G 8G13G10G19G23G27G28
  -7452107.12147  -5792408.55542  21755209.5074   21755209.3514
       844.0124
 -15688013.25449 -12194184.82046  19871301.3744   19871299.9724
      3780.9294
  -4158618.59449  -3231622.26246  19400184.7734   19400182.5504
       188.4574
  -7583210.60246  -5888734.30142  22024469.4214   22024467.8944
      3167.4454
 -15000660.35548 -11684909.72344  21294461.8434   21294459.3554
      3276.2914
   3893821.46547   3025259.56642  22183429.1794   22183427.5304
     -1472.9074
 -10871021.21549  -8466149.84447  19373585.3354   19373583.3904
      2546.0664
  -7594054.81247  -5899276.82042  21956237.9294   21956237.3944
      5110.3094
 04  9 10 21 58 59.9950000  0  8G 3G 8G13G10G19G23G27G28
  -7464643.96546  -5802177.53142  21752823.6634   21752823.6324
       835.7904
 -15744690.30549 -12238348.73446  19860516.1324   19860515.1634
      3778.4704
  -4161346.63349  -3233748.01246  19399665.7494   19399663.4094
       181.8694
  -7630598.64846  -5925660.03943  22015451.8354   22015450.6874
      3159.2034
 -15049698.34048 -11723121.11744  21285130.4604   21285127.5974
      3269.1994
   3915947.89147   3042500.85542  22187638.8664   22187637.4134
     -1475.0954
 -10909180.46549  -8495884.31247  19366323.9834   19366321.8234
      2543.9504
  -7670671.32847  -5958977.94943  21941659.2884   21941658.3004
      5107.7684
 04  9 10 21 59 14.9950000  0  8G 3G 8G13G10G19G23G27G28
  -7477058.91047  -5811851.54242  21750460.3824   21750460.6484
       827.6634
 -15801331.85549 -12282484.99646  19849737.7024   19849736.8234
      3776.1034
  -4163977.27749  -3235797.87946  19399164.9994   19399162.8864
       175.3764
  -7677864.24647  -5962490.35543  22006457.5154   22006457.0934
      3151.0404
 -15098631.05948 -11761250.48044  21275818.6714   21275816.2924
      3262.1814
   3938105.76647   3059766.66442  22191856.1164   22191853.6054
     -1477.1924
 -10947309.36749  -8525595.15246  19359068.1634   19359066.2574
      2541.9274
  -7747250.77047  -6018650.18443  21927086.4134   21927085.6834
      5105.2964
 04  9 10 21 59 29.9950000  0  8G 3G 8G13G10G19G23G27G28
  -7489353.33647  -5821431.58642  21748121.0774   21748121.0424
       819.6284
 -15857939.20349 -12326594.60546  19838965.5854   19838963.8704
      3773.8234
  -4166512.01249  -3237773.01646  19398682.4374   19398680.8744
       168.9824
  -7725008.60247  -5999226.24243  21997487.1794   21997486.0464
      3142.9574
 -15147459.65648 -11799298.70344  21266526.8194   21266524.4804
      3255.2404
   3960293.43447   3077055.69942  22196077.9684   22196077.1364
     -1479.1784
 -10985409.10949  -8555283.25847  19351818.1634   19351816.2144
      2539.9834
  -7823794.24647  -6078294.41443  21912520.8984   21912520.3514
      5102.8984
 04  9 10 21 59 44.9950000  0  8G 3G 8G13G10G19G23G27G28
  -7501524.41447  -5830915.52043  21745805.5074   21745805.3554
       811.4054
 -15914509.23849 -12370675.12946  19828200.9294   19828199.1634
      3771.3364
  -4168947.84849  -3239671.07846  19398219.3044   19398217.1754
       162.3894
  -7772028.58647  -6035865.16443  21988538.8274   21988539.5194
      3134.6664
 -15196180.76648 -11837263.16844  21257255.5304   21257252.9294
      3248.0744
   3982513.87146   3094370.27042  22200306.4374   22200304.3394
     -1481.3624
 -11023476.65649  -8584946.27746  19344574.2184   19344572.4404
      2537.8364
  -7900298.74647  -6137908.23043  21897961.6874   21897961.5034
      5100.3004
 04  9 10 21 59 59.9950000  0  8G 3G 8G13G10G19G23G27G28
  -7513573.44947  -5840304.38743  21743512.9374   21743512.7264
       803.2694
 -15971043.12549 -12414727.50046  19817442.7024   19817441.1714
      3768.9264
  -4171285.97349  -3241493.00446  19397774.2964   19397771.9214
       155.8754
  -7818925.13346  -6072407.91043  21979614.7884   21979614.2144
      3126.4364
 -15244795.21548 -11875144.52044  21248004.3354   21248001.9954
      3240.9634
   4004765.60546   3111709.19542  22204540.8434   22204539.2734
     -1483.4494
 -11061513.07849  -8614585.04347  19337335.9524   19337334.4054
      2535.7614
  -7976765.02747  -6197492.27743  21883410.4524   21883410.3984
      5097.7524
 04  9 10 22  0 14.9950000  0  8G 3G 8G13G10G19G23G27G28
  -7525500.42647  -5849598.14543  21741242.7264   21741242.6014
       795.1324
 -16027540.61349 -12458751.49646  19806690.9604   19806689.2884
      3766.4994
  -4173526.35249  -3243238.76646  19397348.2494   19397346.0344
       149.3594
  -7865697.99646  -6108854.28543  21970713.8124   21970713.1054
      3118.1914
 -15293302.76248 -11912942.57444  21238773.7574   21238771.1554
      3233.8364
   4027048.57846   3129072.47742  22208781.7024   22208779.8124
     -1485.5324
 -11099518.24649  -8644199.45747  19330104.0154   19330102.0624
      2533.6784
  -8053192.79347  -6257046.34043  21868866.9684   21868866.6594
      5095.1844
 04  9 10 22  0 29.9950000  0  8G 3G 8G13G10G19G23G27G28
  -7537304.50847  -5858796.13743  21738997.2104   21738996.0934
       786.9394
 -16084000.62949 -12502746.32046  19795947.6164   19795945.6164
      3764.0014
  -4175668.14149  -3244907.70746  19396940.6634   19396938.8314
       142.7864
  -7912346.04746  -6145203.43043  21961836.9444   21961836.5734
      3109.8704
 -15341702.20348 -11950656.40644  21229563.6794   21229560.7334
      3226.6294
   4049363.53546   3146460.68042  22213027.7494   22213026.5854
     -1487.6644
 -11137491.08249  -8673788.68746  19322877.8824   19322876.1794
      2531.5224
  -8129581.03947  -6316569.57443  21854330.9294   21854330.3194
      5092.5504
 04  9 10 22  0 44.9950000  0  8G 3G 8G13G10G19G23G27G28
  -7548988.66447  -5867900.64843  21736773.8584   21736773.1714
       778.9444
 -16140425.75849 -12546713.94546  19785210.6484   19785209.0934
      3761.6754
  -4177714.20749  -3246502.05546  19396551.1244   19396549.1904
       136.4044
  -7958872.16847  -6181457.50843  21952983.4914   21952983.7574
      3101.7414
 -15389996.16448 -11988288.03144  21220373.3124   21220370.5624
      3219.5974
   4071707.45746   3163871.41442  22217279.4914   22217278.5424
     -1489.5954
 -11175434.41449  -8703354.90646  19315657.4684   19315655.4994
      2529.5554
  -8205932.36747  -6376064.07043  21839801.6324   21839801.3084
      5090.0894
 04  9 10 22  0 59.9950000  0  8G 3G 8G13G10G19G23G27G28
  -7560552.05947  -5876911.08243  21734573.1084   21734573.1444
       770.8934
 -16196815.29349 -12590653.81646  19774479.6794   19774479.3154
      3759.3024
  -4179663.73449  -3248021.18446  19396180.1634   19396178.1324
       129.9684
  -8005275.19547  -6217615.69143  21944153.6554   21944153.3864
      3093.5354
 -15438183.44948 -12025836.53944  21211204.2024   21211200.9764
      3212.4864
   4094081.05146   3181305.32042  22221537.5154   22221535.9804
     -1491.5734
 -11213347.32449  -8732897.43046  19308443.0934   19308440.9684
      2527.5274
  -8282245.71548  -6435528.97343  21825279.8514   21825279.0934
      5087.5574
 04  9 10 22  1 14.9950000  0  8G 3G 8G13G10G19G23G27G28
  -7571996.23847  -5885828.64143  21732395.1874   21732395.3274
       762.9454
 -16253170.41049 -12634566.87946  19763755.7574   19763754.8434
      3757.0084
  -4181518.43049  -3249466.40646  19395827.1634   19395825.1554
       123.6464
  -8051556.57847  -6253679.05943  21935346.6164   21935346.2304
      3085.4264
 -15486265.26648 -12063302.86344  21202054.3124   21202051.2224
      3205.4544
   4116482.63746   3198761.02342  22225800.1794   22225799.0654
     -1493.4394
 -11251231.08249  -8762417.23446  19301233.7494   19301232.0584
      2525.5844
  -8358522.32048  -6494965.25443  21810765.1944   21810764.4604
      5085.1074
 04  9 10 22  1 29.9950000  0  8G 3G 8G13G10G19G23G27G28
  -7583321.30948  -5894653.37943  21730240.4444   21730239.6244
       755.0054
 -16309491.23849 -12678453.22346  19753038.0694   19753036.0424
      3754.7224
  -4183278.36349  -3250837.80146  19395492.4294   19395490.6794
       117.3294
  -8097715.98046  -6289647.42642  21926562.1324   21926561.4334
      3077.2934
 -15534241.33648 -12100686.77744  21192924.7104   21192921.6364
      3198.4054
   4138911.99246   3216238.36342  22230067.9134   22230067.6124
     -1495.2904
 -11289085.75849  -8791914.37946  19294030.3824   19294028.7414
      2523.6454
  -8434762.09047  -6554372.82442  21796257.1874   21796255.7374
      5082.6514
 04  9 10 22  1 44.9950000  0  8G 3G 8G13G10G19G23G27G28
  -7594525.91847  -5903384.23443  21728108.0384   21728107.1984
       746.9744
 -16365776.12149 -12722311.57445  19742327.2264   19742325.0544
      3752.3264
  -4184941.90249  -3252134.07846  19395175.8124   19395174.0384
       110.9034
  -8143751.93746  -6325519.60542  21917802.0304   21917801.4804
      3069.0644
 -15582109.84048 -12137986.87944  21183815.2804   21183812.3434
      3191.2344
   4161370.62946   3233738.51242  22234342.4994   22234341.6554
     -1497.2424
 -11326909.76249  -8821387.62547  19286832.7654   19286830.9484
      2521.6004
  -8510963.13347  -6613750.23442  21781756.5304   21781754.7454
      5080.0704
 04  9 10 22  1 59.9950000  0  8G 3G 8G13G10G19G23G27G28
  -7605612.94547  -5912023.47742  21725998.3824   21725997.4254
       739.1354
 -16422027.89549 -12766144.11746  19731622.6164   19731621.7264
      3750.1184
  -4186511.97749  -3253357.52746  19394876.7264   19394875.0034
       104.6724
  -8189666.94147  -6361297.48843  21909064.8514   21909064.9644
      3061.0004
 -15629873.43448 -12175205.24244  21174726.1714   21174723.1514
      3184.2404
   4183855.35546   3251258.99643  22238621.0934   22238620.4994
     -1498.9824
 -11364705.75049  -8850839.04746  19279640.4134   19279638.4134
      2519.7334
  -8587128.16047  -6673099.55942  21767262.4444   21767260.5654
      5077.6684
 04  9 10 22  2 14.9950000  0  8G 3G 8G13G10G19G23G27G28
  -7616580.61747  -5920569.73042  21723911.3274   21723910.5974
       731.1784
 -16478244.58249 -12809949.31646  19720924.9294   19720924.5624
      3747.7794
  -4187986.69549  -3254506.68046  19394596.5074   19394594.6874
        98.3154
  -8235459.03546  -6396979.62143  21900350.8044   21900350.1364
      3052.8064
 -15677529.91048 -12212340.11744  21165657.5304   21165654.9684
      3177.0984
   4206368.04747   3268801.30943  22242905.9764   22242904.5074
     -1500.8464
 -11402471.83249  -8880267.16046  19272453.5694   19272451.6054
      2517.7394
  -8663254.94147  -6732419.10242  21752776.1084   21752773.9804
      5075.1194
 04  9 10 22  2 29.9950000  0  8G 3G 8G13G10G19G23G27G28
  -7627424.83247  -5929019.76243  21721847.1404   21721847.2924
       722.9484
 -16534421.75449 -12853723.71146  19710235.0464   19710234.0304
      3745.1454
  -4189362.08249  -3255578.41846  19394334.5384   19394332.8784
        91.6924
  -8281123.89846  -6432562.62542  21891660.6714   21891660.1944
      3044.3244
 -15725074.88748 -12249388.13744  21156609.6014   21156607.0304
      3169.6654
   4228912.52746   3286368.38343  22247195.6324   22247194.3864
     -1502.9654
 -11440203.69149  -8909668.59847  19265273.6404   19265271.4334
      2515.4574
  -8739339.10247  -6791705.39142  21738297.3584   21738296.5344
      5072.2774
 04  9 10 22  2 44.9950000  0  8G 3G 8G13G10G19G23G27G28
  -7638146.69947  -5937374.48043  21719806.9604   21719807.4564
       714.7914
 -16590560.21949 -12897467.95746  19699552.4834   19699551.1794
      3742.5644
  -4190639.10549  -3256573.51646  19394091.6484   19394089.6244
        85.1354
  -8326662.41446  -6468047.16442  21882995.1164   21882995.3984
      3035.9014
 -15772509.10948 -12286349.83644  21147583.3904   21147580.6054
      3162.2824
   4251487.74247   3303959.36743  22251491.5384   22251490.3234
     -1505.0144
 -11477902.30949  -8939044.14846  19258099.9444   19258097.5624
      2513.2414
  -8815381.52747  -6850959.16842  21723826.5934   21723826.4764
      5069.4954
 04  9 10 22  2 59.9950000  0  8G 3G 8G13G10G19G23G27G28
  -7648747.08647  -5945634.52042  21717789.7494   21717789.8154
       706.6924
 -16646660.59449 -12941182.54346  19688876.5074   19688874.8784
      3740.0254
  -4191818.60949  -3257492.62946  19393867.3194   19393864.9524
        78.6344
  -8372075.11346  -6503433.68042  21874352.9294   21874353.7734
      3027.5134
 -15819832.87148 -12323225.48844  21138577.7494   21138575.2654
      3154.9174
   4274092.78947   3321573.61742  22255793.6634   22255790.8394
     -1507.0034
 -11515568.18049  -8968394.16846  19250932.2804   19250930.0974
      2511.0584
  -8891382.68747  -6910180.78143  21709363.6484   21709363.8044
      5066.7444
 04  9 10 22  3 14.9950000  0  8G 3G 8G13G10G19G23G27G28
  -7659225.24247  -5953799.34042  21715795.6794   21715794.7964
       698.5444
 -16702722.03549 -12984866.76246  19678208.7024   19678207.1204
      3737.4294
  -4192899.79349  -3258335.12146  19393661.4444   19393659.5654
        72.0794
  -8417360.99646  -6538721.37142  21865735.9994   21865735.5814
      3019.0594
 -15867045.19948 -12360014.27044  21129593.4684   21129590.7374
      3147.4894
   4296728.29747   3339211.57843  22260100.8514   22260099.2574
     -1509.0344
 -11553200.50049  -8997718.05547  19243770.8514   19243769.0034
      2508.8214
  -8967341.61347  -6969369.49643  21694910.0234   21694909.4444
      5063.9284
 04  9 10 22  3 29.9950000  0  8G 3G 8G13G10G19G23G27G28
  -7669579.53147  -5961867.61342  21713825.7184   21713824.7964
       690.2864
 -16758742.82049 -13028519.32446  19667548.0774   19667546.8624
      3734.7194
  -4193881.01649  -3259099.72746  19393474.6634   19393472.8234
        65.4154
  -8462518.34446  -6573908.86342  21857142.5074   21857142.1054
      3010.4904
 -15914144.14848 -12396714.73844  21120631.1944   21120628.6404
      3139.9304
   4319395.71947   3356874.44942  22264414.2884   22264412.1404
     -1511.1614
 -11590797.46149  -9027014.37946  19236616.3434   19236614.3904
      2506.4644
  -9043256.29347  -7028523.75043  21680463.9294   21680463.6794
      5060.9794
 04  9 10 22  3 44.9950000  0  8G 3G 8G13G10G19G23G27G28
  -7679809.52047  -5969839.05143  21711879.5544   21711878.7574
       681.9994
 -16814722.19149 -13072139.59446  19656895.6484   19656893.9404
      3731.9584
  -4194761.77049  -3259786.03146  19393307.3194   19393305.0814
        58.7174
  -8507546.27346  -6608995.54342  21848573.9524   21848573.8824
      3001.8624
 -15961128.81648 -12433326.15244  21111690.2264   21111687.5464
      3132.3114
   4342095.55946   3374562.56342  22268733.8434   22268732.1634
     -1513.3234
 -11628358.41449  -9056282.65646  19229468.8514   19229467.1404
      2504.0644
  -9119125.91047  -7087642.87943  21666026.2024   21666026.0654
      5057.9744
 04  9 10 22  3 59.9950000  0  8G 3G 8G13G10G19G23G27G28
  -7689915.84047  -5977714.10242  21709955.7964   21709955.7924
       673.7554
 -16870660.33249 -13115727.75846  19646250.8744   19646249.5814
      3729.2094
  -4195542.63749  -3260394.51246  19393158.5464   19393156.3234
        52.0584
  -8552445.29346  -6643981.79742  21840029.4374   21840030.0344
      2993.2684
 -16007999.53548 -12469848.77344  21102771.0774   21102768.5154
      3124.7154
   4364827.03546   3392275.32442  22273059.5234   22273058.7844
     -1515.4324
 -11665883.64149  -9085523.08646  19222328.1324   19222326.1484
      2501.6824
  -9194950.85248  -7146727.17244  21651597.0464   21651597.6364
      5054.9964
 04  9 10 22  4 14.9950000  0  8G 3G 8G13G10G19G23G27G28
  -7699895.82447  -5985490.70742  21708056.6484   21708056.4834
       665.3324
 -16926554.67249 -13159281.75446  19635614.5694   19635613.5894
      3726.2894
  -4196220.88349  -3260923.02746  19393029.6014   19393027.2804
        45.2164
  -8597212.39146  -6678865.22342  21831511.0934   21831510.7454
      2984.4734
 -16054753.11748 -12506280.12144  21093874.4214   21093871.6904
      3116.9054
   4387592.88746   3410014.84042  22277391.9134   22277390.5654
     -1517.7234
 -11703370.52749  -9114733.64146  19215194.4444   19215192.5504
      2499.1264
  -9270727.99248  -7205774.24244  21637177.1944   21637177.0624
      5051.8094
 04  9 10 22  4 29.9950000  0  8G 3G 8G13G10G19G23G27G28
  -7709749.98447  -5993169.29342  21706181.7104   21706180.7494
       656.9444
 -16982405.64849 -13202801.99246  19624986.5624   19624985.2694
      3723.3984
  -4196797.13349  -3261372.05946  19392919.6714   19392917.8664
        38.4174
  -8641847.96146  -6713646.18042  21823017.2964   21823016.5654
      2975.7054
 -16101389.93748 -12542620.47744  21084999.8434   21084996.7104
      3109.1214
   4410392.28546   3427780.53942  22281730.1484   22281729.0624
     -1519.9604
 -11740819.28149  -9143914.48846  19208068.2804   19208066.2574
      2496.5844
  -9346457.71548  -7264784.37143  21622766.9294   21622765.9484
      5048.6484
 04  9 10 22  4 44.9950000  0  8G 3G 8G13G10G19G23G27G28
  -7719480.85947  -6000751.78942  21704329.8744   21704328.9764
       648.7254
 -17038215.29349 -13246290.02046  19614366.7334   19614365.1714
      3720.6434
  -4197273.86749  -3261743.56646  19392829.7334   19392827.3554
        31.7824
  -8686354.25846  -6748326.40642  21814547.5694   21814546.9254
      2967.0864
 -16147912.14847 -12578871.52044  21076146.2734   21076143.9254
      3101.4814
   4433222.81346   3445570.45742  22286075.3434   22286074.0734
     -1522.0354
 -11778232.33649  -9173067.51646  19200948.5464   19200946.6084
      2494.2044
  -9422142.21147  -7323759.23843  21608364.0854   21608363.6634
      5045.6334
 04  9 10 22  4 59.9950000  0  8G 3G 8G13G10G19G23G27G28
  -7729087.17247  -6008237.23442  21702501.4834   21702501.8864
       640.4214
 -17093982.41449 -13289744.91846  19603754.2654   19603752.0894
      3717.8084
  -4197649.80949  -3262036.51646  19392757.8434   19392755.9604
        25.0634
  -8730729.71947  -6782904.68442  21806103.7334   21806103.5154
      2958.3644
 -16194318.05147 -12615031.93444  21067315.1404   21067313.3274
      3093.7274
   4456085.62146   3463385.56342  22290426.1554   22290424.9174
     -1524.1874
 -11815608.04749  -9202191.44546  19193836.5464   19193834.8904
      2491.7144
  -9497779.82847  -7382697.60243  21593970.3194   21593969.8624
      5042.5084
 04  9 10 22  5 14.9950000  0  8G 3G 8G13G10G19G23G27G28
  -7738564.15248  -6015621.93043  21700698.4914   21700698.2494
       631.7994
 -17149701.88349 -13333162.66446  19593151.2654   19593149.3124
      3714.6314
  -4197919.89549  -3262246.98046  19392706.4134   19392704.6124
        18.0064
  -8774969.37547  -6817377.10242  21797685.4134   21797684.4874
      2949.3104
 -16240602.48048 -12651097.71544  21058508.2804   21058505.8004
      3085.6294
   4478985.46546   3481229.54342  22294783.0234   22294782.4444
     -1526.6564
 -11852941.50049  -9231282.43746  19186732.3824   19186730.2374
      2488.8974
  -9573365.49247  -7441595.45743  21579587.1084   21579586.5584
      5039.0444
 04  9 10 22  5 29.9950000  0  8G 3G 8G13G10G19G23G27G28
  -7747914.75448  -6022908.10543  21698919.4994   21698919.0934
       623.3734
 -17205376.43049 -13376545.41446  19582556.7654   19582555.0464
      3711.6364
  -4198087.02749  -3262377.23046  19392674.5154   19392672.6284
        11.1424
  -8819075.87947  -6851745.80542  21789292.3744   21789291.7804
      2940.4344
 -16286768.10248 -12687070.90644  21049723.3514   21049720.8824
      3077.7084
   4501919.29346   3499099.97742  22299147.5694   22299146.5344
     -1528.9224
 -11890235.52749  -9260342.71546  19179635.3354   19179633.2064
      2486.2684
  -9648901.88746  -7500454.90643  21565212.1554   21565212.3474
      5035.7604
 04  9 10 22  5 44.9950000  0  8G 3G 8G13G10G19G23G27G28
  -7757136.34048  -6030093.77043  21697164.4914   21697163.9484
       614.7724
 -17261003.30549 -13419891.02046  19571970.9134   19571969.7734
      3708.4584
  -4198148.75849  -3262425.34046  19392662.7414   19392660.6204
         4.1154
  -8863046.53947  -6886008.62942  21780924.6714   21780924.2964
      2931.3774
 -16332811.92248 -12722949.19544  21040961.7104   21040958.3554
      3069.5884
   4524889.60546   3516998.83242  22303518.4914   22303517.5154
     -1531.3544
 -11927487.27349  -9289370.04746  19172546.4604   19172544.8984
      2483.4504
  -9724386.04747  -7559273.68443  21550848.0694   21550847.4174
      5032.2774
 04  9 10 22  5 59.9950000  0  8G 3G 8G13G10G19G23G27G28
  -7766227.21948  -6037177.57043  21695434.3904   21695433.5074
       606.0594
 -17316580.56249 -13463197.96946  19561395.0694   19561393.8124
      3705.1514
  -4198103.41049  -3262390.01646  19392671.2734   19392669.3944
        -3.0234
  -8906879.22346  -6920163.98442  21772582.8044   21772582.2414
      2922.1794
 -16378731.85248 -12758730.93044  21032223.8274   21032220.3704
      3061.3294
   4547897.97746   3534927.36342  22307897.1484   22307894.9094
     -1533.8914
 -11964694.90249  -9318363.00846  19165466.1484   19165464.2804
      2480.5094
  -9799815.84847  -7618050.08243  21536494.8824   21536494.1714
      5028.6534
 04  9 10 22  6 14.9950000  0  8G 3G 8G13G10G19G23G27G28
  -7775186.59847  -6044158.94942  21693729.0934   21693728.9724
       597.2924
 -17372107.02349 -13506465.32046  19550828.5854   19550827.4564
      3701.7644
  -4197949.87549  -3262270.39146  19392700.5464   19392698.8784
       -10.2364
  -8950572.93747  -6954211.02742  21764268.0234   21764268.5074
      2912.9144
 -16424526.58647 -12794415.10944  21023508.4294   21023505.8084
      3052.9824
   4570945.43846   3552886.34442  22312282.9214   22312281.0194
     -1536.4974
 -12001857.27349  -9347320.69546  19158394.3194   19158392.1484
      2477.4914
  -9875190.26247  -7676783.35543  21522151.8514   21522150.5654
      5024.9614
 04  9 10 22  6 29.9950000  0  8G 3G 8G13G10G19G23G27G28
  -7784016.94547  -6051039.74242  21692048.9444   21692048.8234
       588.6904
 -17427584.85249 -13549694.79346  19540271.9444   19540270.3514
      3698.5224
  -4197690.65249  -3262068.41046  19392749.5464   19392748.0544
       -17.2824
  -8994129.73447  -6988151.38742  21755980.8664   21755979.5504
      2903.7864
 -16470198.39547 -12830003.52744  21014817.0154   21014814.4604
      3044.7874
   4594029.24246   3570873.62542  22316676.0694   22316674.9174
     -1538.9204
 -12038976.61349  -9376244.84846  19151330.9054   19151328.8984
      2474.6234
  -9950511.39547  -7735475.10943  21507818.5234   21507817.0344
      5021.4094
 04  9 10 22  6 44.9950000  0  8G 3G 8G13G10G19G23G27G28
  -7792717.78947  -6057819.63743  21690393.4294   21690393.1364
       580.0564
 -17483013.59449 -13592886.02046  19529724.0384   19529722.9374
      3695.2494
  -4197325.32849  -3261783.76646  19392819.8354   19392817.7414
       -24.3554
  -9037549.07047  -7021984.61742  21747717.4054   21747716.9484
      2894.6224
 -16515746.46547 -12865495.50044  21006149.5774   21006147.3154
      3036.5384
   4617149.79346   3588889.57042  22321075.6554   22321074.7104
     -1541.3704
 -12076052.32049  -9405135.00846  19144275.5694   19144273.6324
      2471.7144
 -10025778.52048  -7794124.78543  21493495.5154   21493494.4804
      5017.8084
 04  9 10 22  6 59.9950000  0  8G 3G 8G13G10G19G23G27G28
  -7801287.24247  -6064497.13742  21688762.3744   21688762.9994
       571.2974
 -17538391.10249 -13636037.30546  19519185.8354   19519183.9764
      3691.8344
  -4196851.88349  -3261414.85946  19392909.3744   19392907.7494
       -31.5634
  -9080828.80547  -7055709.06242  21739481.5544   21739481.5974
      2885.3164
 -16561168.40247 -12900889.21144  20997506.3354   20997503.9874
      3028.1294
   4640308.97346   3606935.59842  22325482.4214   22325481.7224
     -1543.9454
 -12113082.35949  -9433989.58647  19137228.7804   19137227.1874
      2468.6694
 -10100989.28947  -7852730.53143  21479183.2884   21479182.4764
      5014.0514
 04  9 10 22  7 14.9950000  0  8G 3G 8G13G10G19G23G27G28
  -7809728.46547  -6071074.75842  21687155.6554   21687156.6904
       562.7484
 -17593720.37149 -13679151.01646  19508657.0854   19508655.1014
      3688.6184
  -4196273.71949  -3260964.35246  19393019.7964   19393017.8784
       -38.5444
  -9123971.89148  -7089327.01643  21731272.4604   21731271.3514
      2876.2064
 -16606467.11748 -12936186.88344  20988886.1554   20988884.0734
      3019.9144
   4663503.60546   3625009.23442  22329896.3354   22329895.3744
     -1546.3094
 -12150069.57849  -9462810.79346  19130190.6084   19130188.8864
      2465.8154
 -10176146.60247  -7911294.60543  21464881.5854   21464880.2414
      5010.4884
 04  9 10 22  7 29.9950000  0  8G 3G 8G13G10G19G23G27G28
  -7818039.65646  -6077551.04742  21685574.2574   21685575.0854
       554.0794
 -17648999.26249 -13722225.46146  19498137.7964   19498136.5544
      3685.2594
  -4195588.77349  -3260430.64546  19393150.2494   19393148.0854
       -45.6634
  -9166976.21147  -7122836.87943  21723088.6084   21723087.8154
      2866.9554
 -16651640.33248 -12971386.78144  20980290.6014   20980287.7614
      3011.5484
   4686735.37547   3643111.82842  22334318.1084   22334317.3084
     -1548.7854
 -12187011.99649  -9491597.08246  19123160.4764   19123158.7104
      2462.8284
 -10251248.34448  -7969815.38743  21450589.9604   21450588.6944
      5006.7834
 04  9 10 22  7 44.9950000  0  8G 3G 8G13G10G19G23G27G28
  -7826221.74246  -6083926.74242  21684016.7734   21684017.2494
       545.4724
 -17704228.49649 -13765261.21546  19487628.1554   19487626.2184
      3681.9494
  -4194797.88349  -3259814.37546  19393300.6634   19393298.2534
       -52.7264
  -9209842.48047  -7156239.16042  21714931.4374   21714930.3124
      2857.7514
 -16696688.66047 -13006489.34044  20971717.3744   20971714.9564
      3003.2224
   4710003.44946   3661242.70342  22338745.3194   22338745.0194
     -1551.2054
 -12223910.43749  -9520349.10946  19116138.9444   19116137.2144
      2459.8964
 -10326295.05547  -8028293.28943  21436309.3124   21436307.4014
      5003.1144
 04  9 10 22  7 59.9950000  0  8G 3G 8G13G10G19G23G27G28
  -7834274.15246  -6090201.35242  21682484.8904   21682484.8314
       536.8274
 -17759407.21149 -13808257.61746  19477127.9834   19477126.2804
      3678.5814
  -4193900.41849  -3259115.05946  19393471.3124   19393469.1794
       -59.8314
  -9252569.94147  -7189533.28942  21706800.2804   21706800.5234
      2848.4974
 -16741611.19947 -13041493.88344  20963169.4294   20963165.7064
      2994.8364
   4733308.14146   3679402.11742  22343180.1244   22343179.2374
     -1553.6464
 -12260763.96149  -9549066.13346  19109126.2184   19109124.1674
      2456.9024
 -10401285.92647  -8086727.64843  21422038.4764   21422037.8004
      4999.3914
 04  9 10 22  8 14.9950000  0  8G 3G 8G13G10G19G23G27G28
  -7842195.72746  -6096374.03142  21680977.1794   21680978.0934
       528.1054
 -17814534.14149 -13851213.62946  19466637.7264   19466636.0234
      3675.1294
  -4192895.18749  -3258331.78546  19393662.6944   19393660.3314
       -67.0154
  -9295157.08647  -7222718.08642  21698696.7414   21698695.9684
      2839.1434
 -16786406.37948 -13076399.21944  20954645.0854   20954641.7844
      2986.3454
   4756650.61746   3697591.00842  22347621.6244   22347621.3624
     -1556.1654
 -12297571.14549  -9577747.05546  19102121.8824   19102120.0814
      2453.8124
 -10476219.34448  -8145117.28143  21407779.6634   21407778.2064
      4995.5614
 04  9 10 22  8 29.9950000  0  8G 3G 8G13G10G19G23G27G28
  -7849988.94146  -6102446.68042  21679495.3744   21679494.7494
       519.5484
 -17869611.43449 -13894131.00446  19456156.8044   19456155.8744
      3671.8204
  -4191784.73049  -3257466.50046  19393874.0234   19393871.8904
       -74.0304
  -9337606.34448  -7255795.37942  21690618.8904   21690617.3704
      2829.9514
 -16831076.46547 -13111207.05944  20946144.3664   20946142.1164
      2978.0064
   4780028.20346   3715807.24242  22352071.1634   22352070.1754
     -1558.5064
 -12334334.51249  -9606393.83646  19095125.7964   19095124.0194
      2450.8914
 -10551097.63748  -8203463.96543  21393530.9374   21393529.0694
      4991.8864
 04  9 10 22  8 44.9950000  0  8G 3G 8G13G10G19G23G27G28
  -7857655.03547  -6108420.28942  21678036.2264   21678036.0114
       511.0734
 -17924639.99649 -13937010.38746  19445685.0234   19445683.9564
      3668.5714
  -4190570.10949  -3256520.05146  19394105.2494   19394103.4914
       -80.9754
  -9379918.56247  -7288765.92642  21682566.7804   21682565.8154
      2820.8154
 -16875622.13747 -13145917.94544  20937667.9604   20937664.3904
      2969.7114
   4803439.89546   3734050.05142  22356525.0934   22356525.5584
     -1560.7794
 -12371054.73849  -9635006.98446  19088138.3274   19088136.5734
      2448.0154
 -10625921.60548  -8261768.30543  21379291.9214   21379290.6164
      4988.2654
 04  9 10 22  8 59.9950000  0  8G 3G 8G13G10G19G23G27G28
  -7865195.44947  -6114295.92242  21676601.7804   21676600.8194
       502.6944
 -17979620.96149 -13979852.68746  19435222.5234   19435221.4444
      3665.3984
  -4189252.72349  -3255493.52746  19394355.9604   19394354.1204
       -87.8264
  -9422094.95747  -7321630.64542  21674541.3354   21674540.6674
      2811.7604
 -16920044.48847 -13180532.74644  20929214.1874   20929211.4564
      2961.4904
   4826884.14845   3752318.17242  22360986.6554   22360987.3124
     -1562.9504
 -12407733.25849  -9663587.65646  19081158.7884   19081156.7144
      2445.2354
 -10700692.32047  -8320031.14143  21365062.5624   21365062.4604
      4984.7144
 04  9 10 22  9 14.9940000  0  8G 3G 8G13G10G19G23G27G28
  -7872609.82447  -6120073.36342  21675191.4554   21675188.5924
       494.2924
 -18034550.56649 -14022654.95746  19424769.7834   19424768.3814
      3661.9744
  -4187832.62549  -3254386.97346  19394626.1434   19394624.1864
       -94.6734
  -9464132.49248  -7354387.16842  21666541.7524   21666541.2564
      2802.5024
 -16964340.29747 -13215048.93444  20920785.2684   20920782.2014
      2953.0544
   4850359.16846   3770610.29742  22365455.3154   22365452.3544
     -1565.0014
 -12444367.36749  -9692133.71146  19074187.6504   19074185.8114
      2442.2744
 -10775404.52747  -8378248.37543  21350845.3384   21350845.0764
      4980.8144
 04  9 10 22  9 29.9940000  0  8G 3G 8G13G10G19G23G27G28
  -7879899.86747  -6125753.90642  21673803.5024   21673802.1744
       486.0034
 -18089436.92249 -14065423.55146  19414325.4404   19414323.7174
      3659.0904
  -4186310.50849  -3253200.93046  19394915.5494   19394913.6904
      -101.4744
  -9506037.36748  -7387040.32843  21658567.8854   21658566.8264
      2793.6584
 -17008515.97347 -13249471.52044  20912378.7684   20912375.9044
      2945.0454
   4873867.25447   3788928.23042  22369928.6904   22369926.2014
     -1567.2064
 -12480962.61349  -9720649.47746  19067223.8304   19067221.6194
      2439.6834
 -10850068.64147  -8436428.15643  21336637.4004   21336636.9004
      4977.6084
 04  9 10 22  9 44.9940000  0  8G 3G 8G13G10G19G23G27G28
  -7887062.19546  -6131334.94942  21672441.3934   21672440.4004
       477.4894
 -18144273.08649 -14108153.00846  19403890.4084   19403888.6194
      3655.7444
  -4184683.53549  -3251933.16446  19395225.3074   19395223.1234
      -108.4654
  -9547803.56648  -7419585.42642  21650619.4084   21650618.6584
      2784.4134
 -17052565.14547 -13283795.53144  20903996.7684   20903993.4404
      2936.6114
   4897409.82046   3807272.99242  22374408.3154   22374407.1354
     -1569.5044
 -12517513.21549  -9749130.46946  19060268.3224   19060266.3184
      2436.7074
 -10924676.33647  -8494563.97343  21322440.1274   21322439.8264
      4973.8464
 04  9 10 22  9 59.9940000  0  8G 3G 8G13G10G19G23G27G28
  -7894100.57447  -6136819.41842  21671101.0104   21671101.2054
       469.2254
 -18199062.64849 -14150846.17246  19393464.0804   19393462.4754
      3652.6374
  -4182955.40249  -3250586.58646  19395554.4084   19395551.9204
      -115.2094
  -9589434.78548  -7452025.31643  21642697.7214   21642696.4754
      2775.4154
 -17096491.31247 -13318023.68744  20895637.8694   20895635.5574
      2928.4114
   4920982.88746   3825641.53142  22378894.2754   22378893.5414
     -1571.5384
 -12554022.94149  -9777579.59846  19053320.6584   19053318.7364
      2433.9824
 -10999231.17647  -8552658.59843  21308252.8464   21308252.8224
      4970.3234
 04  9 10 22 10 14.9940000  0  8G 3G 8G13G10G19G23G27G28
  -7901014.07846  -6142206.58242  21669785.6744   21669785.3614
       460.9004
 -18253804.53949 -14193502.17646  19383047.3074   19383045.5574
      3649.4594
  -4181125.10949  -3249160.39146  19395902.4714   19395900.6274
      -122.0204
  -9630929.82048  -7484359.10543  21634801.4554   21634800.3614
      2766.3364
 -17140293.34048 -13352155.10944  20887302.9864   20887299.7324
      2920.1354
   4944587.31647   3844034.50042  22383386.4324   22383384.6624
     -1573.6294
 -12590490.62149  -9805995.96946  19046381.2054   19046379.1234
      2431.1794
 -11073731.99247  -8610711.11743  21294075.5964   21294075.4984
      4966.7214
 04  9 10 22 10 29.9940000  0  8G 3G 8G13G10G19G23G27G28
  -7907802.77747  -6147496.48042  21668493.5964   21668493.0334
       452.5804
 -18308498.27749 -14236120.66846  19372639.5334   19372637.8854
      3646.2494
  -4179192.71949  -3247654.64546  19396270.1274   19396268.2134
      -128.8264
  -9672288.43747  -7516586.59042  21626931.1744   21626929.9084
      2757.2414
 -17183970.70748 -13386189.39144  20878990.8384   20878987.7404
      2911.8244
   4968223.14146   3862451.94542  22387883.5024   22387882.5764
     -1575.7224
 -12626916.06249  -9834379.42246  19039449.6824   19039447.6704
      2428.3634
 -11148178.46947  -8668721.28943  21279908.6114   21279908.8304
      4963.0984
 04  9 10 22 10 44.9940000  0  8G 3G 8G13G10G19G23G27G28
  -7914468.66047  -6152690.69543  21667225.6194   21667225.2014
       444.3924
 -18363145.85249 -14278703.17246  19362240.4794   19362238.4794
      3643.1724
  -4177160.16449  -3246070.85246  19396657.0334   19396655.0804
      -135.5044
  -9713512.30947  -7548709.08642  21619085.7134   21619085.7324
      2748.2584
 -17227525.07848 -13420127.83644  20870702.8154   20870699.5334
      2903.6254
   4991888.31346   3880892.26642  22392387.0184   22392385.6434
     -1577.6784
 -12663300.96149  -9862731.30146  19032525.9794   19032523.8504
      2425.6604
 -11222572.16047  -8726690.35243  21265752.3384   21265751.1864
      4959.5794
 04  9 10 22 10 59.9940000  0  8G 3G 8G13G10G19G23G27G28
  -7921010.75846  -6157788.44542  21665980.0254   21665979.8934
       436.1404
 -18417745.98849 -14321248.73846  19351850.2834   19351848.3114
      3640.0094
  -4175026.31249  -3244408.12146  19397063.2684   19397061.5104
      -142.2574
  -9754600.32047  -7580725.71942  21611267.1194   21611266.9754
      2739.2014
 -17270955.15648 -13453969.44944  20862438.1974   20862435.0764
      2895.3394
   5015583.75445   3899356.14842  22396896.7294   22396895.3424
     -1579.6964
 -12699644.08649  -9891050.61746  19025610.0184   19025608.1314
      2422.8754
 -11296911.77347  -8784617.28143  21251605.6114   21251604.5764
      4955.9744
 04  9 10 22 11 14.9940000  0  7G 3G 8G13G10G19G27G28
  -7927431.84847  -6162791.90642  21664758.7294   21664758.0534
       428.0734
 -18472301.23449 -14363759.30546  19341468.9714   19341467.3974
      3637.0164
  -4172794.08249  -3242668.74246  19397487.9404   19397486.2994
      -148.8154
  -9795555.03547  -7612638.48443  21603473.8384   21603472.8774
      2730.3144
 -17314263.45747 -13487716.16444  20854197.0414   20854194.1194
      2887.2204
 -12735948.09849  -9919339.45346  19018701.5254   19018699.4204
      2420.2674
 -11371199.91848  -8842504.08643  21237469.3154   21237468.4904
      4952.5434
 04  9 10 22 11 29.9940000  0  7G 3G 8G13G10G19G27G28
  -7933729.31247  -6167699.05543  21663560.4084   21663560.0144
       419.8314
 -18526808.64849 -14406232.60246  19331096.3854   19331095.1274
      3633.8284
  -4170460.71949  -3240850.54746  19397931.7994   19397930.0224
      -155.5584
  -9836373.58247  -7644445.13743  21595706.4474   21595705.8934
      2721.2364
 -17357446.93748 -13521365.60244  20845979.3774   20845976.5064
      2878.8994
 -12772210.07849  -9947595.53546  19011800.9554   19011798.9434
      2417.4654
 -11445433.44148  -8900348.35243  21223343.2684   21223342.5804
      4948.9024
 04  9 10 22 11 44.9940000  0  7G 3G 8G13G10G19G27G28
  -7939902.55547  -6172509.41043  21662385.1114   21662385.6664
       411.5494
 -18581267.27749 -14448667.89546  19320733.0964   19320731.7364
      3630.5754
  -4168025.48849  -3238952.97746  19398395.4164   19398393.1864
      -162.3494
  -9877055.09048  -7676145.00043  21587965.7214   21587965.1234
      2712.1014
 -17400504.58648 -13554917.00044  20837785.4324   20837782.0964
      2870.5104
 -12808429.10249  -9975818.15646  19004908.9004   19004906.6354
      2414.6024
 -11519611.45348  -8958149.35243  21209228.0334   21209226.9434
      4945.2014
 04  9 10 22 11 59.9940000  0  7G 3G 8G13G10G19G27G28
  -7945949.61346  -6177221.39542  21661234.5654   21661234.5684
       403.1374
 -18635675.19549 -14491063.65246  19310379.3464   19310377.9944
      3627.1954
  -4165486.39149  -3236974.48046  19398878.8304   19398876.4474
      -169.2734
  -9917597.39548  -7707736.39543  21580250.4404   21580249.4714
      2702.8204
 -17443434.03148 -13588368.48844  20829616.7604   20829612.8464
      2861.9634
 -12844603.12149 -10004005.69946  18998024.7754   18998023.2834
      2411.6014
 -11593731.64148  -9015905.30943  21195122.7444   21195121.5684
      4941.3464
 04  9 10 22 12 14.9940000  0  7G 3G 8G13G10G19G27G28
  -7951870.69946  -6181835.23043  21660107.9004   21660107.6004
       394.7394
 -18690032.29349 -14533419.82046  19300035.4864   19300034.1474
      3623.8074
  -4162843.71549  -3234915.25446  19399381.1824   19399379.5764
      -176.1784
  -9958000.51647  -7739219.34442  21572561.6904   21572560.7134
      2693.5414
 -17486235.21148 -13621720.04344  20821471.8854   20821468.5724
      2853.4124
 -12880731.93049 -10032158.02346  18991150.1584   18991148.1624
      2408.5874
 -11667793.87948  -9073616.10943  21181029.4554   21181028.2644
      4937.4834
 04  9 10 22 12 29.9940000  0  7G 3G 8G13G10G19G27G28
  -7957666.80146  -6186351.70342  21659005.0104   21659004.6154
       386.4074
 -18744338.97349 -14575736.71546  19289701.3544   19289700.3614
      3620.4454
  -4160098.36749  -3232776.04746  19399903.9164   19399901.7914
      -183.0234
  -9998265.19547  -7770594.41442  21564899.2994   21564898.1824
      2684.3124
 -17528908.80948 -13654972.17244  20813350.9634   20813348.1234
      2844.9074
 -12916816.52049 -10060275.87546  18984283.3464   18984281.3894
      2405.6394
 -11741798.87148  -9131282.29343  21166946.8154   21166945.6074
      4933.6664
 04  9 10 22 12 44.9940000  0  7G 3G 8G13G10G19G27G28
  -7963336.76246  -6190769.83242  21657925.5414   21657925.7254
       377.9974
 -18798594.08649 -14618013.41446  19279377.0334   19279375.7724
      3617.0084
  -4157249.01249  -3230555.77746  19400445.9244   19400443.9634
      -189.9574
 -10038389.88747  -7801860.40243  21557264.4084   21557262.7724
      2674.9794
 -17571453.08248 -13688123.54344  20805255.0724   20805252.3774
      2836.2854
 -12952855.20749 -10088357.96547  18977425.3934   18977423.4404
      2402.5794
 -11815744.94948  -9188902.56243  21152875.4004   21152874.3034
      4929.7394
 04  9 10 22 12 59.9940000  0  7G 3G 8G13G10G19G27G28
  -7968883.21947  -6195091.81242  21656870.3774   21656870.2644
       369.7644
 -18852799.79749 -14660251.61346  19269061.7914   19269060.6004
      3613.7144
  -4154298.30149  -3228256.52745  19401007.2994   19401005.5534
      -196.7144
 -10078377.10947  -7833019.25443  21549654.3384   21549654.1744
      2665.8154
 -17613870.43448 -13721176.00044  20797183.9634   20797180.3154
      2827.8234
 -12988850.51249 -10116406.25846  18970575.9084   18970573.9284
      2399.6874
 -11889634.50848  -9246478.79343  21138813.7914   21138813.6744
      4925.9714
 04  9 10 22 13 14.9940000  0  7G 3G 8G13G10G19G27G28
  -7974306.04346  -6199317.38342  21655838.6194   21655838.6974
       361.5224
 -18906955.84049 -14702451.12546  19258756.6584   19258755.2794
      3610.4034
  -4151245.96149  -3225878.10246  19401588.0884   19401586.8614
      -203.4894
 -10118226.36747  -7864070.61343  21542071.4794   21542071.4554
      2656.6174
 -17656160.21947 -13754129.05144  20789136.1584   20789132.8574
      2819.3194
 -13024801.97349 -10144420.37946  18963734.4634   18963732.3464
      2396.7644
 -11963466.96148  -9304010.53543  21124764.1744   21124763.3974
      4922.1644
 04  9 10 22 13 29.9940000  0  7G 3G 8G13G10G19G27G28
  -7979605.23046  -6203446.64842  21654830.1824   21654830.0804
       353.2794
 -18961061.86349 -14744611.64846  19248460.3224   19248459.5064
      3607.0684
  -4148092.12549  -3223420.58246  19402188.6584   19402186.6934
      -210.2564
 -10157937.53546  -7895014.35943  21534514.7294   21534514.3934
      2647.4114
 -17698322.24648 -13786982.57444  20781112.8074   20781110.0724
      2810.8024
 -13060709.46549 -10172400.24646  18956901.5254   18956899.5494
      2393.8334
 -12037242.16847  -9361497.63743  21110724.8934   21110724.1004
      4918.3474
 04  9 10 22 13 44.9940000  0  7G 3G 8G13G10G19G27G28
  -7984781.26646  -6207479.94942  21653844.9084   21653845.1434
       345.0694
 -19015118.35249 -14786733.56646  19238173.7754   19238172.7134
      3603.7664
  -4144837.26649  -3220884.34045  19402807.8854   19402805.7604
      -216.9914
 -10197510.84846  -7925850.71942  21526984.4634   21526983.2054
      2638.2214
 -17740356.70348 -13819736.68444  20773113.4324   20773111.2834
      2802.2974
 -13096573.21149 -10200346.02046  18950076.9634   18950074.8344
      2390.9164
 -12110960.22747  -9418940.24243  21096696.5334   21096696.1004
      4914.5374
 04  9 10 22 13 59.9940000  0  7G 3G 8G13G10G19G27G28
  -7989831.45747  -6211415.16042  21652884.5334   21652883.8264
       336.6794
 -19069122.44549 -14828814.67246  19227896.9404   19227895.2094
      3600.2734
  -4141478.46949  -3218267.11746  19403447.1194   19403445.0184
      -223.9204
 -10236943.35546  -7956577.33642  21519480.4634   21519479.9944
      2628.8344
 -17782260.33648 -13852388.84444  20765140.4634   20765137.5684
      2793.5764
 -13132390.22749 -10228255.38746  18943260.9474   18943259.1434
      2387.8014
 -12184618.00847  -9476335.86343  21082680.0724   21082679.7954
      4910.5194
 04  9 10 22 14 14.9940000  0  7G 3G 8G13G10G19G27G28
  -7994761.04347  -6215256.42242  21651946.5724   21651945.8504
       328.6394
 -19123078.85249 -14870858.62146  19217629.8694   19217627.8774
      3597.0944
  -4138021.11749  -3215573.07846  19404105.0494   19404103.2134
      -230.4904
 -10276240.18046  -7987198.22343  21512002.4794   21512001.6664
      2619.7884
 -17824038.28148 -13884943.06244  20757190.1974   20757187.2324
      2785.1964
 -13168165.52349 -10256132.23446  18936453.4634   18936451.4794
      2385.0204
 -12258220.53548  -9533688.41843  21068674.2684   21068673.6114
      4906.8354
 04  9 10 22 14 29.9940000  0  7G 3G 8G13G10G19G27G28
  -7999571.75847  -6219005.00842  21651030.6824   21651030.2564
       320.7144
 -19176989.08649 -14912866.57846  19207370.9634   19207369.6314
      3594.0164
  -4134466.55149  -3212803.31245  19404781.5654   19404779.4824
      -236.9714
 -10315402.52047  -8017714.33643  21504550.3464   21504550.1934
      2610.8234
 -17865691.73048 -13917400.29744  20749263.6434   20749260.5294
      2776.8974
 -13203900.48449 -10283977.65646  18929653.1274   18929651.1234
      2382.3314
 -12331768.88748  -9590998.77043  21054678.9164   21054677.9594
      4903.2234
 04  9 10 22 14 44.9940000  0  7G 3G 8G13G10G19G27G28
  -8004266.22347  -6222663.05542  21650137.7294   21650137.3114
       312.9644
 -19230855.28549 -14954840.21546  19197120.5254   19197119.0574
      3591.0804
  -4130817.62949  -3209960.01246  19405476.0184   19405474.1004
      -243.2614
 -10354433.09847  -8048127.76242  21497122.7294   21497122.5024
      2602.0394
 -17907223.00848 -13949762.30944  20741360.5024   20741357.6274
      2768.7524
 -13239597.52049 -10311793.52746  18922860.0254   18922858.3504
      2379.8024
 -12405265.55148  -9648268.85944  21040692.8384   21040692.1824
      4899.7784
 04  9 10 22 14 59.9940000  0  7G 3G 8G13G10G19G27G28
  -8008839.64547  -6226226.76242  21649266.4004   21649267.0764
       304.8954
 -19284672.47749 -14996775.69146  19186879.4084   19186877.7684
      3587.8134
  -4127069.34849  -3207039.28546  19406189.2754   19406187.5224
      -249.8854
 -10393326.72747  -8078434.46542  21489721.0254   21489720.8814
      2592.9094
 -17948626.82048 -13982024.98844  20733481.7754   20733478.6044
      2760.2544
 -13275251.56249 -10339575.89146  18916075.4324   18916073.8934
      2376.9364
 -12478705.28148  -9705494.59044  21026718.1664   21026716.9124
      4895.9824
 04  9 10 22 15 14.9940000  0  7G 3G 8G13G10G19G27G28
  -8013293.09848  -6229696.99243  21648420.3694   21648419.8344
       296.8974
 -19338441.65649 -15038673.73846  19176647.3854   19176645.8224
      3584.6124
  -4123222.89849  -3204042.06645  19406921.1194   19406919.3544
      -256.4304
 -10432084.26647  -8108635.16042  21482346.0104   21482345.2254
      2583.8364
 -17989903.99248 -14014189.00844  20725626.9794   20725623.9714
      2751.8114
 -13310863.59049 -10367325.53546  18909298.7754   18909296.9554
      2374.1354
 -12552089.00848  -9762676.65243  21012753.1504   21012752.5454
      4892.2484
 04  9 10 22 15 29.9940000  0  7G 3G 8G13G10G19G27G28
  -8017627.91848  -6233074.77342  21647595.1744   21647594.8934
       288.9884
 -19392163.68049 -15080535.04346  19166424.1744   19166422.7724
      3581.4684
  -4119279.39549  -3200969.21546  19407671.2364   19407669.8654
      -262.9004
 -10470706.85547  -8138730.64843  21474996.3154   21474995.8154
      2574.8394
 -18031055.45348 -14046255.06244  20717795.7294   20717792.8654
      2743.4314
 -13346434.45349 -10395043.08246  18902529.7834   18902527.7644
      2371.3914
 -12625417.53148  -9819815.71943  20998799.5254   20998798.2324
      4888.5684
 04  9 10 22 15 44.9940000  0  7G 3G 8G13G10G19G27G28
  -8021845.17248  -6236360.94542  21646792.8854   21646792.0184
       281.1504
 -19445839.72749 -15122360.51646  19156210.1504   19156209.1004
      3578.4034
  -4115239.92249  -3197821.59446  19408440.4634   19408438.5764
      -269.2984
 -10509195.23446  -8168721.58642  21467672.4944   21467671.8424
      2565.8924
 -18072081.94548 -14078223.73844  20709988.8224   20709985.2794
      2735.0994
 -13381965.03549 -10422729.23846  18895768.3774   18895766.6394
      2368.7054
 -12698691.65648  -9876912.40243  20984856.1194   20984853.7484
      4884.9424
 04  9 10 22 15 59.9940000  0  7G 3G 8G13G10G19G27G28
  -8025944.90247  -6239555.56242  21646011.6584   21646012.4824
       273.3154
 -19499469.46549 -15164149.91846  19146004.7994   19146003.4634
      3575.3164
  -4111104.60549  -3194599.28546  19409227.2134   19409225.1154
      -275.6884
 -10547549.31247  -8198607.87542  21460374.1584   21460373.2604
      2556.9394
 -18112983.28948 -14110094.90644  20702205.7214   20702202.4084
      2726.7564
 -13417455.24649 -10450383.95346  18889014.8934   18889012.9634
      2366.0144
 -12771911.15248  -9933966.55543  20970922.4164   20970920.0574
      4881.3004
 04  9 10 22 16 14.9940000  0  7G 3G 8G13G10G19G27G28
  -8029925.73847  -6242657.53142  21645254.4404   21645254.3504
       265.3894
 -19553050.85249 -15205901.64146  19135808.7524   19135807.0654
      3572.0924
  -4106871.67249  -3191300.89845  19410032.5494   19410031.0254
      -282.1964
 -10585767.34046  -8228388.15242  21453102.0254   21453100.9514
      2547.8684
 -18153757.55948 -14141867.04744  20694446.5334   20694443.9204
      2718.2854
 -13452903.21949 -10478005.75846  18882269.5024   18882267.8464
      2363.1984
 -12845074.09848  -9990976.60243  20957000.1044   20956998.1544
      4877.5304
 04  9 10 22 16 29.9940000  0  7G 3G 8G13G10G19G27G28
  -8033791.34447  -6245669.71542  21644519.3934   21644518.6114
       257.7074
 -19606587.43749 -15247618.44946  19125620.8154   19125619.2014
      3569.1064
  -4102544.93449  -3187929.43045  19410856.0804   19410853.7134
      -288.4494
 -10623852.87947  -8258065.16842  21445853.6274   21445853.9754
      2539.0364
 -18194408.09848 -14173542.79344  20686711.1584   20686708.3694
      2710.0364
 -13488312.48049 -10505597.38346  18875531.3694   18875529.5654
      2360.6174
 -12918183.84848 -10047945.20743  20943087.9004   20943084.9324
      4873.9834
 04  9 10 22 16 44.9940000  0  7G 3G 8G13G10G19G27G28
  -8037538.92247  -6248589.90242  21643805.1274   21643805.9204
       249.8394
 -19660076.32449 -15289298.08646  19115442.2134   19115441.0024
      3565.9264
  -4098121.55549  -3184482.66046  19411698.0254   19411695.7054
      -294.8924
 -10661802.88346  -8287636.61742  21438632.1434   21438631.7094
      2530.0004
 -18234931.83648 -14205119.70344  20678999.6434   20678996.1704
      2701.5834
 -13523679.92249 -10533156.42246  18868801.0724   18868799.5024
      2357.8294
 -12991237.30948 -10104869.95343  20929186.0494   20929183.4714
      4870.2314
 04  9 10 22 16 59.9940000  0  7G 3G 8G13G10G19G27G28
  -8041170.72746  -6251419.90242  21643114.7444   21643114.7604
       242.1204
 -19713519.52749 -15330942.13346  19105272.3774   19105271.1004
      3562.8804
  -4093603.66449  -3180962.23845  19412557.3384   19412555.3694
      -301.1934
 -10699619.36747  -8317104.00842  21431436.1114   21431434.4164
      2521.0994
 -18275330.65248 -14236599.28544  20671311.7754   20671308.3854
      2693.2544
 -13559007.49649 -10560684.40246  18862078.5334   18862076.8854
      2355.1724
 -13064236.30948 -10161752.25043  20915294.0574   20915292.6974
      4866.6004
 04  9 10 22 17 14.9940000  0  7G 3G 8G13G10G19G27G28
  -8044687.23447  -6254160.04342  21642445.4084   21642445.2364
       234.4344
 -19766916.76249 -15372550.35546  19095111.1194   19095109.3304
      3559.8164
  -4088991.80949  -3177368.60245  19413435.0574   19413433.5764
      -307.4574
 -10737302.48047  -8346467.44942  21424265.1044   21424264.6664
      2512.2084
 -18315604.56648 -14267981.52744  20663647.7214   20663644.7994
      2684.9284
 -13594295.45349 -10588181.50847  18855363.4404   18855361.5064
      2352.5304
 -13137180.96148 -10218592.19543  20901413.2684   20901412.3464
      4862.9774
 04  9 10 22 17 29.9940000  0  7G 3G 8G13G10G19G27G28
  -8048089.87547  -6256811.46542  21641797.6904   21641797.7754
       226.8434
 -19820269.59449 -15414123.97746  19084958.8854   19084957.1314
      3556.8554
  -4084287.28149  -3173702.74645  19414330.3614   19414328.7214
      -313.6354
 -10774853.55547  -8375728.01642  21417119.8224   21417118.9404
      2503.4054
 -18355754.69948 -14299267.32444  20656007.4634   20656004.2364
      2676.6764
 -13629545.03549 -10615648.71546  18848655.7134   18848653.7724
      2349.9724
 -13210072.35248 -10275390.62543  20887543.0184   20887541.4004
      4859.4264
 04  9 10 22 17 44.9940000  0  7G 3G 8G13G10G19G27G28
  -8051376.41447  -6259372.44142  21641172.8224   21641173.1544
       219.1034
 -19873575.41449 -15455660.96546  19074814.8074   19074813.2604
      3553.7214
  -4079487.76649  -3169962.88345  19415243.5884   19415241.7754
      -319.9684
 -10812270.09847  -8404883.74243  21409999.4944   21409998.7994
      2494.4364
 -18395778.52348 -14330454.70744  20648391.3934   20648387.3464
      2668.2554
 -13664753.58249 -10643083.94146  18841955.5024   18841953.7174
      2347.2364
 -13282908.00048 -10332145.64144  20873682.9404   20873681.4434
      4855.7104
 04  9 10 22 17 59.9940000  0  7G 3G 8G13G10G19G27G28
  -8054548.54747  -6261844.25842  21640569.9164   21640569.2684
       211.4764
 -19926835.76249 -15497162.55146  19064679.8544   19064678.5884
      3550.6904
  -4074594.85249  -3166150.24245  19416174.9004   19416173.0184
      -326.1944
 -10849553.60247  -8433935.80942  21402904.3934   21402903.8574
      2485.5674
 -18435677.26648 -14361544.60544  20640798.9554   20640795.5654
      2659.9164
 -13699922.61749 -10670488.38346  18835263.2444   18835261.3974
      2344.6024
 -13355689.04348 -10388858.10544  20859832.9714   20859831.8614
      4852.0704
 04  9 10 22 18 14.9940000  0  7G 3G 8G13G10G19G27G28
  -8057606.10547  -6264226.76642  21639987.5574   21639987.2364
       203.8374
 -19980050.05949 -15538628.21546  19054553.1744   19054551.6664
      3547.6204
  -4069608.41049  -3162264.72345  19417123.8694   19417121.8814
      -332.4294
 -10886703.59847  -8462883.84843  21395834.6354   21395834.6074
      2476.6664
 -18475450.42248 -14392536.65644  20633230.2294   20633226.9164
      2651.5444
 -13735051.70349 -10697861.69146  18828578.4794   18828576.4324
      2341.9394
 -13428415.07448 -10445527.68744  20845993.2754   20845992.4244
      4848.4024
 04  9 10 22 18 29.9940000  0  7G 3G 8G13G10G19G27G28
  -8060549.47747  -6266520.32842  21639427.6114   21639427.7524
       196.2254
 -20033218.26249 -15580057.97346  19044435.6044   19044433.8894
      3544.5474
  -4064528.87149  -3158306.64545  19418090.4404   19418088.4824
      -338.6364
 -10923720.36348  -8491728.09443  21388791.4944   21388790.1434
      2467.7844
 -18515098.03548 -14423430.89144  20625685.1114   20625681.9864
      2643.1744
 -13770140.82049 -10725203.85946  18821901.0654   18821898.9474
      2339.2744
 -13501086.20748 -10502154.49243  20832164.5884   20832163.2644
      4844.7424
 04  9 10 22 18 44.9940000  0  7G 3G 8G13G10G19G27G28
  -8063375.05147  -6268722.07842  21638889.4474   21638890.3504
       188.3724
 -20086336.55149 -15621448.84846  19034327.8774   19034326.3154
      3541.2194
  -4059352.37549  -3154273.03145  19419075.4244   19419073.5724
      -345.1004
 -10960600.04347  -8520465.48043  21381773.0104   21381772.9124
      2458.6454
 -18554616.22348 -14454224.25844  20618165.1114   20618162.8974
      2634.5464
 -13805186.16049 -10752511.91446  18815232.1504   18815230.2914
      2336.3564
 -13573698.34848 -10558735.35544  20818346.8304   20818345.4754
      4840.8094
 04  9 10 22 18 59.9940000  0  7G 3G 8G13G10G19G27G28
  -8066081.12147  -6270830.71542  21638375.2214   21638374.9554
       180.4054
 -20139402.94549 -15662799.27346  19024229.2524   19024227.4554
      3537.7604
  -4054077.22349  -3150162.53945  19420079.3544   19420077.6624
      -351.6774
 -10997340.68047  -8549094.51642  21374781.4794   21374781.1474
      2449.3764
 -18594002.86348 -14484915.14144  20610669.9794   20610667.1434
      2625.7764
 -13840185.77049 -10779784.34046  18808572.0414   18808570.2444
      2333.3074
 -13646249.46548 -10615268.65644  20804540.7994   20804539.7294
      4836.7414
 04  9 10 22 19 14.9940000  0  7G 3G 8G13G10G19G27G28
  -8068671.42247  -6272849.15242  21637882.2994   21637881.4044
       172.6874
 -20192420.85549 -15704111.91846  19014140.5574   19014138.5144
      3534.5274
  -4048707.16449  -3145978.10245  19421100.7754   19421099.5224
      -358.0044
 -11033945.83247  -8577617.99642  21367816.1434   21367814.3304
      2440.3434
 -18633261.34048 -14515506.14144  20603199.4324   20603196.0614
      2617.2324
 -13875143.16849 -10807023.86346  18801919.9554   18801918.1044
      2330.4934
 -13718742.98448 -10671757.08644  20790746.1274   20790745.5064
      4832.9014
 04  9 10 22 19 29.9940000  0  7G 3G 8G13G10G19G27G28
  -8071145.02047  -6274776.64143  21637410.9634   21637410.7564
       164.9074
 -20245389.16449 -15745385.93046  19004060.9944   19004059.2014
      3531.2214
  -4043241.23449  -3141718.94946  19422141.6354   19422139.6704
      -364.3954
 -11070414.05148  -8606034.80143  21360876.2524   21360875.7014
      2431.2154
 -18672390.27047 -14545996.19544  20595753.7524   20595750.4674
      2608.5954
 -13910056.87549 -10834229.35246  18795276.0184   18795274.2214
      2327.5804
 -13791177.50848 -10728199.53144  20776962.6114   20776961.2754
      4828.9684
 04  9 10 22 19 44.9940000  0  7G 3G 8G13G10G19G27G28
  -8073503.45348  -6276614.40242  21636962.4864   21636962.4284
       157.2294
 -20298309.07849 -15786622.21146  18993990.4864   18993989.8034
      3527.9944
  -4037680.76249  -3137386.13345  19423199.3854   19423197.3224
      -370.6984
 -11106746.82048  -8634346.05143  21353962.1044   21353962.4554
      2422.1854
 -18711390.95748 -14576386.33644  20588332.0654   20588329.2564
      2600.0464
 -13944928.33249 -10861401.91046  18788640.1354   18788638.2954
      2324.7644
 -13863554.21948 -10784596.92244  20763189.2914   20763187.8694
      4825.1144
 04  9 10 22 19 59.9940000  0  7G 3G 8G13G10G19G27G28
  -8075745.19948  -6278361.23842  21636536.2684   21636535.1784
       149.4504
 -20351178.77049 -15827819.35546  18983929.9864   18983928.6434
      3524.6464
  -4032024.32049  -3132978.52345  19424275.8384   19424274.3464
      -377.0964
 -11142942.51648  -8662550.48043  21347074.6504   21347073.8544
      2413.0464
 -18750261.59448 -14606675.13344  20580935.3464   20580932.2404
      2591.3764
 -13979755.78549 -10888540.18746  18782012.4864   18782010.7524
      2321.8304
 -13935871.29748 -10840947.87144  20749427.9084   20749426.6314
      4821.1394
 04  9 10 22 20 14.9940000  0  7G 3G 8G13G10G19G27G28
  -8077872.14548  -6280018.59442  21636130.8464   21636130.2994
       141.7964
 -20403999.88349 -15868978.65246  18973878.0494   18973876.4944
      3521.4084
  -4026273.60549  -3128497.46545  19425370.0184   19425368.8654
      -383.3814
 -11179002.75048  -8690649.37142  21340212.1114   21340211.3934
      2404.0164
 -18789003.68748 -14636863.77044  20573562.8154   20573559.8774
      2582.8064
 -14014540.75849 -10915645.35946  18775393.1274   18775391.2994
      2318.9984
 -14008130.22348 -10897253.49244  20735677.1974   20735675.7684
      4817.2624
 04  9 10 22 20 29.9940000  0  7G 3G 8G13G10G19G27G28
  -8079885.96147  -6281587.79342  21635747.5804   21635746.8654
       134.2544
 -20456774.02749 -15910101.36346  18963835.6824   18963833.4984
      3518.2764
  -4020430.43449  -3123944.36345  19426482.0254   19426480.3734
      -389.5454
 -11214929.12947  -8718643.94542  21333375.2054   21333374.5884
      2395.0924
 -18827618.52047 -14666953.23444  20566214.9324   20566211.7604
      2574.3224
 -14049284.82449 -10942718.65246  18768781.7754   18768780.0804
      2316.2714
 -14080332.51648 -10953514.99643  20721937.5104   20721936.3224
      4813.4864
 04  9 10 22 20 44.9940000  0  7G 3G 8G13G10G19G27G28
  -8081785.91047  -6283068.26242  21635386.2054   21635385.7754
       126.6634
 -20509499.58649 -15951186.20346  18953802.2914   18953800.5144
      3515.0374
  -4014493.82849  -3119318.46945  19427611.5884   19427609.8184
      -395.7744
 -11250720.40648  -8746533.27343  21326565.7524   21326564.4124
      2386.0854
 -18866104.93447 -14696942.63344  20558890.7214   20558887.8934
      2565.7614
 -14083986.71949 -10969759.09046  18762178.3224   18762176.1114
      2313.4604
 -14152476.82448 -11009731.30143  20708208.4634   20708206.8264
      4809.6214
 04  9 10 22 20 59.9940000  0  7G 3G 8G13G10G19G27G28
  -8083573.33247  -6284461.05942  21635046.4714   21635045.9554
       119.1614
 -20562177.75849 -15992234.12146  18943777.7604   18943776.7994
      3511.8784
  -4008464.99649  -3114620.68745  19428759.0024   19428756.9754
      -401.9224
 -11286377.75446  -8774318.20343  21319779.1354   21319779.6544
      2377.1574
 -18904463.87547 -14726832.69944  20551591.1824   20551588.5574
      2557.2634
 -14118647.39849 -10996767.40646  18755582.2604   18755580.2294
      2310.7124
 -14224564.03548 -11065903.09443  20694490.6744   20694489.1154
      4805.8144
 04  9 10 22 21 14.9940000  0  7G 3G 8G13G10G19G27G28
  -8085249.18447  -6285766.90642  21634726.6974   21634726.4594
       111.7234
 -20614809.34449 -16033245.73846  18933762.4474   18933760.4404
      3508.7724
  -4002344.85949  -3109851.75845  19429923.5494   19429921.7564
      -408.0094
 -11321901.92246  -8801999.35542  21313019.4404   21313018.6664
      2368.2784
 -18942695.98447 -14756623.94544  20544316.4864   20544313.2524
      2548.8074
 -14153267.65649 -11023744.23046  18748994.4474   18748992.6004
      2308.0174
 -14296594.89548 -11122030.99643  20680783.6504   20680782.2794
      4802.0574
 04  9 10 22 21 29.9940000  0  7G 3G 8G13G10G19G27G28
  -8086814.78947  -6286986.87942  21634429.0654   21634427.9514
       104.3744
 -20667395.32849 -16074221.83246  18923756.0574   18923754.2404
      3505.7324
  -3996134.80149  -3105012.77045  19431105.7994   19431103.8344
      -414.0044
 -11357293.95747  -8829577.57842  21306284.7604   21306283.7364
      2359.4694
 -18980802.32447 -14786317.18044  20537064.8224   20537061.6234
      2540.4234
 -14187848.47349 -11050690.31646  18742414.0024   18742411.7364
      2305.3884
 -14368570.35548 -11178115.73443  20667087.1974   20667086.1784
      4798.3644
 04  9 10 22 21 44.9940000  0  7G 3G 8G13G10G19G27G28
  -8088270.77347  -6288121.43742  21634151.8384   21634151.0574
        97.0664
 -20719935.89149 -16115162.50446  18913757.3544   18913756.1664
      3502.7044
  -3989835.39549  -3100104.16445  19432304.4004   19432302.3774
      -419.9604
 -11392554.35948  -8857053.19143  21299575.4404   21299574.1624
      2350.6934
 -19018782.96948 -14815912.47744  20529836.9324   20529834.1274
      2532.0434
 -14222390.21549 -11077605.96546  18735841.0724   18735838.8774
      2302.7834
 -14440490.66848 -11234157.49644  20653401.8224   20653400.0144
      4794.6884
 04  9 10 22 21 59.9930000  0  7G 3G 8G13G10G19G27G28
  -8089619.77347  -6289172.63342  21633895.5674   21633894.7394
        89.9334
 -20772430.10249 -16156067.08646  18903768.3334   18903766.9114
      3499.6144
  -3983449.61349  -3095128.24245  19433519.1304   19433517.3844
      -425.7194
 -11427683.20747  -8884426.33242  21292890.0214   21292889.5994
      2341.9234
 -19056637.91447 -14845409.83644  20522633.5134   20522630.6464
      2523.6634
 -14256893.00449 -11104491.25446  18729275.1144   18729273.1854
      2300.1864
 -14512353.29749 -11290154.34444  20639727.2394   20639724.8024
      4790.8424
 04  9 10 22 22 14.9930000  0  7G 3G 8G13G10G19G27G28
  -8090859.75047  -6290138.84442  21633659.0054   21633658.1614
        82.6654
 -20824882.52049 -16196939.09046  18893786.8884   18893785.7164
      3496.8284
  -3976974.44549  -3090082.68045  19434751.7324   19434749.9034
      -431.6784
 -11462682.91447  -8911698.83243  21286229.9664   21286229.5324
      2333.3144
 -19094369.67248 -14874811.18744  20515453.3724   20515450.4034
      2515.4514
 -14291358.94149 -11131347.82446  18722716.4584   18722714.3064
      2297.7294
 -14584165.35548 -11346111.75444  20626061.5834   20626059.3684
      4787.4714
 04  9 10 22 22 29.9930000  0  7G 3G 8G13G10G19G27G28
  -8091990.36747  -6291019.80542  21633443.7474   21633443.4504
        75.3744
 -20877289.05149 -16237775.34446  18883814.4274   18883812.5284
      3493.7694
  -3970410.05149  -3084967.58245  19436000.8644   19435999.0644
      -437.6264
 -11497550.61348  -8938868.48842  21279595.1464   21279593.8884
      2324.5134
 -19131975.19548 -14904114.19144  20508297.3804   20508294.5134
      2507.0354
 -14325785.30949 -11158173.55946  18716165.6384   18716163.7284
      2295.0914
 -14655921.52748 -11402025.62944  20612406.6534   20612405.0564
      4783.7454
 04  9 10 22 22 44.9930000  0  7G 3G 8G13G10G19G27G28
  -8093014.50447  -6291817.88742  21633250.0054   21633249.1184
        68.2764
 -20929652.13749 -16278577.74246  18873849.7474   18873848.0604
      3490.8724
  -3963759.07849  -3079785.03145  19437266.6074   19437264.6924
      -443.3984
 -11532288.99647  -8965937.34442  21272984.3334   21272983.2244
      2315.8924
 -19169456.90248 -14933320.71944  20501164.8174   20501161.5404
      2498.7804
 -14360174.57849 -11184970.39546  18709621.0284   18709619.2204
      2292.6184
 -14727624.10548 -11457897.73844  20598762.4194   20598760.4504
      4780.1724
 04  9 10 22 22 59.9930000  0  7G 3G 8G13G10G19G27G28
  -8093928.81247  -6292530.34442  21633076.5284   21633075.5054
        60.9544
 -20981968.21149 -16319343.50846  18863894.1854   18863892.3964
      3487.7384
  -3957018.18049  -3074532.39545  19438549.3414   19438547.3294
      -449.3934
 -11566894.32847  -8992902.55143  21266399.0914   21266398.4854
      2307.0224
 -19206811.05948 -14962427.83244  20494056.6144   20494053.6734
      2490.2774
 -14394522.97349 -11211735.37546  18703085.1384   18703083.2084
      2289.8934
 -14799269.44948 -11513725.25444  20585128.3414   20585126.6614
      4776.3564
 04  9 10 22 23 14.9930000  0  7G 3G 8G13G10G19G27G28
  -8094731.57847  -6293155.87142  21632922.4894   21632922.3334
        53.5184
 -21034235.34849 -16360071.14146  18853948.3414   18853947.4074
      3484.4764
  -3950185.48448  -3069208.23845  19439849.3804   19439847.6964
      -455.5134
 -11601364.85247  -9019762.68443  21259839.4274   21259838.9584
      2298.0354
 -19244035.65648 -14991434.00444  20486972.9504   20486970.1654
      2481.6404
 -14428828.67249 -11238467.08246  18696556.8334   18696554.8024
      2287.0474
 -14870855.48448 -11569506.53943  20571505.4974   20571503.9504
      4772.4024
 04  9 10 22 23 29.9930000  0  7G 3G 8G13G10G19G27G28
  -8095425.46547  -6293696.56642  21632790.8024   21632790.5874
        46.2594
 -21086455.78148 -16400762.37546  18844011.0444   18844009.6304
      3481.3624
  -3943263.76648  -3063814.70745  19441166.1774   19441164.6854
      -461.4484
 -11635702.89147  -9046519.62543  21253305.3334   21253305.0754
      2289.2034
 -19281133.01248 -15020341.03144  20479913.5834   20479910.8414
      2473.1574
 -14463093.97349 -11265167.32046  18690036.5994   18690034.5714
      2284.3534
 -14942384.57448 -11625243.44944  20557894.4824   20557892.8144
      4768.6064
 04  9 10 22 23 44.9930000  0  7G 3G 8G13G10G19G27G28
  -8096012.03147  -6294153.66842  21632679.2474   21632679.3334
        39.1044
 -21138630.69949 -16441418.15646  18834082.6384   18834080.6574
      3478.3284
  -3936254.45348  -3058352.92245  19442500.4744   19442498.6074
      -467.2874
 -11669909.80547  -9073174.35242  21246795.9194   21246795.2284
      2280.4614
 -19318104.25048 -15049149.77344  20472878.3334   20472874.9824
      2464.7494
 -14497320.08249 -11291837.01646  18683523.6924   18683521.3104
      2281.7414
 -15013857.79348 -11680936.83644  20544293.3254   20544291.8534
      4764.8814
 04  9 10 22 23 59.9930000  0  7G 3G 8G13G10G19G27G28
  -8096491.63747  -6294527.39842  21632588.2164   21632587.6304
        31.9744
 -21190760.18448 -16482038.52746  18824162.7784   18824161.0014
      3475.2994
  -3929157.75848  -3052823.04345  19443850.6074   19443848.7904
      -473.1134
 -11703985.70747  -9099726.99243  21240310.8804   21240310.2284
      2271.7274
 -19354949.36748 -15077860.23844  20465866.7784   20465863.2514
      2456.3414
 -14531506.92649 -11318476.11346  18677017.8024   18677015.9274
      2279.1234
 -15085275.06248 -11736586.62944  20530703.1924   20530701.7004
      4761.1514
 04  9 10 22 24 14.9930000  0  7G 3G 8G13G10G19G27G28
  -8096863.10247  -6294816.87542  21632517.9824   21632517.3414
        24.7644
 -21242842.55149 -16522622.18446  18814252.0674   18814250.1964
      3472.1584
  -3921972.52348  -3047224.18445  19445218.0604   19445216.5214
      -479.0164
 -11737929.17648  -9126176.46543  21233852.6304   21233851.8254
      2262.8984
 -19391666.86348 -15106471.27344  20458879.7004   20458876.2824
      2447.8334
 -14565653.10549 -11345083.53146  18670520.2164   18670517.7124
      2276.4124
 -15156634.94948 -11792191.67244  20517123.3804   20517122.6034
      4757.3264
 04  9 10 22 24 29.9930000  0  7G 3G 8G13G10G19G27G28
  -8097129.74647  -6295024.65242  21632466.3724   21632466.5134
        17.7764
 -21294880.94948 -16563171.57046  18804349.0444   18804347.2354
      3469.2274
  -3914702.07848  -3041558.93045  19446601.7394   19446599.9974
      -484.6964
 -11771743.48448  -9152525.27743  21227418.3494   21227416.4194
      2254.2874
 -19428259.84847 -15134985.27744  20451916.2084   20451913.5284
      2439.5324
 -14599761.78949 -11371661.72746  18664029.3334   18664027.3144
      2273.9124
 -15227940.46148 -11847754.35543  20503554.3724   20503552.8994
      4753.7014
 04  9 10 22 24 44.9930000  0  7G 3G 8G13G10G19G27G28
  -8097291.34847  -6295150.56642  21632435.2634   21632435.5874
        10.7734
 -21346874.87148 -16603686.30946  18794454.8104   18794453.2084
      3466.2614
  -3907346.09048  -3035827.00445  19448001.7004   19447999.8214
      -490.3994
 -11805428.00448  -9178772.92643  21221007.8334   21221007.4114
      2245.6354
 -19464727.69148 -15163401.77344  20444976.2394   20444973.6104
      2431.1904
 -14633832.33649 -11398210.19546  18657545.8964   18657543.8294
      2271.3704
 -15299191.00448 -11903274.23043  20489995.3964   20489994.0014
      4750.0364
 04  9 10 22 24 59.9930000  0  7G 3G 8G13G10G19G27G28
  -8097345.96547  -6295193.16042  21632425.0914   21632425.5134
         3.6414
 -21398822.11348 -16644164.67246  18784569.9354   18784568.0484
      3463.1494
  -3899902.48848  -3030026.82045  19449418.2084   19449416.2244
      -496.2404
 -11838980.75448  -9204917.96143  21214622.8024   21214621.9934
      2236.8504
 -19501068.18448 -15191719.03944  20438061.2164   20438058.1534
      2422.6994
 -14667862.55549 -11424727.24246  18651070.4824   18651067.8254
      2268.6814
 -15370384.18048 -11958749.39543  20476448.3104   20476446.1344
      4746.2124
 04  9 10 22 25 14.9930000  0  7G 3G 8G13G10G19G27G28
  -8097296.57047  -6295154.68443  21632434.2244   21632434.3724
        -3.2934
 -21450725.18748 -16684608.63346  18774692.7084   18774691.3964
      3460.2054
  -3892374.18448  -3024160.61745  19450850.5674   19450848.4934
      -501.8874
 -11872404.47747  -9230962.40643  21208262.2244   21208261.8174
      2228.2484
 -19537283.83648 -15219939.03544  20431169.9824   20431166.2354
      2414.3774
 -14701854.94149 -11451214.82046  18644601.8964   18644599.7744
      2266.1594
 -15441522.62948 -12014181.93443  20462911.0834   20462908.9394
      4742.5634
 04  9 10 22 25 29.9930000  0  7G 3G 8G13G10G19G27G28
  -8097141.34448  -6295033.73043  21632464.8334   21632464.4784
       -10.3484
 -21502581.94148 -16725016.47746  18764824.7554   18764823.8574
      3457.1174
  -3884759.42648  -3018227.06245  19452299.4274   19452298.1264
      -507.6514
 -11905697.16047  -9256904.77343  21201926.5364   21201926.6924
      2219.5124
 -19573372.55147 -15248060.10244  20424301.6534   20424298.5794
      2405.9144
 -14735807.55549 -11477671.40646  18638140.9274   18638138.8534
      2263.5084
 -15512604.07048 -12069570.04743  20449385.1854   20449382.6814
      4738.7634
 04  9 10 22 25 44.9930000  0  7G 3G 8G13G10G19G27G28
  -8096881.93448  -6294831.59843  21632514.2714   21632513.9624
       -17.2944
 -21554393.87549 -16765389.40246  18754965.6074   18754963.7904
      3454.1294
  -3877059.67648  -3012227.27345  19453764.7944   19453763.2204
      -513.3174
 -11938860.01248  -9282745.95743  21195616.5754   21195616.6734
      2210.8574
 -19609335.43747 -15276083.10544  20417458.5134   20417455.3494
      2397.5264
 -14769721.61749 -11504097.93746  18631687.0994   18631685.3174
      2260.9384
 -15583629.73848 -12124914.69944  20435869.2164   20435867.5174
      4735.0454
 04  9 10 22 25 59.9930000  0  7G 3G 8G13G10G19G27G28
  -8096514.99648  -6294545.68043  21632583.4274   21632583.3574
       -24.4624
 -21606157.21549 -16805724.46946  18745115.1144   18745113.4584
      3450.8894
  -3869271.58248  -3006158.64545  19455246.9744   19455245.4074
      -519.2064
 -11971889.58247  -9308483.29343  21189331.5214   21189330.0834
      2201.9714
 -19645168.87948 -15304005.27744  20410639.9034   20410636.4504
      2388.8964
 -14803593.43749 -11530491.56646  18625241.3644   18625239.7004
      2258.1214
 -15654595.93048 -12180212.99644  20422364.7944   20422363.1424
      4731.0794
 04  9 10 22 26 14.9930000  0  7G 3G 8G13G10G19G27G28
  -8096041.98848  -6294177.10943  21632673.1854   21632673.3884
       -31.5344
 -21657873.23449 -16846022.65646  18735273.9664   18735272.0484
      3447.7354
  -3861396.73448  -3000022.42245  19456745.4894   19456743.5914
      -524.9904
 -12004787.35547  -9334117.91043  21183070.9354   21183069.8104
      2193.1854
 -19680874.30548 -15331827.68044  20403845.7244   20403841.7744
      2380.3624
 -14837424.30149 -11556853.27346  18618803.6464   18618801.5644
      2255.3914
 -15725504.02748 -12235466.02044  20408871.6694   20408869.8104
      4727.2074
 04  9 10 22 26 29.9930000  0  7G 3G 8G13G10G19G27G28
  -8095462.73047  -6293725.75442  21632783.7864   21632783.5754
       -38.6174
 -21709541.37149 -16886283.53946  18725441.9664   18725440.0284
      3444.5424
  -3853434.77349  -2993818.31245  19458260.3724   19458258.7904
      -530.7974
 -12037552.66047  -9359649.30542  21176835.6854   21176835.3024
      2184.3544
 -19716450.84048 -15359549.64844  20397075.3804   20397072.1814
      2371.7694
 -14871213.57449 -11583182.58246  18612373.6074   18612371.9504
      2252.6184
 -15796353.21948 -12290673.16044  20395389.3254   20395387.5564
      4723.2794
 04  9 10 22 26 44.9930000  0  7G 3G 8G13G10G19G27G28
  -8094775.80547  -6293190.52042  21632914.4274   21632913.7084
       -45.7954
 -21761159.82849 -16926505.70346  18715619.1854   18715617.8994
      3441.2304
  -3845384.01249  -2987545.01245  19459792.6224   19459790.6694
      -536.7174
 -12070183.93048  -9385076.24642  21170626.6774   21170626.1964
      2175.4184
 -19751896.88748 -15387169.93044  20390329.7394   20390327.1104
      2363.0704
 -14904959.55549 -11609478.14546  18605952.1224   18605950.3684
      2249.7324
 -15867141.86348 -12345833.10944  20381918.0364   20381916.3174
      4719.2434
 04  9 10 22 26 59.9930000  0  7G 3G 8G13G10G19G27G28
  -8093983.17647  -6292572.89142  21633065.2714   21633064.9974
       -52.8424
 -21812730.18749 -16966690.38747  18705805.6774   18705804.4234
      3438.0244
  -3837246.29348  -2981203.95745  19461341.3804   19461339.4354
      -542.5154
 -12102682.93448  -9410400.14142  21164441.9664   21164440.2784
      2166.6004
 -19787213.94148 -15414689.70344  20383609.0284   20383606.4624
      2354.4704
 -14938663.75049 -11635741.16046  18599538.8724   18599536.8334
      2246.9464
 -15937871.34448 -12400946.93444  20368458.7084   20368457.2354
      4715.2994
 04  9 10 22 27 14.9930000  0  7G 3G 8G13G10G19G27G28
  -8093086.75447  -6291874.38742  21633235.8964   21633236.2674
       -59.7614
 -21864254.17249 -17006838.93046  18696000.8964   18695999.4394
      3434.9324
  -3829023.70349  -2974796.76645  19462905.7474   19462904.0244
      -548.1734
 -12135051.43747  -9435622.37142  21158282.4274   21158281.9354
      2157.9004
 -19822403.75448 -15442110.34044  20376913.1774   20376910.4544
      2345.9884
 -14972328.01249 -11661973.04346  18593132.4354   18593130.4504
      2244.2844
 -16008543.33648 -12456015.98844  20355009.9584   20355008.8294
      4711.4664
 04  9 10 22 27 29.9930000  0  7G 3G 8G13G10G19G27G28
  -8092084.71947  -6291093.61342  21633427.0674   21633426.6104
       -66.8024
 -21915729.33649 -17046949.44146  18686205.3414   18686203.7944
      3431.6784
  -3820714.37149  -2968321.97345  19464487.3414   19464485.8174
      -553.9554
 -12167287.33648  -9460741.27743  21152148.4664   21152147.5564
      2149.0604
 -19857464.13748 -15469430.11344  20370241.1774   20370238.2634
      2337.3594
 -15005950.18449 -11688172.14146  18586734.1774   18586732.2124
      2241.4784
 -16079155.54348 -12511038.45344  20341573.8254   20341572.1894
      4707.4804
 04  9 10 22 27 44.9930000  0  7G 3G 8G13G10G19G27G28
  -8090978.21547  -6290231.39542  21633637.0914   21633637.0954
       -73.7674
 -21967156.59449 -17087022.62146  18676419.3644   18676417.9114
      3428.4844
  -3812319.22349  -2961780.32445  19466084.5604   19466083.1774
      -559.6774
 -12199391.58647  -9485757.59042  21146039.0134   21146038.0564
      2140.2834
 -19892395.80948 -15496649.60244  20363593.9504   20363590.6304
      2328.7784
 -15039530.87949 -11714338.92246  18580344.1694   18580342.0404
      2238.7134
 -16149708.76648 -12566014.93444  20328147.6304   20328146.2714
      4703.5484
 04  9 10 22 27 59.9930000  0  7G 3G 8G13G10G19G27G28
  -8089767.68447  -6289288.14542  21633867.3964   21633868.1854
       -80.7024
 -22018536.34049 -17127058.78146  18666642.0284   18666640.7784
      3425.3164
  -3803838.82449  -2955172.24645  19467698.2394   19467697.0914
      -565.3604
 -12231364.54347  -9510671.57043  21139954.4274   21139953.5754
      2131.5304
 -19927199.00448 -15523768.94544  20356971.1384   20356967.7044
      2320.2134
 -15073070.41049 -11740473.61346  18573961.7164   18573959.7864
      2235.9694
 -16220203.32048 -12620945.71544  20314732.2244   20314731.2514
      4699.6374
 04  9 10 22 28 14.9930000  0  7G 3G 8G13G10G19G27G28
  -8088453.28147  -6288263.96542  21634117.7784   21634118.4784
       -87.6274
 -22069868.26249 -17167057.66846  18656873.9744   18656872.1574
      3422.1284
  -3795273.28549  -2948497.81245  19469328.3104   19469327.1574
      -571.0364
 -12263206.05148  -9535483.13742  21133895.2864   21133895.4664
      2122.7674
 -19961873.42247 -15550787.95344  20350372.4894   20350369.3764
      2311.6284
 -15106568.50849 -11766576.03146  18567587.2394   18567585.5674
      2233.2074
 -16290638.77049 -12675830.43044  20301329.7244   20301327.7084
      4695.6974
 04  9 10 22 28 29.9930000  0  7G 3G 8G13G10G19G27G28
  -8087034.69147  -6287158.55942  21634388.1614   21634386.7084
       -94.5734
 -22121151.49649 -17207018.64546  18647114.9744   18647112.9464
      3418.8824
  -3786622.00049  -2941756.58245  19470974.8024   19470973.2434
      -576.7524
 -12294915.52747  -9560191.83242  21127861.4744   21127860.0244
      2113.9654
 -19996418.36348 -15577706.09444  20343799.2864   20343795.8964
      2302.9964
 -15140024.55549 -11792645.68446  18561220.7394   18561219.0284
      2230.4034
 -16361014.29349 -12730668.48844  20287937.3724   20287934.9584
      4691.7024
 04  9 10 22 28 44.9930000  0  7G 3G 8G13G10G19G27G28
  -8085513.74647  -6285973.44142  21634677.5914   21634675.3684
      -101.3964
 -22172387.55949 -17246942.82446  18637365.3644   18637363.2284
      3415.7384
  -3777886.74249  -2934949.91045  19472636.9974   19472635.8294
      -582.3514
 -12326494.74248  -9584799.00442  21121852.3024   21121850.8454
      2105.2814
 -20030835.43748 -15604524.56644  20337249.9354   20337246.7984
      2294.4724
 -15173440.02049 -11818683.71546  18554862.1224   18554860.1344
      2227.6984
 -16431331.46548 -12785461.08244  20274556.6924   20274554.2434
      4687.8114
 04  9 10 22 28 59.9930000  0  7G 3G 8G13G10G19G27G28
  -8083890.61346  -6284708.64142  21634985.1144   21634985.2124
      -108.2094
 -22223576.47349 -17286830.27746  18627624.3174   18627622.6104
      3412.5944
  -3769067.72749  -2928077.96945  19474315.0914   19474314.0214
      -587.9344
 -12357943.57047  -9609304.60242  21115867.2634   21115866.3764
      2096.5894
 -20065124.43048 -15631243.26644  20330724.8644   20330721.6384
      2285.9334
 -15206814.76649 -11844689.99646  18548511.2714   18548508.9934
      2224.9834
 -16501590.10248 -12840208.02744  20261186.5524   20261184.7124
      4683.9094
 04  9 10 22 29 14.9930000  0  7G 3G 8G13G10G19G27G28
  -8082165.09846  -6283364.11742  21635314.7474   21635314.0054
      -115.0344
 -22274717.81249 -17326680.66046  18617892.4744   18617890.5954
      3409.4234
  -3760164.84849  -2921140.68045  19476009.5284   19476007.8414
      -593.5254
 -12389261.66448  -9633708.31242  21109907.3724   21109906.9584
      2087.8734
 -20099284.87548 -15657861.77344  20324224.0214   20324221.2674
      2277.3634
 -15240148.19549 -11870664.10546  18542168.0284   18542165.9424
      2222.2294
 -16571789.57048 -12894908.87144  20247827.8804   20247826.3254
      4679.9654
 04  9 10 22 29 29.9930000  0  7G 3G 8G13G10G19G27G28
  -8080338.95746  -6281941.18442  21635661.5214   21635660.8604
      -121.7434
 -22325812.74649 -17366494.89547  18608169.3104   18608167.4744
      3406.3294
  -3751179.63349  -2914139.23445  19477719.5994   19477717.7044
      -599.0144
 -12420450.58648  -9658011.40242  21103972.9034   21103971.9234
      2079.2614
 -20133318.01648 -15684381.10544  20317747.9354   20317745.0134
      2268.8764
 -15273441.93749 -11896607.27746  18535832.5284   18535830.6694
      2219.5834
 -16641931.27048 -12949564.68444  20234480.2634   20234478.5794
      4676.1134
 04  9 10 22 29 44.9930000  0  7G 3G 8G13G10G19G27G28
  -8078412.19547  -6280439.80942  21636028.8804   21636026.8254
      -128.4514
 -22376860.93749 -17406272.68747  18598455.3644   18598452.9894
      3403.2134
  -3742112.12549  -2907073.66445  19479444.8644   19479443.2864
      -604.5014
 -12451510.10548  -9682213.60243  21098062.7944   21098062.0214
      2070.6354
 -20167223.69148 -15710801.11344  20311295.2784   20311293.0244
      2260.3784
 -15306695.53949 -11922519.17646  18529504.8644   18529502.5134
      2216.9074
 -16712014.83248 -13004175.21544  20221143.9664   20221141.9894
      4672.2384
 04  9 10 22 29 59.9930000  0  7G 3G 8G13G10G19G27G28
  -8076385.39147  -6278860.47742  21636414.7394   21636412.9074
      -135.1204
 -22427862.79749 -17446014.39146  18588749.8494   18588748.3844
      3400.1244
  -3732962.69149  -2899944.26245  19481186.1224   19481184.2634
      -609.9624
 -12482440.63347  -9706315.30943  21092176.0604   21092176.2674
      2062.0354
 -20201002.14548 -15737121.96544  20304867.5834   20304865.0754
      2251.8974
 -15339909.18049 -11948399.93747  18523184.0134   18523181.9074
      2214.2434
 -16782040.43049 -13058740.59044  20207818.9274   20207816.4854
      4668.3734
 04  9 10 22 30 14.9930000  0  7G 3G 8G13G10G19G27G28
  -8074260.52347  -6277204.75442  21636818.5134   21636817.9704
      -141.6584
 -22478819.87949 -17485721.19546  18579053.0994   18579051.8764
      3397.1394
  -3723733.23049  -2892752.48845  19482942.3024   19482940.4074
      -615.2974
 -12513243.82048  -9730317.80543  21086314.6384   21086314.5094
      2053.5464
 -20234654.93748 -15763344.91844  20298464.2244   20298461.5484
      2243.5204
 -15373084.50449 -11974250.83646  18516871.1534   18516869.1424
      2211.6884
 -16852009.72748 -13113262.10544  20194503.7474   20194501.4544
      4664.6204
 04  9 10 22 30 29.9930000  0  7G 3G 8G13G10G19G27G28
  -8072038.85247  -6275473.57842  21637240.7394   21637241.3574
      -148.1114
 -22529733.07449 -17525393.80946  18569364.3414   18569363.0324
      3394.2134
  -3714424.89849  -2885499.27345  19484713.5604   19484712.2244
      -620.5554
 -12543920.83248  -9754221.97743  21080477.7004   21080477.2244
      2045.1344
 -20268182.96948 -15789470.64144  20292083.8884   20292080.7354
      2235.2024
 -15406222.45349 -12000072.60946  18510565.0284   18510563.1574
      2209.1974
 -16921923.52348 -13167740.35944  20181199.3024   20181197.5644
      4660.9204
 04  9 10 22 30 44.9930000  0  7G 3G 8G13G10G19G27G28
  -8069718.95347  -6273665.91042  21637681.7864   21637682.9544
      -154.6604
 -22580600.51249 -17565030.74646  18559684.8024   18559683.3604
      3391.1634
  -3705036.34449  -2878183.53145  19486500.3174   19486498.6894
      -625.9044
 -12574470.00048  -9778026.50842  21074663.8964   21074662.9314
      2036.6114
 -20301584.55548 -15815497.82844  20285727.8574   20285724.2784
      2226.7724
 -15439321.26249 -12025863.89146  18504266.6774   18504264.2634
      2206.5874
 -16991780.01648 -13222173.95744  20167906.1854   20167904.5444
      4657.0994
 04  9 10 22 30 59.9930000  0  7G 3G 8G13G10G19G27G28
  -8067300.05547  -6271781.07842  21638142.6614   21638142.9464
      -161.2604
 -22631421.04349 -17604631.16446  18550013.6534   18550011.4704
      3388.0354
  -3695566.75849  -2870804.66845  19488302.4744   19488300.2434
      -631.3064
 -12604890.40647  -9801730.73443  21068875.1304   21068873.9934
      2028.0274
 -20334858.60548 -15841425.66444  20279395.9584   20279392.9544
      2218.2704
 -15472379.87949 -12051623.84846  18497975.7864   18497973.5794
      2203.9084
 -17061578.12948 -13276562.05544  20154623.9974   20154622.9424
      4653.2084
 04  9 10 22 31 14.9930000  0  7G 3G 8G13G10G19G27G28
  -8064780.00447  -6269817.40642  21638623.0364   21638622.3294
      -168.0034
 -22682192.30149 -17644193.15646  18540352.3644   18540350.8764
      3384.7514
  -3686013.75848  -2863360.78944  19490120.3254   19490118.7634
      -636.8674
 -12635179.58648  -9825332.68743  21063111.1534   21063110.3334
      2019.2794
 -20368002.51248 -15867252.07444  20273088.7864   20273086.0954
      2209.5944
 -15505395.78949 -12077350.53546  18491692.8884   18491690.8884
      2201.0614
 -17131315.18748 -13330902.59044  20141353.7864   20141351.6144
      4649.1374
 04  9 10 22 31 29.9930000  0  7G 3G 8G13G10G19G27G28
  -8062160.81647  -6267776.47342  21639121.1924   21639120.9544
      -174.6124
 -22732915.84849 -17683718.00446  18530699.9974   18530698.1224
      3381.5704
  -3676379.32048  -2855853.45745  19491953.5284   19491951.9744
      -642.2964
 -12665339.49248  -9848833.91843  21057371.9424   21057371.8924
      2010.6604
 -20401018.09048 -15892978.50044  20266805.3964   20266803.0214
      2201.0394
 -15538370.58649 -12103045.17647  18485418.0604   18485416.0324
      2198.3204
 -17200992.94948 -13385196.91844  20128094.0754   20128093.0214
      4645.1844
 04  9 10 22 31 44.9930000  0  7G 3G 8G13G10G19G27G28
  -8059443.92247  -6265659.44542  21639638.7474   21639637.7354
      -181.1264
 -22783592.89849 -17723206.59447  18521056.4744   18521054.5914
      3378.4704
  -3666665.07448  -2848283.93445  19493801.8964   19493800.6074
      -647.6164
 -12695371.36748  -9872235.37543  21051656.9664   21051656.6424
      2002.1254
 -20433906.53548 -15918605.83244  20260547.1854   20260544.4624
      2192.5634
 -15571305.54749 -12128708.78146  18479150.8804   18479148.8534
      2195.6644
 -17270612.58248 -13439445.93444  20114846.0754   20114845.0914
      4641.3094
 04  9 10 22 31 59.9930000  0  7G 3G 8G13G10G19G27G28
  -8056627.84847  -6263465.12142  21640174.3414   21640174.3414
      -187.7384
 -22834221.48849 -17762657.45346  18511422.1694   18511420.4504
      3375.2394
  -3656869.26648  -2840650.85544  19495666.0214   19495664.5174
      -653.0544
 -12725273.42248  -9895535.67643  21045967.5364   21045965.9934
      1993.4704
 -20466665.80548 -15944132.54344  20254313.7714   20254310.6964
      2183.9514
 -15604198.75849 -12154339.85946  18472891.2324   18472889.4934
      2192.8814
 -17340171.98448 -13493648.02744  20101609.1144   20101607.9784
      4637.2934
 04  9 10 22 32 14.9930000  0  7G 3G 8G13G10G19G27G28
  -8053715.35947  -6261195.69542  21640728.6464   21640729.1074
      -194.1664
 -22884804.27349 -17802072.60546  18501796.6694   18501794.6384
      3372.1864
  -3646994.71948  -2832956.42244  19497545.2244   19497543.3174
      -658.3034
 -12755048.38747  -9918736.96542  21040300.9504   21040300.6384
      1984.9984
 -20499298.68448 -15969560.73844  20248103.8174   20248101.1424
      2175.5254
 -15637052.65649 -12179940.28946  18466639.5054   18466637.2354
      2190.2604
 -17409673.73849 -13547805.19944  20088383.8414   20088382.1774
      4633.4504
 04  9 10 22 32 29.9930000  0  7G 3G 8G13G10G19G27G28
  -8050703.64547  -6258848.91442  21641301.0444   21641301.9854
      -200.7814
 -22935337.91049 -17841449.45746  18492180.2784   18492178.7164
      3368.9094
  -3637038.48448  -2825198.34045  19499440.2164   19499438.0794
      -663.7494
 -12784693.21547  -9941836.83643  21034659.9664   21034659.3844
      1976.3224
 -20531801.84848 -15994887.88744  20241919.1924   20241916.0874
      2166.8784
 -15669864.10249 -12205507.64846  18460395.7084   18460393.5914
      2187.4304
 -17479114.56649 -13601914.92244  20075169.8494   20075167.6814
      4629.3894
 04  9 10 22 32 44.9930000  0  7G 3G 8G13G10G19G27G28
  -8047594.54347  -6256426.23042  21641892.6074   21641892.3724
      -207.2734
 -22985824.12549 -17880789.35246  18482572.9744   18482571.5914
      3365.7484
  -3627002.29748  -2817377.96145  19501349.7784   19501347.8844
      -669.0794
 -12814209.62947  -9964836.63343  21029042.9114   21029042.3334
      1967.7614
 -20564176.78948 -16020115.10945  20235758.1694   20235755.4544
      2158.3294
 -15702634.57449 -12231043.07446  18454159.6224   18454157.4624
      2184.6984
 -17548495.91049 -13655978.28144  20061967.2324   20061965.1034
      4625.4234
 04  9 10 22 32 59.9930000  0  7G 3G 8G13G10G19G27G28
  -8044385.50847  -6253925.68442  21642503.3884   21642503.0014
      -213.9364
 -23036259.82849 -17920089.89546  18472975.5284   18472974.1184
      3362.3804
  -3616883.54348  -2809493.23445  19503275.3254   19503273.7554
      -674.5844
 -12843594.69548  -9987734.09843  21023451.0214   21023450.1924
      1959.0044
 -20596420.57448 -16045240.12144  20229622.9894   20229619.1464
      2149.5864
 -15735361.14849 -12256544.30546  18447931.9744   18447930.1264
      2181.7724
 -17617814.76249 -13709992.94944  20048776.3644   20048773.7084
      4621.2574
 04  9 10 22 33 14.9930000  0  7G 3G 8G13G10G19G27G28
  -8041076.10547  -6251346.97742  21643133.3024   21643133.7984
      -220.6274
 -23086644.21949 -17959350.44547  18463387.7864   18463386.0244
      3358.9594
  -3606681.82048  -2801543.86744  19505216.6614   19505214.8684
      -680.1154
 -12872847.93748 -10010528.84043  21017884.7004   21017883.7514
      1950.2164
 -20628532.62548 -16070262.47344  20223511.1694   20223508.4154
      2140.8034
 -15768043.12149 -12282010.78146  18441712.8414   18441710.9114
      2178.7984
 -17687070.45748 -13763958.41444  20035596.7784   20035594.2354
      4617.0464
 04  9 10 22 33 29.9930000  0  7G 3G 8G13G10G19G27G28
  -8037666.14548  -6248689.90242  21643782.4354   21643782.8684
      -227.3314
 -23136976.55149 -17998570.44147  18453809.4974   18453807.8684
      3355.4894
  -3596396.63748  -2793529.45344  19507173.6074   19507172.4354
      -685.6794
 -12901968.81648 -10033220.44543  21012343.3414   21012342.8214
      1941.3924
 -20660512.24248 -16095181.66044  20217425.8494   20217422.7044
      2131.9744
 -15800679.72349 -12307441.89846  18435502.3884   18435500.2004
      2175.7734
 -17756262.27748 -13817874.08644  20022430.1144   20022428.0244
      4612.7884
 04  9 10 22 33 44.9930000  0  7G 3G 8G13G10G19G27G28
  -8034156.65248  -6245955.25442  21644450.7164   21644450.4584
      -233.9664
 -23187257.73049 -18037750.56246  18444241.5364   18444240.1304
      3352.0794
  -3586029.12948  -2785450.89845  19509146.4894   19509145.0874
      -691.1674
 -12930958.33648 -10055809.68043  21006826.4744   21006826.1304
      1932.6354
 -20692360.17648 -16119998.22744  20211365.3964   20211362.3574
      2123.1964
 -15833271.85249 -12332838.35546  18429300.1614   18429297.8964
      2172.8094
 -17825390.92248 -13871740.51244  20009275.0134   20009273.8414
      4608.5764
 04  9 10 22 33 59.9930000  0  7G 3G 8G13G10G19G27G28
  -8030547.38747  -6243142.82842  21645137.2394   21645136.9114
      -240.6184
 -23237487.05949 -18076890.29746  18434683.1464   18434681.5174
      3348.6224
  -3575579.04748  -2777308.00044  19511135.3644   19511133.3294
      -696.6724
 -12959816.00847 -10078296.18442  21001334.9034   21001334.1734
      1923.8454
 -20724075.91848 -16144711.79744  20205330.6224   20205327.1854
      2114.3834
 -15865818.80949 -12358199.62546  18423106.6694   18423104.6494
      2169.7974
 -17894455.76248 -13925557.23444  19996132.8174   19996131.7434
      4604.3234
 04  9 10 22 34 14.9930000  0  7G 3G 8G13G10G19G27G28
  -8026837.34447  -6240251.89842  21645842.9114   21645843.1964
      -247.3364
 -23287663.19949 -18115988.57046  18425134.9744   18425133.1224
      3345.0764
  -3565045.19548  -2769099.83244  19513139.7244   19513137.8684
      -702.2574
 -12988540.52347 -10100678.93742  20995868.7554   20995867.5874
      1914.9684
 -20755658.07448 -16169321.25044  20199320.8174   20199317.9824
      2105.4774
 -15898319.31649 -12383524.69146  18416922.3104   18416920.0914
      2166.7014
 -17963455.50049 -13979323.22744  19983002.2634   19983001.3214
      4599.9834
 04  9 10 22 34 29.9930000  0  7G 3G 8G13G10G19G27G28
  -8023026.26647  -6237282.24242  21646567.7554   21646568.8174
      -254.0724
 -23337785.32049 -18155044.76646  18415597.1384   18415596.0714
      3341.4754
  -3554427.44548  -2760826.27744  19515160.4584   19515158.6694
      -707.8504
 -13017131.59448 -10122957.70742  20990428.1534   20990427.1734
      1906.0714
 -20787106.18048 -16193826.25844  20193335.9824   20193333.3334
      2096.5404
 -15930772.75049 -12408813.08646  18410746.4114   18410744.4894
      2163.5624
 -18032389.36748 -14033037.89144  19969884.9664   19969883.2944
      4595.5914
 04  9 10 22 34 44.9920000  0  7G 3G 8G13G10G19G27G28
  -8019116.16847  -6234235.43742  21647311.8444   21647312.4414
      -260.6734
 -23387851.66049 -18194057.48846  18406070.1954   18406068.5824
      3337.7564
  -3543728.00848  -2752489.07044  19517196.5314   19517194.4384
      -713.2964
 -13045588.85948 -10145132.20743  20985013.0394   20985012.3324
      1897.1514
 -20818419.44148 -16218226.21144  20187377.3134   20187373.8954
      2087.5514
 -15963178.36349 -12434064.21546  18404580.0164   18404577.8954
      2160.3744
 -18101254.21948 -14086698.77344  19956780.2344   19956777.5634
      4590.9904
 04  9 10 22 34 59.9920000  0  7G 3G 8G13G10G19G27G28
  -8015105.09447  -6231109.95742  21648076.0554   21648075.5744
      -267.4054
 -23437867.13749 -18233030.57447  18396552.2194   18396550.6064
      3334.3654
  -3532943.89148  -2744085.88744  19519248.5314   19519246.4534
      -718.9414
 -13073914.45748 -10167204.10243  20979622.7504   20979622.2274
      1888.3734
 -20849600.35947 -16242523.01644  20181443.4534   20181440.6804
      2078.7284
 -15995538.61749 -12459279.98846  18398422.1724   18398419.8204
      2157.3504
 -18170057.32849 -14140311.59044  19943687.1414   19943684.4884
      4586.8744
 04  9 10 22 35 14.9920000  0  7G 3G 8G13G10G19G27G28
  -8010997.17247  -6227908.96942  21648857.2504   21648857.5164
      -273.8614
 -23487831.96949 -18271964.21147  18387044.4694   18387042.0394
      3330.9894
  -3522079.82448  -2735620.40244  19521315.8134   19521314.0984
      -724.2714
 -13102110.28147 -10189174.87543  20974256.3594   20974256.8994
      1879.7224
 -20880650.44948 -16266717.89144  20175535.2274   20175531.8444
      2070.0064
 -16027854.97349 -12484461.56647  18392272.1804   18392270.3874
      2154.4244
 -18238797.74249 -14193875.52344  19930606.4694   19930604.0904
      4582.6944
 04  9 10 22 35 29.9920000  0  7G 3G 8G13G10G19G27G28
  -8006791.70347  -6224631.98442  21649658.1094   21649657.4024
      -280.3654
 -23537745.25449 -18310857.67246  18377545.6414   18377543.8524
      3327.5524
  -3511134.98848  -2727091.96944  19523398.5314   19523396.5394
      -729.6564
 -13130175.40648 -10211043.80143  20968916.8134   20968916.5204
      1871.0084
 -20911568.69148 -16290810.02744  20169652.0004   20169648.7704
      2061.2164
 -16060126.37149 -12509608.11346  18386131.1954   18386129.3204
      2151.4274
 -18307474.37548 -14247389.75444  19917537.6804   19917536.2314
      4578.4424
 04  9 10 22 35 44.9920000  0  7G 3G 8G13G10G19G27G28
  -8002489.63748  -6221279.76642  21650477.0164   21650476.1644
      -286.8044
 -23587607.52349 -18349711.38746  18368057.3594   18368055.3164
      3324.1514
  -3500110.29348  -2718501.33245  19525496.9144   19525494.6094
      -734.9804
 -13158110.46148 -10232811.38343  20963600.7034   20963600.3484
      1862.3374
 -20942355.74248 -16314799.92244  20163793.4224   20163790.1134
      2052.4704
 -16092353.24249 -12534719.95746  18379998.6644   18379996.9344
      2148.4584
 -18376087.69148 -14300854.64144  19904480.9064   19904479.5554
      4574.2214
 04  9 10 22 35 59.9920000  0  7G 3G 8G13G10G19G27G28
  -7998088.84848  -6217850.58242  21651314.3594   21651314.5984
      -293.3864
 -23637416.18749 -18388523.33246  18358579.1494   18358577.3284
      3320.5784
  -3489003.41848  -2709846.64544  19527610.5084   19527608.4494
      -740.4584
 -13185913.17647 -10254475.87942  20958310.5164   20958309.7424
      1853.5144
 -20973009.05548 -16338685.61344  20157960.1644   20157957.3914
      2043.5544
 -16124533.25449 -12559795.28546  18373875.1024   18373873.1954
      2145.3344
 -18444635.06648 -14354268.14844  19891436.2814   19891434.9144
      4569.8254
 04  9 10 22 36 14.9920000  0  7G 3G 8G13G10G19G27G28
  -7993591.10247  -6214345.84042  21652169.8444   21652170.8404
      -299.8504
 -23687172.30949 -18427294.32846  18349110.8674   18349109.7074
      3317.0754
  -3477816.22748  -2701129.36744  19529738.9454   19529737.2744
      -745.8134
 -13213585.21148 -10276038.50043  20953044.6804   20953042.9924
      1844.8024
 -21003530.05548 -16362468.21944  20152152.0004   20152148.8164
      2034.7334
 -16156667.85249 -12584835.23446  18367759.8754   18367758.1214
      2142.3074
 -18513118.14148 -14407631.52344  19878404.5634   19878402.9884
      4565.5384
 04  9 10 22 36 29.9920000  0  7G 3G 8G13G10G19G27G28
  -7988997.33247  -6210766.30942  21653043.6884   21653043.6374
      -306.2514
 -23736876.71149 -18466025.02347  18339652.5944   18339651.3794
      3313.6274
  -3466549.46548  -2692350.09444  19531883.1494   19531881.3484
      -751.1174
 -13241127.39148 -10297499.91843  20947803.6024   20947802.5004
      1836.1454
 -21033919.44548 -16386148.23444  20146368.5164   20146366.0904
      2025.9594
 -16188757.43749 -12609840.11346  18361653.9534   18361651.2114
      2139.3064
 -18581537.36749 -14460945.20744  19865385.3674   19865383.3014
      4561.2824
 04  9 10 22 36 44.9920000  0  7G 3G 8G13G10G19G27G28
  -7984309.54747  -6207113.48442  21653935.3674   21653935.3834
      -312.5194
 -23786531.11749 -18504716.76246  18330203.6954   18330201.9734
      3310.2944
  -3455205.02048  -2683510.28544  19534041.5394   19534040.6374
      -756.2964
 -13268541.47348 -10318861.55143  20942587.0554   20942586.5084
      1827.6054
 -21064178.92248 -16409727.06644  20140610.7814   20140607.6254
      2017.2984
 -16220803.81249 -12634811.31646  18355555.5164   18355553.3594
      2136.4254
 -18649894.31249 -14514210.34044  19852377.5864   19852375.3134
      4557.1304
 04  9 10 22 36 59.9920000  0  7G 3G 8G13G10G19G27G28
  -7979524.05146  -6203384.53542  21654846.6024   21654846.1724
      -319.0334
 -23836131.34449 -18543366.27746  18320764.9064   18320763.2194
      3306.6824
  -3443779.35248  -2674607.21144  19536216.3914   19536214.9064
      -761.7114
 -13295823.69548 -10340120.43443  20937394.4144   20937394.4304
      1818.8154
 -21094304.48448 -16433201.52745  20134878.1954   20134875.1214
      2008.3714
 -16252802.87149 -12659745.65246  18349466.1254   18349464.0314
      2133.2714
 -18718184.94149 -14567423.78945  19839381.9144   19839380.6644
      4552.7094
 04  9 10 22 37 14.9920000  0  7G 3G 8G13G10G19G27G28
  -7974638.30546  -6199577.49642  21655776.8134   21655776.0394
      -325.7164
 -23885674.69149 -18581971.48046  18311337.0474   18311334.9414
      3302.8904
  -3432269.87948  -2665638.80144  19538405.9224   19538404.9184
      -767.2984
 -13322971.24648 -10361274.40642  20932228.8444   20932228.3954
      1809.8374
 -21124293.38348 -16456569.48044  20129171.4144   20129168.2934
      1999.2604
 -16284751.74649 -12684640.87546  18343386.5164   18343384.6214
      2129.9254
 -18786406.35248 -14620583.28144  19826399.7114   19826397.6134
      4548.0944
 04  9 10 22 37 29.9920000  0  7G 3G 8G13G10G19G27G28
  -7969655.09446  -6195694.49642  21656725.0164   21656724.8594
      -332.2144
 -23935163.48449 -18620534.17647  18301919.9924   18301918.0274
      3299.2534
  -3420679.18748  -2656607.12144  19540611.7664   19540610.3994
      -772.7134
 -13349986.84447 -10382325.52342  20927087.5554   20927086.9104
      1801.0404
 -21154148.02348 -16479832.82044  20123490.3054   20123487.0394
      1990.3094
 -16316652.93449 -12709498.93746  18337316.0394   18337314.1844
      2126.7464
 -18854560.92248 -14673690.70744  19813430.0784   19813428.7624
      4543.6384
 04  9 10 22 37 44.9920000  0  7G 3G 8G13G10G19G27G28
  -7964579.32047  -6191739.35942  21657691.2894   21657690.5474
      -338.3854
 -23984602.28149 -18659057.90247  18292512.0084   18292510.3714
      3295.9204
  -3409012.07448  -2647515.88744  19542832.1724   19542831.1954
      -777.8084
 -13376875.14847 -10403277.45742  20921971.4694   20921970.5594
      1792.5544
 -21183872.88748 -16502995.04344  20117833.6884   20117830.1644
      1981.6584
 -16348510.79349 -12734323.24646  18331253.4924   18331251.6804
      2123.8574
 -18922653.12948 -14726749.53544  19800472.4774   19800470.8994
      4539.4804
 04  9 10 22 37 59.9920000  0  7G 3G 8G13G10G19G27G28
  -7959408.29746  -6187710.01642  21658674.5004   21658674.2034
      -344.7354
 -24033987.69149 -18697540.03146  18283114.2584   18283112.5664
      3292.3614
  -3397265.70748  -2638362.91044  19545067.8834   19545065.5744
      -783.0914
 -13403633.28948 -10424127.95743  20916879.6334   20916878.7114
      1783.8764
 -21213465.03548 -16526053.85944  20112203.0244   20112199.2814
      1972.8104
 -16380322.30549 -12759111.43046  18325199.9694   18325197.8524
      2120.7674
 -18990679.89848 -14779757.38344  19787527.6644   19787525.0394
      4535.1184
 04  9 10 22 38 14.9920000  0  7G 3G 8G13G10G19G27G28
  -7954142.27747  -6183606.64142  21659676.9694   21659677.2504
      -351.0684
 -24083319.75449 -18735980.58646  18273726.5084   18273725.1134
      3288.8044
  -3385440.29748  -2629148.31644  19547317.7894   19547316.0904
      -788.3614
 -13430261.24248 -10444877.01243  20911812.4224   20911811.8834
      1775.1974
 -21242924.39848 -16549009.19544  20106596.9064   20106594.0314
      1963.9584
 -16412087.41449 -12783863.47746  18319155.6094   18319153.0784
      2117.6744
 -19058641.09049 -14832714.13344  19774595.2744   19774592.6884
      4530.7464
 04  9 10 22 38 29.9920000  0  7G 3G 8G13G10G19G27G28
  -7948778.07847  -6179426.74642  21660696.7894   21660698.3954
      -357.6134
 -24132595.07449 -18774376.94546  18264349.6884   18264347.8094
      3285.0214
  -3373532.62148  -2619869.62944  19549583.7114   19549581.8444
      -793.8454
 -13456755.63748 -10465521.98843  20906771.0084   20906769.7934
      1766.2934
 -21272247.46148 -16571858.33244  20101016.3204   20101013.5744
      1954.8714
 -16443802.43749 -12808576.47746  18313120.2114   18313118.1914
      2114.3354
 -19126533.18048 -14885617.03544  19761675.4614   19761673.2774
      4526.1394
 04  9 10 22 38 44.9920000  0  7G 3G 8G13G10G19G27G28
  -7943318.18446  -6175172.30942  21661736.0314   21661737.2624
      -363.9934
 -24181815.44149 -18812730.46946  18254983.3284   18254981.3244
      3281.3584
  -3361545.10548  -2610528.71944  19551864.8754   19551862.8834
      -799.1684
 -13483118.74647 -10486064.68742  20901753.7894   20901752.9494
      1757.5414
 -21301436.40648 -16594602.93744  20095462.2344   20095459.0864
      1945.9304
 -16475469.63749 -12833252.21146  18307094.0474   18307092.3954
      2111.1474
 -19194358.14849 -14938467.64844  19748769.1174   19748766.8484
      4521.6654
 04  9 10 22 38 59.9920000  0  7G 3G 8G13G10G19G27G28
  -7937764.25846  -6170844.60542  21662793.4774   21662793.3134
      -370.2624
 -24230982.34849 -18851042.33647  18245627.4534   18245625.1764
      3277.7944
  -3349479.34848  -2601126.86344  19554160.9224   19554158.7074
      -804.3844
 -13509352.12148 -10506506.27743  20896761.7664   20896760.9924
      1748.8924
 -21330492.63748 -16617244.15244  20089932.6884   20089929.7624
      1937.0824
 -16507090.12949 -12857891.55946  18301076.7194   18301074.9924
      2108.0334
 -19262117.23449 -14991266.89844  19735874.5944   19735872.1494
      4517.2724
 04  9 10 22 39 14.9920000  0  7G 3G 8G13G10G19G27G28
  -7932117.18047  -6166444.26642  21663868.2894   21663867.7234
      -376.4724
 -24280096.38749 -18889313.02046  18236281.3444   18236279.1134
      3274.2694
  -3337336.20748  -2591664.70344  19556471.5704   19556470.6374
      -809.5434
 -13535456.43447 -10526847.28143  20891793.7504   20891793.2854
      1740.2874
 -21359416.65648 -16639782.33644  20084428.8834   20084425.4344
      1928.2684
 -16538664.55549 -12882495.00846  18295068.6884   18295066.6994
      2104.9624
 -19329811.09848 -15044015.34044  19722993.0554   19722990.7774
      4512.9244
 04  9 10 22 39 29.9920000  0  7G 3G 8G13G10G19G27G28
  -7926378.66046  -6161972.69942  21664958.8134   21664959.9384
      -382.5684
 -24329158.84449 -18927543.48847  18226945.1254   18226943.7624
      3270.8304
  -3325117.41448  -2582143.59844  19558796.9694   19558795.8404
      -814.5864
 -13561433.41047 -10547089.10943  20886850.7744   20886851.1174
      1731.7984
 -21388209.91448 -16662218.63744  20078949.6804   20078946.1374
      1919.5514
 -16570194.33649 -12907063.66046  18289068.6334   18289066.4694
      2101.9854
 -19397441.09049 -15096713.99244  19710123.3594   19710121.8634
      4508.6664
 04  9 10 22 39 44.9920000  0  7G 3G 8G13G10G19G27G28
  -7920546.39846  -6157428.09842  21666070.3994   21666069.8714
      -388.8174
 -24378167.23849 -18965731.83646  18217618.7894   18217617.5594
      3267.2264
  -3312820.42249  -2572561.55944  19561136.8524   19561135.7704
      -819.7994
 -13587280.46547 -10567229.69143  20881932.1334   20881932.6764
      1723.1374
 -21416869.93448 -16684551.10944  20073495.7114   20073492.4534
      1910.6684
 -16601676.78549 -12931595.44146  18283077.6094   18283075.6024
      2098.8304
 -19465004.44949 -15149360.74244  19697266.8284   19697264.7934
      4504.2244
 04  9 10 22 39 59.9920000  0  7G 3G 8G13G10G19G27G28
  -7914619.85946  -6152810.03942  21667198.0314   21667197.1884
      -395.1034
 -24427120.22349 -19003877.01246  18208303.2504   18208302.0004
      3263.5324
  -3300444.73048  -2562918.17244  19563492.2114   19563490.2194
      -825.0464
 -13612996.84847 -10587268.43443  20877038.8834   20877038.7194
      1714.4264
 -21445395.77748 -16706779.02344  20068067.7194   20068064.2814
      1901.7234
 -16633110.89849 -12956089.56246  18277095.9924   18277093.9694
      2095.6084
 -19532500.25449 -15201954.84044  19684422.5004   19684420.2344
      4499.7204
 04  9 10 22 40 14.9920000  0  7G 3G 8G13G10G19G27G28
  -7908597.82046  -6148117.53542  21668343.6334   21668343.8244
      -401.4694
 -24476016.41449 -19041977.93746  18198998.8914   18198996.9384
      3259.7464
  -3287989.06248  -2553212.48044  19565862.3054   19565861.2464
      -830.3784
 -13638581.27348 -10607204.36743  20872170.3834   20872169.6724
      1705.6284
 -21473785.98848 -16728901.26644  20062665.2814   20062662.0244
      1892.6814
 -16664495.18049 -12980544.84046  18271123.5004   18271121.8014
      2092.2854
 -19599926.90248 -15254495.06244  19671591.5084   19671588.7704
      4495.1104
 04  9 10 22 40 29.9920000  0  7G 3G 8G13G10G19G27G28
  -7902481.32046  -6143351.43742  21669506.7584   21669507.8994
      -407.7674
 -24524856.41049 -19080035.07047  18189705.0394   18189703.2624
      3256.0004
  -3275454.33248  -2543445.17644  19568247.1954   19568245.9184
      -835.6494
 -13664034.50447 -10627038.06243  20867326.5474   20867325.8714
      1696.8824
 -21502041.24648 -16750918.33644  20057288.8284   20057285.1294
      1883.6844
 -16695830.27049 -13004961.79346  18265160.8914   18265158.9774
      2089.0064
 -19667285.02749 -15306981.88744  19658773.9304   19658771.6214
      4490.5424
 04  9 10 22 40 44.9920000  0  7G 3G 8G13G10G19G27G28
  -7896269.67646  -6138511.25842  21670688.2194   21670689.7464
      -414.1104
 -24573639.11749 -19118047.56647  18180421.8914   18180419.7664
      3252.1804
  -3262839.80948  -2533615.71544  19570648.2194   19570646.7074
      -840.9684
 -13689355.91047 -10646769.01243  20862507.3524   20862508.3244
      1688.0944
 -21530160.61348 -16772829.53944  20051937.4694   20051934.0664
      1874.6244
 -16727115.10549 -13029339.58647  18259207.6414   18259205.5944
      2085.6564
 -19734573.70349 -15359414.60244  19645969.1024   19645967.2934
      4485.9124
 04  9 10 22 40 59.9920000  0  7G 3G 8G13G10G19G27G28
  -7889966.78946  -6133599.92642  21671888.9064   21671888.7034
      -420.1924
 -24622368.18449 -19156018.25047  18171148.9384   18171147.0824
      3248.6044
  -3250149.38348  -2523727.08644  19573063.2274   19573061.3324
      -846.0284
 -13714549.09448 -10666400.07843  20857714.4614   20857714.3204
      1679.5464
 -21558147.69548 -16794637.64144  20046611.4614   20046608.5864
      1865.8054
 -16758353.18049 -13053680.93746  18253263.1414   18253261.0984
      2082.5384
 -19801796.33249 -15411795.83644  19633176.9844   19633175.1414
      4481.5094
 04  9 10 22 41 14.9920000  0  7G 3G 8G13G10G19G27G28
  -7883572.59846  -6128617.46142  21673105.3204   21673105.6644
      -426.2794
 -24671043.09049 -19193946.74247  18161886.4694   18161885.3404
      3244.9944
  -3237382.80148  -2513779.12144  19575492.1094   19575490.7854
      -851.1054
 -13739613.79748 -10685931.02743  20852944.3754   20852944.1954
      1670.9804
 -21586002.00448 -16816342.27744  20041311.0864   20041308.1564
      1856.9544
 -16789544.06249 -13077985.52346  18247327.9144   18247325.3594
      2079.3924
 -19868952.43749 -15464125.24244  19620397.9064   19620396.1494
      4477.0744
 04  9 10 22 41 29.9920000  0  7G 3G 8G13G10G19G27G28
  -7877086.35547  -6123563.26242  21674340.9064   21674340.7234
      -432.4164
 -24719662.78949 -19231832.20747  18152634.4304   18152633.0004
      3241.3134
  -3224539.43048  -2503771.32444  19577936.5004   19577934.8484
      -856.2254
 -13764549.12148 -10705361.18043  20848199.3994   20848198.7544
      1662.3554
 -21613722.60248 -16837942.74245  20036035.9774   20036032.9264
      1848.0404
 -16820686.58649 -13102252.43446  18241401.4924   18241399.2934
      2076.1684
 -19936040.91849 -15516401.94144  19607631.3594   19607629.8714
      4472.5654
 04  9 10 22 41 44.9920000  0  7G 3G 8G13G10G19G27G28
  -7870508.41047  -6118437.60942  21675592.3364   21675592.2314
      -438.5304
 -24768227.15249 -19269674.55947  18143392.9144   18143391.4264
      3237.6244
  -3211619.38748  -2493703.78144  19580395.4614   19580394.1174
      -861.3364
 -13789355.25048 -10724690.60943  20843479.3444   20843478.6134
      1653.7424
 -21641309.44148 -16859438.98445  20030786.7274   20030783.5664
      1839.1234
 -16851780.80549 -13126481.69146  18235484.3524   18235482.6064
      2072.9484
 -20003061.57448 -15568625.81244  19594877.3444   19594875.4574
      4468.0444
 04  9 10 22 41 59.9920000  0  7G 3G 8G13G10G19G27G28
  -7863838.63347  -6113240.40642  21676861.0704   21676861.8874
      -444.6524
 -24816735.71549 -19307473.44147  18134162.0554   18134160.2664
      3233.9044
  -3198622.58248  -2483576.44544  19582868.3444   19582866.9024
      -866.4544
 -13814032.02748 -10743919.27743  20838783.2504   20838782.2074
      1645.1184
 -21668762.28548 -16880830.80544  20025562.6564   20025558.9384
      1830.1904
 -16882826.28949 -13150672.97746  18229576.5944   18229574.6604
      2069.6994
 -20070014.12549 -15620796.59444  19582137.0474   19582135.2774
      4463.5034
 04  9 10 22 42 14.9920000  0  6G 8G13G10G19G27G28
 -24865187.48449 -19345228.05546  18124942.1884   18124940.3994
      3230.1184
  -3185548.34448  -2473388.73844  19585356.2504   19585354.5664
      -871.6164
 -13838578.49248 -10763046.37143  20834112.4384   20834111.8244
      1636.4314
 -21696080.15248 -16902117.44944  20020364.0474   20020359.8164
      1821.1914
 -16913821.86349 -13174825.37546  18223678.4454   18223676.2314
      2066.3724
 -20136897.46149 -15672913.44944  19569409.6174   19569407.6524
      4458.8894
 04  9 10 22 42 29.9920000  0  6G 8G13G10G19G27G28
 -24913580.83249 -19382937.14847  18115732.8364   18115731.1994
      3226.2234
  -3172395.57848  -2463139.84844  19587858.8754   19587857.5394
      -876.8514
 -13862993.50448 -10782071.07043  20829466.0314   20829467.0044
      1627.6674
 -21723261.78148 -16923297.92644  20015191.7744   20015187.8794
      1812.1094
 -16944766.26248 -13198937.88746  18217789.7894   18217787.7314
      2062.9604
 -20203710.28949 -15724975.36744  19556695.3284   19556692.9574
      4454.1894
 04  9 10 22 42 44.9920000  0  6G 8G13G10G19G27G28
 -24961914.21949 -19420599.52046  18106535.4064   18106533.8404
      3222.2264
  -3159163.06248  -2452828.82844  19590377.2504   19590375.9494
      -882.1684
 -13887275.78547 -10800992.36343  20824844.9844   20824845.4534
      1618.8194
 -21750305.73448 -16944371.11344  20010044.7664   20010042.1214
      1802.9304
 -16975657.88349 -13223009.27346  18211911.4224   18211909.4264
      2059.4414
 -20270451.05949 -15776981.15244  19543994.9844   19543991.9884
      4449.3854
 04  9 10 22 42 59.9920000  0  6G 8G13G10G19G27G28
 -25010186.88349 -19458214.57047  18097349.5244   18097347.7074
      3218.1784
  -3145849.84448  -2442454.92244  19592910.5784   19592909.1374
      -887.5484
 -13911424.43447 -10819809.48042  20820250.0554   20820248.9144
      1609.9104
 -21777210.81648 -16965336.13744  20004925.3204   20004922.0864
      1793.6724
 -17006495.46149 -13247038.55946  18206043.0784   18206041.4104
      2055.8394
 -20337118.48448 -15828929.77344  19531308.7034   19531305.8324
      4444.4954
 04  9 10 22 43 14.9920000  0  6G 8G13G10G19G27G28
 -25058397.64149 -19495781.38747  18088175.5164   18088173.3364
      3214.0514
  -3132455.37148  -2432017.68744  19595459.3754   19595458.6804
      -892.9654
 -13935438.68448 -10838521.89143  20815680.0704   20815678.7424
      1600.9504
 -21803976.27349 -16986192.31245  19999832.0164   19999829.2544
      1784.3644
 -17037278.23849 -13271025.14546  18200185.5474   18200183.8444
      2052.1854
 -20403711.63349 -15880820.50444  19518636.2424   19518634.0044
      4439.5434
 04  9 10 22 43 29.9920000  0  6G 8G13G10G19G27G28
 -25106545.73849 -19533299.37146  18079013.0704   18079010.7504
      3209.8734
  -3118979.17248  -2421516.78944  19598024.3444   19598023.1294
      -898.4134
 -13959318.07847 -10857129.20343  20811136.1174   20811135.6914
      1591.9604
 -21830601.32448 -17006939.09844  19994765.4774   19994762.3914
      1775.0034
 -17068005.48049 -13294968.44146  18194338.4694   18194336.4534
      2048.4834
 -20470229.73448 -15932652.76644  19505978.2034   19505976.0634
      4434.5404
 04  9 10 22 43 44.9920000  0  6G 8G13G10G19G27G28
 -25154630.28949 -19570767.85546  18069862.9384   18069860.7664
      3205.6374
  -3105420.67648  -2410951.75844  19600604.4454   19600603.1684
      -903.9004
 -13983061.76647 -10875630.78143  20806617.8134   20806617.6954
      1582.9124
 -21857085.19948 -17027575.87944  19989725.8994   19989721.9734
      1765.5924
 -17098676.09449 -13318867.62946  18188501.7504   18188499.8564
      2044.7084
 -20536671.81648 -15984425.79344  19493334.4534   19493332.6454
      4429.4724
 04  9 10 22 43 59.9920000  0  6G 8G13G10G19G27G28
 -25202649.79749 -19608185.65246  18060725.3834   18060723.1604
      3201.3014
  -3091778.83648  -2400321.78544  19603200.4064   19603198.8284
      -909.4564
 -14006668.73047 -10894025.84043  20802125.5004   20802124.8634
      1573.7984
 -21883426.69948 -17048101.72344  19984712.8674   19984709.6454
      1756.1004
 -17129288.77048 -13342721.65246  18182676.3914   18182674.3244
      2040.8454
 -20603036.57849 -16036138.54744  19480705.5784   19480703.8164
      4424.3174
 04  9 10 22 44 14.9920000  0  6G 8G13G10G19G27G28
 -25250605.24249 -19645553.52047  18051599.2894   18051598.1414
      3197.0304
  -3078055.05948  -2389627.95344  19605811.8284   19605809.8914
      -914.9184
 -14030140.16448 -10912315.27043  20797659.6174   20797659.7274
      1564.7624
 -21909626.84048 -17068517.40245  19979727.8444   19979724.5394
      1746.6764
 -17159844.66049 -13366531.44146  18176861.8284   18176859.7854
      2037.0594
 -20669325.02349 -16087791.85544  19468091.8284   19468089.5204
      4419.2304
 04  9 10 22 44 29.9920000  0  6G 8G13G10G19G27G28
 -25298496.35549 -19682871.25047  18042485.9694   18042484.2974
      3192.7414
  -3064249.19948  -2378870.16044  19608438.7744   19608437.6804
      -920.3914
 -14053475.91447 -10930498.96143  20793218.3674   20793218.0314
      1555.7174
 -21935685.38748 -17088822.75045  19974768.7114   19974764.6724
      1737.2364
 -17190343.22749 -13390296.55946  18171058.5314   18171056.0124
      2033.2384
 -20735536.78549 -16139385.41444  19455492.2664   19455489.8634
      4414.1174
 04  9 10 22 44 44.9920000  0  6G 8G13G10G19G27G28
 -25346325.19549 -19720140.48047  18033384.4384   18033382.7854
      3188.5894
  -3050363.52748  -2368050.19144  19611081.2504   19611080.4104
      -925.7114
 -14076678.23847 -10948578.71943  20788803.2344   20788802.6414
      1546.8224
 -21961604.48449 -17109019.43445  19969836.7894   19969833.0744
      1727.9404
 -17220786.55149 -13414018.62546  18165264.8594   18165262.7974
      2029.5554
 -20801673.93449 -16190920.84444  19442906.6254   19442903.8444
      4409.1434
 04  9 10 22 44 59.9920000  0  6G 8G13G10G19G27G28
 -25394092.73849 -19757361.93447  18024294.2344   18024292.6134
      3184.5034
  -3036399.77348  -2357169.37544  19613738.4924   19613736.9844
      -930.9174
 -14099748.75047 -10966555.73843  20784412.7274   20784413.0984
      1538.0344
 -21987385.48848 -17129108.53145  19964930.7274   19964927.5784
      1718.7344
 -17251176.00849 -13437698.73046  18159481.9304   18159480.3994
      2025.9644
 -20867737.80549 -16242399.15644  19430335.1414   19430332.4454
      4404.2584
 04  9 10 22 45 14.9920000  0  6G 8G13G10G19G27G28
 -25441798.86349 -19794535.53547  18015216.3754   18015214.2814
      3180.4084
  -3022357.90648  -2346227.67244  19616410.7744   19616409.3754
      -936.1244
 -14122687.24247 -10984429.88742  20780047.5314   20780047.1374
      1529.2334
 -22013028.23848 -17149089.88745  19960051.0784   19960047.5204
      1709.5174
 -17281511.09849 -13461336.44946  18153709.4384   18153707.4654
      2022.3394
 -20933727.86349 -16293819.95344  19417777.3054   19417774.9414
      4399.3374
 04  9 10 22 45 29.9920000  0  6G 8G13G10G19G27G28
 -25489441.41849 -19831659.60247  18006150.2424   18006148.6604
      3176.1704
  -3008235.85948  -2335223.52744  19619098.0944   19619095.8594
      -941.4704
 -14145491.66847 -11002199.57442  20775708.2664   20775708.0434
      1520.2954
 -22038530.52048 -17168961.78944  19955197.8444   19955194.2424
      1700.1524
 -17311789.51249 -13484930.02746  18147947.6254   18147945.7624
      2018.5614
 -20999641.88749 -16345181.51644  19405234.1724   19405231.4694
      4394.2684
 04  9 10 22 45 44.9920000  0  6G 8G13G10G19G27G28
 -25537022.32849 -19868735.62547  17997096.1724   17997094.2384
      3172.0614
  -2994036.16848  -2324158.85244  19621799.5864   19621798.2624
      -946.6464
 -14168164.35947 -11019866.60943  20771393.8444   20771393.4694
      1511.5134
 -22063894.55948 -17188725.97344  19950371.1174   19950367.6174
      1690.9364
 -17342013.43749 -13508481.13346  18142196.2894   18142194.1214
      2014.9284
 -21065482.03149 -16396485.48845  19392705.1804   19392702.5434
      4389.3434
 04  9 10 22 45 59.9920000  0  6G 8G13G10G19G27G28
 -25584539.64549 -19905762.08647  17988053.7744   17988051.7624
      3167.8214
  -2979757.16448  -2313032.38744  19624517.1564   19624516.0244
      -951.9344
 -14190703.66047 -11037429.71943  20767104.9774   20767104.4924
      1502.6204
 -22089118.46548 -17208380.96144  19945571.2424   19945567.9304
      1681.5944
 -17372180.95349 -13531988.28946  18136455.4694   18136453.5274
      2011.1684
 -21131246.25449 -16447730.30945  19380191.0784   19380188.9224
      4384.2824
 04  9 10 22 46 14.9920000  0  6G 8G13G10G19G27G28
 -25631993.60549 -19942739.21147  17979023.5004   17979021.5904
      3163.5974
  -2965399.51648  -2301844.63744  19627249.3674   19627248.0084
      -957.1774
 -14213110.19947 -11054889.38343  20762840.8994   20762841.3444
      1493.7694
 -22114202.58649 -17227927.01244  19940798.2034   19940793.8484
      1672.2754
 -17402292.33649 -13555451.70746  18130725.7194   18130723.4104
      2007.4264
 -21196934.94549 -16498916.28545  19367691.0864   19367688.4694
      4379.2464
 04  9 10 22 46 29.9920000  0  6G 8G13G10G19G27G28
 -25679382.61349 -19979665.70746  17970006.0394   17970003.7274
      3159.2674
  -2950961.88748  -2290594.56644  19629996.9694   19629995.7464
      -962.5094
 -14235382.53947 -11072244.46942  20758603.2744   20758602.8634
      1484.8234
 -22139145.59849 -17247363.11744  19936051.7034   19936047.6374
      1662.8674
 -17432346.05949 -13578870.19146  18125006.3594   18125004.7544
      2003.5824
 -21262546.49248 -16550042.14144  19355204.8994   19355202.6644
      4374.1034
 04  9 10 22 46 44.9920000  0  6G 8G13G10G19G27G28
 -25726707.27349 -20016542.05547  17961000.1024   17960998.2894
      3154.9774
  -2936445.13348  -2279282.84844  19632759.8054   19632758.1644
      -967.7844
 -14257521.61347 -11089495.67643  20754390.3914   20754389.4884
      1475.9384
 -22163948.03548 -17266689.69145  19931331.5244   19931328.5474
      1653.4964
 -17462342.49249 -13602244.03946  18119298.5084   18119296.3754
      1999.7624
 -21328081.51249 -16601108.35944  19342734.0164   19342731.3674
      4369.0014
 04  9 10 22 46 59.9920000  0  6G 8G13G10G19G27G28
 -25773964.80949 -20053366.09846  17952007.1174   17952005.5744
      3150.5024
  -2921847.03548  -2267907.72744  19635537.1564   19635535.5434
      -973.2074
 -14279524.94147 -11106641.14842  20750202.1414   20750201.4614
      1466.8894
 -22188607.47348 -17285904.84044  19926639.0244   19926635.5514
      1643.9634
 -17492279.21949 -13625571.35246  18113601.6644   18113599.4774
      1995.7824
 -21393537.26249 -16652112.81244  19330278.2894   19330276.1564
      4363.7174
 04  9 10 22 47 14.9910000  0  6G 8G13G10G19G27G28
 -25821150.54749 -20090134.19547  17943028.1364   17943026.5504
      3145.7164
  -2907167.36348  -2256469.06244  19638331.0584   19638329.7224
      -978.6454
 -14301389.73447 -11123678.67642  20746042.1284   20746041.1204
      1457.6534
 -22213120.89548 -17305006.19944  19921974.0424   19921970.7844
      1634.2284
 -17522152.50049 -13648849.24246  18107917.3004   18107914.9294
      1991.5524
 -21458907.95749 -16703051.00445  19317838.8474   19317836.8004
      4358.0464
 04  9 10 22 47 29.9910000  0  6G 8G13G10G19G27G28
 -25868271.33249 -20126851.69146  17934061.1674   17934059.6164
      3141.3864
  -2892404.87948  -2244965.84444  19641140.2534   19641138.7264
      -984.1664
 -14323119.64147 -11140611.09443  20741907.3554   20741906.8274
      1448.6604
 -22237492.04348 -17323996.70344  19917336.5034   19917333.4804
      1624.7434
 -17551966.91449 -13672081.25046  18102243.2454   18102241.5464
      1987.6284
 -21524202.68449 -16753929.98845  19305413.8624   19305411.0304
      4352.9824
 04  9 10 22 47 44.9910000  0  6G 8G13G10G19G27G28
 -25915324.85949 -20163516.76647  17925107.2694   17925105.5664
      3136.9024
  -2877561.87548  -2233399.88744  19643964.2454   19643963.4054
      -989.5344
 -14344714.41847 -11157438.19543  20737797.9564   20737797.8124
      1439.6524
 -22261720.44948 -17342875.98444  19912726.0584   19912722.9294
      1615.2274
 -17581721.43449 -13695266.59446  18096581.3234   18096579.2374
      1983.6354
 -21589418.18749 -16804747.24245  19293003.7224   19293000.8084
      4347.7004
 04  9 10 22 47 59.9910000  0  6G 8G13G10G19G27G28
 -25962309.89149 -20200128.47347  17916166.3944   17916164.7614
      3132.3354
  -2862637.32048  -2221770.38744  19646804.3554   19646803.3944
      -994.9704
 -14366172.96547 -11174159.13343  20733714.3784   20733714.2064
      1430.5704
 -22285804.79748 -17361643.01644  19908143.2144   19908139.0234
      1605.6234
 -17611414.63349 -13718404.15646  18090931.2304   18090928.9214
      1979.5474
 -21654553.00049 -16855501.61345  19280608.5894   19280606.9014
      4342.3214
 04  9 10 22 48 14.9910000  0  6G 8G13G10G19G27G28
 -26009227.62549 -20236687.73047  17907238.2224   17907236.8354
      3127.8494
  -2847632.75448  -2210078.55144  19649659.5034   19649658.6404
     -1000.3044
 -14387496.72347 -11190775.06642  20729656.5114   20729656.0974
      1421.5844
 -22309746.44948 -17380298.83644  19903587.0264   19903583.4804
      1596.1104
 -17641047.91449 -13741495.02046  18085291.9644   18085289.8664
      1975.5524
 -21719608.38349 -16906194.08645  19268228.7614   19268227.1914
      4337.0264
 04  9 10 22 48 29.9910000  0  6G 8G13G10G19G27G28
 -26056076.38749 -20273193.26647  17898322.9724   17898321.3824
      3123.2514
  -2832546.89148  -2198323.37144  19652530.6124   19652529.1634
     -1005.7244
 -14408684.47347 -11207285.03542  20725624.5114   20725624.0694
      1412.5174
 -22333544.07848 -17398842.43744  19899058.4254   19899055.5894
      1586.5094
 -17670619.48849 -13764537.80146  18079664.6444   18079662.5344
      1971.4384
 -21784582.63749 -16956823.35245  19255864.8554   19255862.2844
      4331.6174
 04  9 10 22 48 44.9910000  0  6G 8G13G10G19G27G28
 -26102859.69549 -20309647.77747  17889420.7844   17889418.7694
      3118.8874
  -2817383.64148  -2186507.87144  19655416.3624   19655414.0854
     -1010.8834
 -14429739.82047 -11223691.83242  20721618.3084   20721617.6284
      1403.6904
 -22357201.15648 -17417276.53144  19894556.7844   19894553.2104
      1577.1394
 -17700132.89849 -13787535.26646  18074048.1754   18074046.3584
      1967.5614
 -21849479.46949 -17007392.28945  19243515.0584   19243513.2104
      4326.4554
 04  9 10 22 48 59.9910000  0  6G 8G13G10G19G27G28
 -26149578.10249 -20346051.73047  17880530.2694   17880528.8004
      3114.5604
  -2802143.74648  -2174632.64144  19658316.6364   19658314.6674
     -1015.9934
 -14450663.60247 -11239996.06242  20717636.8394   20717635.6124
      1394.9194
 -22380718.30948 -17435601.59444  19890081.4014   19890078.3554
      1567.8104
 -17729588.55149 -13810487.72746  18068443.4014   18068441.4294
      1963.7104
 -21914299.25448 -17057901.18445  19231180.7304   19231178.3234
      4321.3194
 04  9 10 22 49 14.9910000  0  6G 8G13G10G19G27G28
 -26196233.34449 -20382406.45747  17871651.9644   17871650.3044
      3110.3494
  -2786829.44548  -2162699.46944  19661230.5264   19661229.5584
     -1020.9534
 -14471457.82047 -11256199.34442  20713679.3004   20713678.7304
      1386.2814
 -22404097.46948 -17453819.10544  19885632.8944   19885628.9994
      1558.6114
 -17758988.38349 -13833396.68746  18062848.6594   18062846.4874
      1959.9894
 -21979043.79349 -17108351.46545  19218860.5664   19218856.9334
      4316.3034
 04  9 10 22 49 29.9910000  0  6G 8G13G10G19G27G28
 -26242823.66049 -20418710.59046  17862786.4014   17862783.7574
      3106.0214
  -2771439.33648  -2150707.21944  19664159.5814   19664158.0034
     -1026.0074
 -14492121.19147 -11272300.66042  20709746.9414   20709747.0304
      1377.5584
 -22427337.19149 -17471927.98844  19881210.2224   19881206.7534
      1549.3154
 -17788330.72349 -13856260.84046  18057264.8314   18057262.9994
      1956.1564
 -22043711.53549 -17158741.91844  19206554.0894   19206551.3584
      4311.1834
 04  9 10 22 49 44.9910000  0  6G 8G13G10G19G27G28
 -26289350.42249 -20454965.20747  17853932.6364   17853930.6834
      3101.7844
  -2755975.13748  -2138657.19944  19667102.0264   19667100.8044
     -1030.9474
 -14512655.10947 -11288301.16843  20705839.8704   20705839.6244
      1368.9284
 -22450438.84048 -17489929.27044  19876814.0664   19876810.5264
      1540.1104
 -17817616.91049 -13879081.25046  18051692.1984   18051690.0774
      1952.4124
 -22108303.83248 -17209073.54344  19194262.5114   19194260.6084
      4306.1534
 04  9 10 22 49 59.9910000  0  6G 8G13G10G19G27G28
 -26335808.51249 -20491166.31247  17845091.7924   17845090.0544
      3097.2064
  -2740431.80948  -2126545.55944  19670059.6284   19670058.4444
     -1036.2224
 -14533054.81247 -11304197.02743  20701957.6204   20701958.1364
      1359.9804
 -22473397.44548 -17507819.09444  19872444.8084   19872441.8004
      1530.5744
 -17846841.72749 -13901853.84046  18046130.8624   18046128.7924
      1948.3214
 -22172815.40249 -17259342.25445  19181986.3314   19181984.5664
      4300.7714
 04  9 10 22 50 14.9910000  0  6G 8G13G10G19G27G28
 -26382199.48849 -20527315.10947  17836263.8944   17836262.3354
      3092.7324
  -2724811.50448  -2114373.91444  19673032.2304   19673030.7374
     -1041.3544
 -14553322.10947 -11319989.73043  20698101.1754   20698100.4294
      1351.1534
 -22496214.74648 -17525598.80944  19868103.4484   19868100.0504
      1521.1534
 -17876006.73449 -13924579.81646  18040580.9334   18040578.7414
      1944.3344
 -22237247.96949 -17309549.43445  19169725.7064   19169723.5154
      4295.5044
 04  9 10 22 50 29.9910000  0  6G 8G13G10G19G27G28
 -26428521.92649 -20563410.50447  17827448.9644   17827447.6484
      3088.1634
  -2709113.06248  -2102141.40644  19676019.8394   19676018.4804
     -1046.5634
 -14573456.05947 -11335678.53142  20694269.4644   20694268.9254
      1342.2634
 -22518889.64848 -17543267.55944  19863788.0264   19863785.1874
      1511.6604
 -17905110.68749 -13947258.22346  18035042.3784   18035040.2334
      1940.2644
 -22301600.13349 -17359693.96145  19157479.7304   19157477.0194
      4290.1444
 04  9 10 22 50 44.9910000  0  6G 8G13G10G19G27G28
 -26474773.77349 -20599450.91447  17818647.7454   17818646.2374
      3083.4574
  -2693334.94948  -2089846.80144  19679022.1364   19679020.6944
     -1051.8744
 -14593454.77747 -11351261.96942  20690464.3164   20690464.1054
      1333.2484
 -22541420.04748 -17560823.73044  19859501.0264   19859498.0384
      1502.0274
 -17934151.50049 -13969887.43446  18029516.3314   18029514.0344
      1936.0544
 -22365869.97749 -17409774.34045  19145249.2454   19145247.4764
      4284.6564
 04  9 10 22 50 59.9910000  0  6G 8G13G10G19G27G28
 -26520956.46949 -20635437.41847  17809859.4334   17809857.9524
      3078.8464
  -2677478.73848  -2077491.34844  19682039.4484   19682038.2104
     -1057.0814
 -14613319.91046 -11366741.28942  20686683.4644   20686683.3904
      1324.3424
 -22563807.57048 -17578268.55144  19855241.3394   19855237.9524
      1492.5024
 -17963130.52349 -13992468.48046  18024001.5814   18023999.6244
      1931.9354
 -22430058.82448 -17459791.59044  19133034.6914   19133032.3044
      4279.2574
 04  9 10 22 51 14.9910000  0  6G 8G13G10G19G27G28
 -26567070.52749 -20671370.44147  17801084.1514   17801082.2734
      3074.2714
  -2661545.38748  -2065075.78544  19685071.2924   19685070.9804
     -1062.2234
 -14633052.27746 -11382117.18043  20682929.2144   20682928.9014
      1315.4914
 -22586052.87548 -17595602.55944  19851007.4094   19851003.6084
      1483.0204
 -17992048.30949 -14015001.81646  18018498.5974   18018496.3514
      1927.8524
 -22494167.18449 -17509746.13745  19120835.3234   19120832.6444
      4273.8914
 04  9 10 22 51 29.9910000  0  6G 8G13G10G19G27G28
 -26613114.64149 -20707248.96146  17792322.4954   17792320.9724
      3069.6084
  -2645533.93048  -2052599.35544  19688118.6834   19688117.3554
     -1067.4304
 -14652650.90647 -11397388.85243  20679199.7374   20679199.6204
      1306.5754
 -22608154.67648 -17612824.73044  19846802.1594   19846797.7614
      1473.4534
 -18020903.59449 -14037486.45346  18013007.7304   18013005.8084
      1923.6864
 -22558193.81649 -17559637.00445  19108651.1594   19108649.0664
      4268.4424
 04  9 10 22 51 44.9910000  0  6G 8G13G10G19G27G28
 -26659090.79749 -20743074.52347  17783573.5114   17783571.5894
      3065.0774
  -2629446.47348  -2040063.70344  19691179.7844   19691178.3044
     -1072.4974
 -14672117.84447 -11412557.91042  20675494.9724   20675495.2144
      1297.7964
 -22630115.18748 -17629936.80944  19842622.9644   19842618.9804
      1464.0344
 -18049698.14149 -14059923.77346  18007528.4804   18007526.5114
      1919.6364
 -22622140.54349 -17609465.60245  19096482.3004   19096479.4914
      4263.1154
 04  9 10 22 51 59.9910000  0  6G 8G13G10G19G27G28
 -26705000.01649 -20778847.94147  17774836.9644   17774835.2374
      3060.6154
  -2613284.52048  -2027470.00444  19694255.4874   19694253.7964
     -1077.4644
 -14691454.59847 -11427625.53942  20671815.1284   20671814.8944
      1289.1174
 -22651935.73848 -17646939.82444  19838470.4254   19838467.0264
      1454.7034
 -18078433.22349 -14082314.74246  18002060.1054   18002057.9874
      1915.6724
 -22686008.58649 -17659232.89545  19084329.2844   19084326.3904
      4257.8704
 04  9 10 22 52 14.9910000  0  6G 8G13G10G19G27G28
 -26750842.02349 -20814568.99647  17766113.5974   17766111.7764
      3056.1344
  -2597048.30948  -2014818.42244  19697344.9014   19697343.8944
     -1082.4144
 -14710661.31247 -11442591.81242  20668160.2454   20668159.9804
      1280.4484
 -22673616.16448 -17663833.67244  19834345.2694   19834341.0304
      1445.3624
 -18107108.60549 -14104659.18446  17996603.5344   17996601.2494
      1911.6924
 -22749797.78949 -17708938.75045  19072190.2844   19072188.3314
      4252.6144
 04  9 10 22 52 29.9910000  0  6G 8G13G10G19G27G28
 -26796614.73449 -20850236.03147  17757403.2224   17757401.2454
      3051.5144
  -2580735.84848  -2002107.46144  19700449.2064   19700448.3984
     -1087.4974
 -14729735.94547 -11457455.16442  20664530.8474   20664530.4994
      1271.6424
 -22695154.34848 -17680616.67244  19830246.0344   19830242.0664
      1435.8794
 -18135722.07449 -14126955.39546  17991158.5734   17991156.3554
      1907.5654
 -22813505.97749 -17758581.46145  19060067.0344   19060064.8904
      4247.2134
 04  9 10 22 52 44.9910000  0  6G 8G13G10G19G27G28
 -26842318.62149 -20885849.45347  17748706.3944   17748704.0854
      3046.9264
  -2564348.37148  -1989338.04344  19703567.4724   19703566.8744
     -1092.4984
 -14748679.71947 -11472216.55543  20660925.9334   20660925.7144
      1262.9184
 -22716551.39148 -17697289.70744  19826174.9254   19826170.5304
      1426.4704
 -18164274.37149 -14149203.94946  17985725.3084   17985723.1914
      1903.4864
 -22877133.98849 -17808161.69945  19047958.5424   19047956.5854
      4241.8674
 04  9 10 22 52 59.9910000  0  6G 8G13G10G19G27G28
 -26887955.26249 -20921410.46947  17740021.9484   17740019.8744
      3042.4434
  -2547887.66848  -1976511.55144  19706700.1444   19706698.5664
     -1097.3804
 -14767494.16447 -11486877.14842  20657345.6364   20657345.8704
      1254.2964
 -22737808.68748 -17713853.81644  19822129.5974   19822125.5894
      1417.1534
 -18192766.94549 -14171405.94146  17980303.1984   17980300.9834
      1899.5054
 -22940682.96549 -17857680.35944  19035865.6914   19035863.2374
      4236.5984
 04  9 10 22 53 14.9910000  0  6G 8G13G10G19G27G28
 -26933522.84449 -20956917.65247  17731350.5344   17731348.8744
      3037.8394
  -2531352.30948  -1963626.87944  19709846.2064   19709845.5114
     -1102.3574
 -14786178.03947 -11501436.03142  20653790.1204   20653790.1284
      1245.5924
 -22758924.91848 -17730308.01644  19818111.5424   19818107.9724
      1407.7494
 -18221198.19549 -14193560.16046  17974892.7144   17974890.5694
      1895.4174
 -23004151.58649 -17907136.41845  19023788.4724   19023785.8514
      4231.2414
 04  9 10 22 53 29.9910000  0  6G 8G13G10G19G27G28
 -26979021.31249 -20992371.01647  17722692.6284   17722690.8274
      3033.2314
  -2514742.53948  -1950684.24244  19713006.7534   19713006.5344
     -1107.3184
 -14804731.33647 -11515893.16442  20650259.0734   20650259.5894
      1236.8864
 -22779900.02048 -17746652.24244  19814119.9174   19814115.5114
      1398.3404
 -18249567.82449 -14215666.36746  17969494.3554   17969491.9834
      1891.3094
 -23067539.55549 -17956529.62545  19011725.8554   19011723.9174
      4225.8654
 04  9 10 22 53 44.9910000  0  6G 8G13G10G19G27G28
 -27024449.75049 -21027769.78547  17714048.0264   17714046.3704
      3028.5634
  -2498057.73048  -1937683.11744  19716182.5814   19716181.7374
     -1112.3214
 -14823153.27747 -11530247.96142  20646753.8164   20646753.4564
      1228.1294
 -22800733.04348 -17762885.76244  19810155.6834   19810151.5504
      1388.8684
 -18277874.81249 -14237723.76646  17964107.9564   17964105.6054
      1887.1334
 -23130845.96949 -18005859.28145  18999679.3474   18999677.2924
      4220.4284
 04  9 10 22 53 59.9910000  0  6G 8G13G10G19G27G28
 -27069806.48049 -21063112.68447  17705416.5264   17705414.7184
      3023.7824
  -2481296.44948  -1924622.42244  19719371.6204   19719370.9414
     -1117.4194
 -14841442.68447 -11544499.46943  20643273.4094   20643273.3584
      1219.2944
 -22821422.60248 -17779007.47344  19806218.1834   19806214.5464
      1379.3044
 -18306117.79349 -14259731.28546  17958733.5194   17958731.4014
      1882.8654
 -23194069.24649 -18055124.14145  18987648.5584   18987646.4564
      4214.8854
 04  9 10 22 54 14.9910000  0  6G 8G13G10G19G27G28
 -27115091.05549 -21098399.35247  17696799.1914   17696797.3944
      3018.9724
  -2464458.66048  -1911502.09844  19722575.8944   19722575.0114
     -1122.5194
 -14859599.37947 -11558647.56643  20639818.9644   20639818.6984
      1210.4464
 -22841968.34848 -17795017.15244  19802308.5424   19802305.0774
      1369.7164
 -18334296.08649 -14281688.38346  17953371.2454   17953369.2804
      1878.5534
 -23257208.91049 -18104323.86345  18975633.2534   18975630.9914
      4209.3114
 04  9 10 22 54 29.9910000  0  6G 8G13G10G19G27G28
 -27160302.75049 -21133629.24647  17688195.5264   17688193.2884
      3014.1134
  -2447544.13348  -1898321.98844  19725795.2844   19725794.1484
     -1127.6354
 -14877623.12547 -11572692.04343  20636389.0504   20636388.6324
      1201.5834
 -22862369.95348 -17810914.49644  19798426.0894   19798422.5114
      1360.1074
 -18362409.15649 -14303594.67646  17948021.1444   17948019.6084
      1874.2054
 -23320264.35949 -18153457.95345  18963634.0974   18963631.7494
      4203.6974
 04  9 10 22 54 44.9910000  0  7G29G 8G13G10G19G27G28
   -228422.43414                  21533641.847

 -27205443.68049 -21168803.99247  17679605.7144   17679603.6324
      3009.3954
  -2430555.21948  -1885083.91044  19729027.9254   19729027.0854
     -1132.5944
 -14895516.20747 -11586634.70343  20632983.8554   20632983.3044
      1192.8724
 -22882629.54348 -17826701.18444  19794570.5424   19794566.9954
      1350.6394
 -18390459.04749 -14325451.73446  17942683.7614   17942681.5974
      1869.9934
 -23383237.69149 -18202528.06245  18951650.4174   18951648.3944
      4198.2224
 04  9 10 22 54 59.9910000  0  7G29G 8G13G10G19G27G28
   -309195.117 4                  21518270.683
      5384.846
 -27250517.33649 -21203926.32447  17671028.3944   17671026.4994
      3004.9104
  -2413495.78948  -1871790.88343  19732274.2924   19732273.1164
     -1137.2954
 -14913282.34047 -11600478.46543  20629603.8474   20629602.9334
      1184.4094
 -22902750.83248 -17842380.10544  19790741.8554   19790738.4014
      1341.4194
 -18418449.20749 -14347262.25446  17937357.1054   17937355.3234
      1866.0114
 -23446132.45349 -18251536.93745  18939682.2534   18939679.3124
      4192.9844
 04  9 10 22 55 14.9910000  0  7G29G 8G13G10G19G27G28
   -389932.824 4                  21502907.073
      5382.514
 -27295522.44949 -21238995.24247  17662464.3234   17662462.4214
      3000.3414
  -2396365.03548  -1858442.27743  19735534.1834   19735532.7104
     -1142.0504
 -14930920.71147 -11614222.66443  20626246.7614   20626246.9834
      1175.8914
 -22922732.80548 -17857950.44944  19786939.3624   19786936.0854
      1332.1324
 -18446378.61349 -14369025.42246  17932042.4484   17932040.6714
      1861.9604
 -23508947.43449 -18300483.66845  18927728.7924   18927725.6324
      4187.6654
 04  9 10 22 55 29.9910000  0  7G29G 8G13G10G19G27G28
   -470638.980 4                  21487549.737
      5380.410
 -27340462.61749 -21274013.54747  17653912.4724   17653910.7764
      2996.0114
  -2379166.86348  -1845041.14143  19738807.1914   19738805.5114
     -1146.5454
 -14948434.99647 -11627870.17242  20622913.9564   20622913.5584
      1167.6194
 -22942579.09048 -17873415.09844  19783162.7764   19783159.0384
      1323.0864
 -18474250.67249 -14390743.91446  17926738.5734   17926736.6444
      1858.1374
 -23571686.13749 -18349370.95745  18915790.2374   18915787.5734
      4182.5804
 04  9 10 22 55 44.9910000  0  7G29G 8G13G10G19G27G28
   -551310.840 4                  21472198.401
      5378.124
 -27385335.26649 -21308979.24647  17645373.6124   17645371.8904
      2991.5104
  -2361899.03948  -1831585.71143  19742092.6124   19742091.3554
     -1151.1884
 -14965823.06247 -11641419.33243  20619605.5504   20619604.9334
      1159.2044
 -22962287.42248 -17888772.22344  19779412.5344   19779409.4874
      1313.8894
 -18502062.74649 -14412415.65646  17921446.2304   17921444.1874
      1854.1384
 -23634346.28949 -18398197.03545  18903866.3004   18903863.8554
      4177.3434
 04  9 10 22 55 59.9910000  0  7G29G 8G13G10G19G27G28
   -631948.234 4                  21456852.948
      5375.826
 -27430140.35949 -21343892.29747  17636847.1364   17636845.8004
      2987.0064
  -2344562.00448  -1818076.37143  19745391.6444   19745390.7804
     -1155.8024
 -14983085.28547 -11654870.41043  20616320.0264   20616320.8084
      1150.8154
 -22981858.03948 -17904022.04744  19775688.2144   19775685.6204
      1304.7084
 -18529815.14549 -14434040.89846  17916165.1984   17916163.0664
      1850.1604
 -23696927.80549 -18446961.82045  18891957.1754   18891955.1554
      4172.1014
 04  9 10 22 56 14.9910000  0  7G29G 8G13G10G19G27G28
   -712547.133 4                  21441516.534
      5373.260
 -27474874.12149 -21378749.76647  17628335.0264   17628333.3904
      2982.2514
  -2327152.26648  -1804510.38343  19748704.5664   19748704.3554
     -1160.6494
 -15000218.06247 -11668220.64542  20613060.1124   20613059.7304
      1142.1854
 -23001287.17248 -17919161.63344  19771991.0974   19771988.2024
      1295.2764
 -18557503.82849 -14455616.49646  17910895.8704   17910894.1324
      1845.9124
 -23759426.97749 -18495662.44945  18880064.0424   18880061.7454
      4166.6114
 04  9 10 22 56 29.9910000  0  7G29G 8G13G10G19G27G28
   -793109.707 5                  21426186.097
      5370.838
 -27519538.96549 -21413553.52747  17619835.4414   17619833.7964
      2977.6564
  -2309672.43048  -1790889.78143  19752031.1754   19752029.8234
     -1165.3224
 -15017224.07046 -11681472.11742  20609824.4014   20609823.7804
      1133.7344
 -23020577.35948 -17934192.93444  19768320.6284   19768317.2804
      1286.0134
 -18585131.24249 -14477144.35246  17905638.8624   17905636.8824
      1841.8284
 -23821846.04749 -18544300.65645  18868186.0814   18868183.6404
      4161.2714
 04  9 10 22 56 44.9910000  0  7G29G 8G13G10G19G27G28
   -873634.828 5                  21410862.112
      5368.341
 -27564133.90649 -21448302.83647  17611349.0344   17611347.3434
      2972.9964
  -2292122.02348  -1777214.15643  19755371.6124   19755369.5814
     -1170.0274
 -15034102.79347 -11694624.36343  20606611.8004   20606611.7804
      1125.2484
 -23039727.96548 -17949115.47744  19764675.8624   19764672.7654
      1276.7074
 -18612696.50049 -14498623.76646  17900393.2534   17900391.4414
      1837.6844
 -23884184.23849 -18592875.85945  18856323.1594   18856320.5154
      4155.8794
